<?xml version="1.0" encoding="UTF-8" standalone="no" ?>
<gpx xmlns="http://www.topografix.com/GPX/1/1" xmlns:xsi="http://www.w3.org/2001/XMLSchema-instance" xsi:schemaLocation="http://www.topografix.com/GPX/1/1 http://www.topografix.com/GPX/1/1/gpx.xsd" version="1.1" creator="VisuGPX - https://www.visugpx.com">
  <metadata>
    <name>Théméricourt - Sagy - l'aubette</name>
    <desc><![CDATA[Randonnée de 25 km en boucle à partir du parking de l'église de Théméricourt.]]></desc>
  </metadata>
  <trk>
    <name><![CDATA[Sagy - l'aubette_R]]></name>
    <trkseg>
      <trkpt lat="49.08676" lon="1.89539">
        <ele>74.9</ele>
        <time>2018-04-08T07:32:29Z</time>
      </trkpt>
      <trkpt lat="49.08683" lon="1.89544">
        <ele>74.19</ele>
        <time>2018-04-08T07:32:38Z</time>
      </trkpt>
      <trkpt lat="49.08688" lon="1.89547">
        <ele>73.94</ele>
        <time>2018-04-08T07:32:42Z</time>
      </trkpt>
      <trkpt lat="49.08692" lon="1.89548">
        <ele>74.07</ele>
        <time>2018-04-08T07:32:45Z</time>
      </trkpt>
      <trkpt lat="49.08702" lon="1.89555">
        <ele>74.32</ele>
        <time>2018-04-08T07:32:55Z</time>
      </trkpt>
      <trkpt lat="49.0871" lon="1.89559">
        <ele>74.3</ele>
        <time>2018-04-08T07:33:06Z</time>
      </trkpt>
      <trkpt lat="49.08714" lon="1.8956">
        <ele>74.14</ele>
        <time>2018-04-08T07:33:09Z</time>
      </trkpt>
      <trkpt lat="49.08717" lon="1.89561">
        <ele>75.16</ele>
        <time>2018-04-08T07:33:11Z</time>
      </trkpt>
      <trkpt lat="49.08731" lon="1.89578">
        <ele>74.64</ele>
        <time>2018-04-08T07:33:26Z</time>
      </trkpt>
      <trkpt lat="49.0875" lon="1.89593">
        <ele>73.23</ele>
        <time>2018-04-08T07:33:43Z</time>
      </trkpt>
      <trkpt lat="49.0877" lon="1.89608">
        <ele>72.81</ele>
        <time>2018-04-08T07:34:00Z</time>
      </trkpt>
      <trkpt lat="49.08774" lon="1.89611">
        <ele>73.43</ele>
        <time>2018-04-08T07:34:04Z</time>
      </trkpt>
      <trkpt lat="49.08777" lon="1.89616">
        <ele>73.09</ele>
        <time>2018-04-08T07:34:08Z</time>
      </trkpt>
      <trkpt lat="49.08794" lon="1.89637">
        <ele>73.15</ele>
        <time>2018-04-08T07:34:26Z</time>
      </trkpt>
      <trkpt lat="49.08795" lon="1.89639">
        <ele>73.01</ele>
        <time>2018-04-08T07:34:28Z</time>
      </trkpt>
      <trkpt lat="49.08811" lon="1.89666">
        <ele>72.69</ele>
        <time>2018-04-08T07:34:46Z</time>
      </trkpt>
      <trkpt lat="49.08823" lon="1.89681">
        <ele>72.65</ele>
        <time>2018-04-08T07:34:57Z</time>
      </trkpt>
      <trkpt lat="49.0883" lon="1.89698">
        <ele>72.58</ele>
        <time>2018-04-08T07:35:07Z</time>
      </trkpt>
      <trkpt lat="49.08833" lon="1.89705">
        <ele>72.56</ele>
        <time>2018-04-08T07:35:12Z</time>
      </trkpt>
      <trkpt lat="49.0884" lon="1.89722">
        <ele>71.96</ele>
        <time>2018-04-08T07:35:25Z</time>
      </trkpt>
      <trkpt lat="49.08844" lon="1.89746">
        <ele>72.03</ele>
        <time>2018-04-08T07:35:38Z</time>
      </trkpt>
      <trkpt lat="49.08845" lon="1.89748">
        <ele>71.82</ele>
        <time>2018-04-08T07:35:40Z</time>
      </trkpt>
      <trkpt lat="49.08858" lon="1.89771">
        <ele>72.55</ele>
        <time>2018-04-08T07:35:59Z</time>
      </trkpt>
      <trkpt lat="49.08861" lon="1.89801">
        <ele>73.24</ele>
        <time>2018-04-08T07:36:13Z</time>
      </trkpt>
      <trkpt lat="49.08867" lon="1.89823">
        <ele>74.18</ele>
        <time>2018-04-08T07:36:29Z</time>
      </trkpt>
      <trkpt lat="49.08874" lon="1.89845">
        <ele>74.52</ele>
        <time>2018-04-08T07:36:41Z</time>
      </trkpt>
      <trkpt lat="49.08887" lon="1.89862">
        <ele>75.95</ele>
        <time>2018-04-08T07:36:56Z</time>
      </trkpt>
      <trkpt lat="49.0889" lon="1.89881">
        <ele>77.37</ele>
        <time>2018-04-08T07:37:10Z</time>
      </trkpt>
      <trkpt lat="49.08877" lon="1.89912">
        <ele>79.15</ele>
        <time>2018-04-08T07:37:27Z</time>
      </trkpt>
      <trkpt lat="49.08869" lon="1.89928">
        <ele>80.21</ele>
        <time>2018-04-08T07:37:39Z</time>
      </trkpt>
      <trkpt lat="49.08859" lon="1.89942">
        <ele>81.5</ele>
        <time>2018-04-08T07:37:52Z</time>
      </trkpt>
      <trkpt lat="49.0885" lon="1.89965">
        <ele>82.74</ele>
        <time>2018-04-08T07:38:05Z</time>
      </trkpt>
      <trkpt lat="49.08836" lon="1.8999">
        <ele>84.44</ele>
        <time>2018-04-08T07:38:23Z</time>
      </trkpt>
      <trkpt lat="49.08829" lon="1.90014">
        <ele>86.32</ele>
        <time>2018-04-08T07:38:38Z</time>
      </trkpt>
      <trkpt lat="49.08823" lon="1.90056">
        <ele>87.41</ele>
        <time>2018-04-08T07:38:58Z</time>
      </trkpt>
      <trkpt lat="49.08823" lon="1.90091">
        <ele>89.18</ele>
        <time>2018-04-08T07:39:17Z</time>
      </trkpt>
      <trkpt lat="49.08824" lon="1.90115">
        <ele>90.32</ele>
        <time>2018-04-08T07:39:34Z</time>
      </trkpt>
      <trkpt lat="49.08825" lon="1.90139">
        <ele>91.76</ele>
        <time>2018-04-08T07:39:49Z</time>
      </trkpt>
      <trkpt lat="49.08827" lon="1.90161">
        <ele>93.5</ele>
        <time>2018-04-08T07:40:06Z</time>
      </trkpt>
      <trkpt lat="49.08834" lon="1.90184">
        <ele>94.9</ele>
        <time>2018-04-08T07:40:23Z</time>
      </trkpt>
      <trkpt lat="49.08839" lon="1.90215">
        <ele>96.68</ele>
        <time>2018-04-08T07:40:44Z</time>
      </trkpt>
      <trkpt lat="49.08847" lon="1.90243">
        <ele>97.81</ele>
        <time>2018-04-08T07:41:02Z</time>
      </trkpt>
      <trkpt lat="49.08851" lon="1.90259">
        <ele>98.61</ele>
        <time>2018-04-08T07:41:12Z</time>
      </trkpt>
      <trkpt lat="49.08852" lon="1.90282">
        <ele>99.34</ele>
        <time>2018-04-08T07:41:21Z</time>
      </trkpt>
      <trkpt lat="49.08854" lon="1.90307">
        <ele>100.82</ele>
        <time>2018-04-08T07:41:37Z</time>
      </trkpt>
      <trkpt lat="49.0886" lon="1.90338">
        <ele>101.37</ele>
        <time>2018-04-08T07:41:54Z</time>
      </trkpt>
      <trkpt lat="49.08867" lon="1.9037">
        <ele>103.14</ele>
        <time>2018-04-08T07:42:15Z</time>
      </trkpt>
      <trkpt lat="49.08867" lon="1.90377">
        <ele>103.59</ele>
        <time>2018-04-08T07:42:26Z</time>
      </trkpt>
      <trkpt lat="49.08862" lon="1.90389">
        <ele>102.34</ele>
        <time>2018-04-08T07:42:44Z</time>
      </trkpt>
      <trkpt lat="49.08861" lon="1.9041">
        <ele>102.24</ele>
        <time>2018-04-08T07:42:56Z</time>
      </trkpt>
      <trkpt lat="49.0886" lon="1.90421">
        <ele>102.24</ele>
        <time>2018-04-08T07:43:03Z</time>
      </trkpt>
      <trkpt lat="49.08859" lon="1.90453">
        <ele>102.64</ele>
        <time>2018-04-08T07:43:19Z</time>
      </trkpt>
      <trkpt lat="49.08858" lon="1.90469">
        <ele>102.7</ele>
        <time>2018-04-08T07:43:27Z</time>
      </trkpt>
      <trkpt lat="49.08854" lon="1.90499">
        <ele>103.25</ele>
        <time>2018-04-08T07:43:43Z</time>
      </trkpt>
      <trkpt lat="49.08851" lon="1.9053">
        <ele>103.82</ele>
        <time>2018-04-08T07:44:05Z</time>
      </trkpt>
      <trkpt lat="49.08842" lon="1.90564">
        <ele>105.02</ele>
        <time>2018-04-08T07:44:27Z</time>
      </trkpt>
      <trkpt lat="49.08842" lon="1.90565">
        <ele>105.19</ele>
        <time>2018-04-08T07:44:28Z</time>
      </trkpt>
      <trkpt lat="49.08834" lon="1.90603">
        <ele>105.13</ele>
        <time>2018-04-08T07:44:44Z</time>
      </trkpt>
      <trkpt lat="49.0883" lon="1.90637">
        <ele>105.32</ele>
        <time>2018-04-08T07:44:59Z</time>
      </trkpt>
      <trkpt lat="49.08829" lon="1.90642">
        <ele>105.93</ele>
        <time>2018-04-08T07:45:02Z</time>
      </trkpt>
      <trkpt lat="49.08827" lon="1.9066">
        <ele>106.37</ele>
        <time>2018-04-08T07:45:12Z</time>
      </trkpt>
      <trkpt lat="49.08823" lon="1.90677">
        <ele>106.63</ele>
        <time>2018-04-08T07:45:21Z</time>
      </trkpt>
      <trkpt lat="49.08816" lon="1.90702">
        <ele>108.44</ele>
        <time>2018-04-08T07:45:37Z</time>
      </trkpt>
      <trkpt lat="49.08815" lon="1.90704">
        <ele>108.04</ele>
        <time>2018-04-08T07:45:38Z</time>
      </trkpt>
      <trkpt lat="49.08812" lon="1.90711">
        <ele>108.41</ele>
        <time>2018-04-08T07:45:42Z</time>
      </trkpt>
      <trkpt lat="49.08806" lon="1.90719">
        <ele>107.77</ele>
        <time>2018-04-08T07:45:48Z</time>
      </trkpt>
      <trkpt lat="49.08805" lon="1.90723">
        <ele>108.14</ele>
        <time>2018-04-08T07:45:50Z</time>
      </trkpt>
      <trkpt lat="49.08798" lon="1.90741">
        <ele>107.82</ele>
        <time>2018-04-08T07:46:02Z</time>
      </trkpt>
      <trkpt lat="49.08791" lon="1.90768">
        <ele>108.39</ele>
        <time>2018-04-08T07:46:17Z</time>
      </trkpt>
      <trkpt lat="49.08786" lon="1.90792">
        <ele>107.85</ele>
        <time>2018-04-08T07:46:31Z</time>
      </trkpt>
      <trkpt lat="49.08784" lon="1.90805">
        <ele>108.36</ele>
        <time>2018-04-08T07:46:38Z</time>
      </trkpt>
      <trkpt lat="49.08779" lon="1.90825">
        <ele>107.97</ele>
        <time>2018-04-08T07:46:50Z</time>
      </trkpt>
      <trkpt lat="49.08774" lon="1.90852">
        <ele>107.55</ele>
        <time>2018-04-08T07:47:04Z</time>
      </trkpt>
      <trkpt lat="49.08771" lon="1.90867">
        <ele>107.56</ele>
        <time>2018-04-08T07:47:12Z</time>
      </trkpt>
      <trkpt lat="49.08767" lon="1.90892">
        <ele>106.9</ele>
        <time>2018-04-08T07:47:27Z</time>
      </trkpt>
      <trkpt lat="49.08766" lon="1.90894">
        <ele>107.11</ele>
        <time>2018-04-08T07:47:28Z</time>
      </trkpt>
      <trkpt lat="49.08764" lon="1.90907">
        <ele>107.76</ele>
        <time>2018-04-08T07:47:34Z</time>
      </trkpt>
      <trkpt lat="49.08761" lon="1.9092">
        <ele>106.98</ele>
        <time>2018-04-08T07:47:40Z</time>
      </trkpt>
      <trkpt lat="49.08758" lon="1.90936">
        <ele>107.19</ele>
        <time>2018-04-08T07:47:49Z</time>
      </trkpt>
      <trkpt lat="49.08757" lon="1.90946">
        <ele>106.73</ele>
        <time>2018-04-08T07:47:54Z</time>
      </trkpt>
      <trkpt lat="49.08752" lon="1.90973">
        <ele>106.47</ele>
        <time>2018-04-08T07:48:09Z</time>
      </trkpt>
      <trkpt lat="49.08751" lon="1.90985">
        <ele>106.3</ele>
        <time>2018-04-08T07:48:15Z</time>
      </trkpt>
      <trkpt lat="49.08748" lon="1.91007">
        <ele>106.27</ele>
        <time>2018-04-08T07:48:26Z</time>
      </trkpt>
      <trkpt lat="49.08741" lon="1.91036">
        <ele>105.98</ele>
        <time>2018-04-08T07:48:42Z</time>
      </trkpt>
      <trkpt lat="49.08734" lon="1.91066">
        <ele>106.42</ele>
        <time>2018-04-08T07:48:59Z</time>
      </trkpt>
      <trkpt lat="49.08725" lon="1.9109">
        <ele>106.39</ele>
        <time>2018-04-08T07:49:14Z</time>
      </trkpt>
      <trkpt lat="49.08722" lon="1.91096">
        <ele>106.28</ele>
        <time>2018-04-08T07:49:18Z</time>
      </trkpt>
      <trkpt lat="49.08711" lon="1.91119">
        <ele>105.21</ele>
        <time>2018-04-08T07:49:34Z</time>
      </trkpt>
      <trkpt lat="49.08708" lon="1.91128">
        <ele>105.64</ele>
        <time>2018-04-08T07:49:40Z</time>
      </trkpt>
      <trkpt lat="49.08701" lon="1.91143">
        <ele>105.06</ele>
        <time>2018-04-08T07:49:50Z</time>
      </trkpt>
      <trkpt lat="49.08695" lon="1.91156">
        <ele>105.71</ele>
        <time>2018-04-08T07:49:58Z</time>
      </trkpt>
      <trkpt lat="49.08686" lon="1.91176">
        <ele>105.45</ele>
        <time>2018-04-08T07:50:10Z</time>
      </trkpt>
      <trkpt lat="49.08673" lon="1.91201">
        <ele>105.97</ele>
        <time>2018-04-08T07:50:26Z</time>
      </trkpt>
      <trkpt lat="49.08669" lon="1.91207">
        <ele>106.35</ele>
        <time>2018-04-08T07:50:30Z</time>
      </trkpt>
      <trkpt lat="49.08667" lon="1.9121">
        <ele>106.25</ele>
        <time>2018-04-08T07:50:33Z</time>
      </trkpt>
      <trkpt lat="49.0866" lon="1.91223">
        <ele>105.86</ele>
        <time>2018-04-08T07:50:41Z</time>
      </trkpt>
      <trkpt lat="49.08657" lon="1.9123">
        <ele>105.96</ele>
        <time>2018-04-08T07:50:45Z</time>
      </trkpt>
      <trkpt lat="49.08648" lon="1.91254">
        <ele>105.86</ele>
        <time>2018-04-08T07:50:59Z</time>
      </trkpt>
      <trkpt lat="49.08637" lon="1.91278">
        <ele>104.88</ele>
        <time>2018-04-08T07:51:13Z</time>
      </trkpt>
      <trkpt lat="49.08629" lon="1.913">
        <ele>103.67</ele>
        <time>2018-04-08T07:51:27Z</time>
      </trkpt>
      <trkpt lat="49.08623" lon="1.91322">
        <ele>103.87</ele>
        <time>2018-04-08T07:51:40Z</time>
      </trkpt>
      <trkpt lat="49.08618" lon="1.91347">
        <ele>102.75</ele>
        <time>2018-04-08T07:51:53Z</time>
      </trkpt>
      <trkpt lat="49.08613" lon="1.91372">
        <ele>102.43</ele>
        <time>2018-04-08T07:52:08Z</time>
      </trkpt>
      <trkpt lat="49.08607" lon="1.914">
        <ele>101.53</ele>
        <time>2018-04-08T07:52:23Z</time>
      </trkpt>
      <trkpt lat="49.08601" lon="1.91427">
        <ele>100.97</ele>
        <time>2018-04-08T07:52:38Z</time>
      </trkpt>
      <trkpt lat="49.08597" lon="1.91444">
        <ele>101.23</ele>
        <time>2018-04-08T07:52:50Z</time>
      </trkpt>
      <trkpt lat="49.08596" lon="1.91447">
        <ele>101.3</ele>
        <time>2018-04-08T07:52:52Z</time>
      </trkpt>
      <trkpt lat="49.08591" lon="1.9147">
        <ele>100.36</ele>
        <time>2018-04-08T07:53:08Z</time>
      </trkpt>
      <trkpt lat="49.0859" lon="1.91475">
        <ele>100.62</ele>
        <time>2018-04-08T07:53:11Z</time>
      </trkpt>
      <trkpt lat="49.08589" lon="1.9148">
        <ele>100.8</ele>
        <time>2018-04-08T07:53:14Z</time>
      </trkpt>
      <trkpt lat="49.08588" lon="1.91486">
        <ele>100.53</ele>
        <time>2018-04-08T07:53:17Z</time>
      </trkpt>
      <trkpt lat="49.08582" lon="1.91508">
        <ele>100.24</ele>
        <time>2018-04-08T07:53:30Z</time>
      </trkpt>
      <trkpt lat="49.08581" lon="1.91512">
        <ele>99.73</ele>
        <time>2018-04-08T07:53:33Z</time>
      </trkpt>
      <trkpt lat="49.08581" lon="1.91517">
        <ele>99.72</ele>
        <time>2018-04-08T07:53:36Z</time>
      </trkpt>
      <trkpt lat="49.08577" lon="1.9153">
        <ele>99.15</ele>
        <time>2018-04-08T07:53:44Z</time>
      </trkpt>
      <trkpt lat="49.08571" lon="1.91553">
        <ele>99.32</ele>
        <time>2018-04-08T07:53:58Z</time>
      </trkpt>
      <trkpt lat="49.08566" lon="1.91568">
        <ele>99.3</ele>
        <time>2018-04-08T07:54:07Z</time>
      </trkpt>
      <trkpt lat="49.08564" lon="1.91575">
        <ele>98.79</ele>
        <time>2018-04-08T07:54:11Z</time>
      </trkpt>
      <trkpt lat="49.08556" lon="1.91593">
        <ele>99.18</ele>
        <time>2018-04-08T07:54:21Z</time>
      </trkpt>
      <trkpt lat="49.0855" lon="1.91609">
        <ele>99.24</ele>
        <time>2018-04-08T07:54:30Z</time>
      </trkpt>
      <trkpt lat="49.08546" lon="1.91617">
        <ele>99.54</ele>
        <time>2018-04-08T07:54:35Z</time>
      </trkpt>
      <trkpt lat="49.0854" lon="1.91635">
        <ele>100.06</ele>
        <time>2018-04-08T07:54:46Z</time>
      </trkpt>
      <trkpt lat="49.08538" lon="1.91638">
        <ele>99.94</ele>
        <time>2018-04-08T07:54:48Z</time>
      </trkpt>
      <trkpt lat="49.08537" lon="1.91643">
        <ele>100.31</ele>
        <time>2018-04-08T07:54:51Z</time>
      </trkpt>
      <trkpt lat="49.08536" lon="1.91647">
        <ele>100.71</ele>
        <time>2018-04-08T07:54:53Z</time>
      </trkpt>
      <trkpt lat="49.08529" lon="1.9167">
        <ele>101.23</ele>
        <time>2018-04-08T07:55:06Z</time>
      </trkpt>
      <trkpt lat="49.08527" lon="1.91675">
        <ele>100.98</ele>
        <time>2018-04-08T07:55:09Z</time>
      </trkpt>
      <trkpt lat="49.08524" lon="1.91681">
        <ele>100.81</ele>
        <time>2018-04-08T07:55:13Z</time>
      </trkpt>
      <trkpt lat="49.08516" lon="1.91701">
        <ele>100.82</ele>
        <time>2018-04-08T07:55:25Z</time>
      </trkpt>
      <trkpt lat="49.08515" lon="1.91702">
        <ele>101.58</ele>
        <time>2018-04-08T07:55:26Z</time>
      </trkpt>
      <trkpt lat="49.08514" lon="1.91705">
        <ele>101.51</ele>
        <time>2018-04-08T07:55:28Z</time>
      </trkpt>
      <trkpt lat="49.08509" lon="1.91715">
        <ele>101.71</ele>
        <time>2018-04-08T07:55:34Z</time>
      </trkpt>
      <trkpt lat="49.08501" lon="1.9173">
        <ele>101.39</ele>
        <time>2018-04-08T07:55:44Z</time>
      </trkpt>
      <trkpt lat="49.08492" lon="1.91749">
        <ele>102.57</ele>
        <time>2018-04-08T07:55:57Z</time>
      </trkpt>
      <trkpt lat="49.08488" lon="1.91761">
        <ele>102.48</ele>
        <time>2018-04-08T07:56:10Z</time>
      </trkpt>
      <trkpt lat="49.08483" lon="1.91773">
        <ele>102.96</ele>
        <time>2018-04-08T07:56:32Z</time>
      </trkpt>
      <trkpt lat="49.08472" lon="1.91788">
        <ele>102.19</ele>
        <time>2018-04-08T07:56:54Z</time>
      </trkpt>
      <trkpt lat="49.08467" lon="1.91797">
        <ele>102.66</ele>
        <time>2018-04-08T07:57:12Z</time>
      </trkpt>
      <trkpt lat="49.08467" lon="1.91797">
        <ele>102.73</ele>
        <time>2018-04-08T07:57:40Z</time>
      </trkpt>
      <trkpt lat="49.08469" lon="1.91794">
        <ele>102.56</ele>
        <time>2018-04-08T07:57:57Z</time>
      </trkpt>
      <trkpt lat="49.08469" lon="1.91798">
        <ele>102.73</ele>
        <time>2018-04-08T07:58:12Z</time>
      </trkpt>
      <trkpt lat="49.08466" lon="1.91813">
        <ele>103.42</ele>
        <time>2018-04-08T07:58:26Z</time>
      </trkpt>
      <trkpt lat="49.08462" lon="1.91822">
        <ele>103.06</ele>
        <time>2018-04-08T07:58:33Z</time>
      </trkpt>
      <trkpt lat="49.08459" lon="1.91829">
        <ele>103.51</ele>
        <time>2018-04-08T07:58:38Z</time>
      </trkpt>
      <trkpt lat="49.08454" lon="1.91839">
        <ele>103.92</ele>
        <time>2018-04-08T07:58:45Z</time>
      </trkpt>
      <trkpt lat="49.08447" lon="1.91854">
        <ele>103.75</ele>
        <time>2018-04-08T07:58:57Z</time>
      </trkpt>
      <trkpt lat="49.08441" lon="1.91871">
        <ele>103.7</ele>
        <time>2018-04-08T07:59:10Z</time>
      </trkpt>
      <trkpt lat="49.08431" lon="1.9189">
        <ele>104.25</ele>
        <time>2018-04-08T07:59:24Z</time>
      </trkpt>
      <trkpt lat="49.08429" lon="1.91896">
        <ele>104.27</ele>
        <time>2018-04-08T07:59:28Z</time>
      </trkpt>
      <trkpt lat="49.0842" lon="1.91917">
        <ele>104.19</ele>
        <time>2018-04-08T07:59:41Z</time>
      </trkpt>
      <trkpt lat="49.08417" lon="1.91924">
        <ele>104.25</ele>
        <time>2018-04-08T07:59:46Z</time>
      </trkpt>
      <trkpt lat="49.08412" lon="1.91939">
        <ele>103.82</ele>
        <time>2018-04-08T07:59:55Z</time>
      </trkpt>
      <trkpt lat="49.084" lon="1.91962">
        <ele>104.16</ele>
        <time>2018-04-08T08:00:08Z</time>
      </trkpt>
      <trkpt lat="49.08396" lon="1.91972">
        <ele>104.6</ele>
        <time>2018-04-08T08:00:15Z</time>
      </trkpt>
      <trkpt lat="49.08386" lon="1.91992">
        <ele>105.42</ele>
        <time>2018-04-08T08:00:29Z</time>
      </trkpt>
      <trkpt lat="49.08384" lon="1.91997">
        <ele>104.7</ele>
        <time>2018-04-08T08:00:32Z</time>
      </trkpt>
      <trkpt lat="49.08374" lon="1.92011">
        <ele>105.23</ele>
        <time>2018-04-08T08:00:44Z</time>
      </trkpt>
      <trkpt lat="49.08371" lon="1.92015">
        <ele>105.42</ele>
        <time>2018-04-08T08:00:48Z</time>
      </trkpt>
      <trkpt lat="49.08361" lon="1.92033">
        <ele>106.23</ele>
        <time>2018-04-08T08:01:01Z</time>
      </trkpt>
      <trkpt lat="49.08348" lon="1.92057">
        <ele>106.98</ele>
        <time>2018-04-08T08:01:18Z</time>
      </trkpt>
      <trkpt lat="49.08333" lon="1.92081">
        <ele>107.88</ele>
        <time>2018-04-08T08:01:36Z</time>
      </trkpt>
      <trkpt lat="49.08315" lon="1.92119">
        <ele>108.79</ele>
        <time>2018-04-08T08:02:01Z</time>
      </trkpt>
      <trkpt lat="49.08304" lon="1.92148">
        <ele>109.17</ele>
        <time>2018-04-08T08:02:20Z</time>
      </trkpt>
      <trkpt lat="49.08299" lon="1.92162">
        <ele>109.28</ele>
        <time>2018-04-08T08:02:36Z</time>
      </trkpt>
      <trkpt lat="49.08296" lon="1.9217">
        <ele>109.85</ele>
        <time>2018-04-08T08:02:45Z</time>
      </trkpt>
      <trkpt lat="49.08292" lon="1.92174">
        <ele>109.48</ele>
        <time>2018-04-08T08:02:49Z</time>
      </trkpt>
      <trkpt lat="49.0829" lon="1.92176">
        <ele>109.79</ele>
        <time>2018-04-08T08:02:51Z</time>
      </trkpt>
      <trkpt lat="49.08287" lon="1.92187">
        <ele>109.48</ele>
        <time>2018-04-08T08:03:02Z</time>
      </trkpt>
      <trkpt lat="49.08286" lon="1.92192">
        <ele>109.43</ele>
        <time>2018-04-08T08:03:05Z</time>
      </trkpt>
      <trkpt lat="49.08286" lon="1.92202">
        <ele>109.13</ele>
        <time>2018-04-08T08:03:10Z</time>
      </trkpt>
      <trkpt lat="49.08273" lon="1.92219">
        <ele>109.7</ele>
        <time>2018-04-08T08:03:26Z</time>
      </trkpt>
      <trkpt lat="49.08263" lon="1.92221">
        <ele>108.41</ele>
        <time>2018-04-08T08:03:36Z</time>
      </trkpt>
      <trkpt lat="49.08254" lon="1.92228">
        <ele>107.65</ele>
        <time>2018-04-08T08:03:44Z</time>
      </trkpt>
      <trkpt lat="49.08239" lon="1.92231">
        <ele>106.16</ele>
        <time>2018-04-08T08:04:01Z</time>
      </trkpt>
      <trkpt lat="49.08222" lon="1.92231">
        <ele>105.38</ele>
        <time>2018-04-08T08:04:13Z</time>
      </trkpt>
      <trkpt lat="49.08206" lon="1.92233">
        <ele>104.18</ele>
        <time>2018-04-08T08:04:26Z</time>
      </trkpt>
      <trkpt lat="49.08198" lon="1.92234">
        <ele>103.07</ele>
        <time>2018-04-08T08:04:34Z</time>
      </trkpt>
      <trkpt lat="49.08188" lon="1.92231">
        <ele>102.75</ele>
        <time>2018-04-08T08:04:40Z</time>
      </trkpt>
      <trkpt lat="49.0818" lon="1.92232">
        <ele>102.11</ele>
        <time>2018-04-08T08:04:51Z</time>
      </trkpt>
      <trkpt lat="49.08178" lon="1.92231">
        <ele>101.82</ele>
        <time>2018-04-08T08:04:53Z</time>
      </trkpt>
      <trkpt lat="49.08171" lon="1.92236">
        <ele>99.93</ele>
        <time>2018-04-08T08:05:08Z</time>
      </trkpt>
      <trkpt lat="49.08157" lon="1.92253">
        <ele>96.74</ele>
        <time>2018-04-08T08:05:24Z</time>
      </trkpt>
      <trkpt lat="49.08148" lon="1.92263">
        <ele>94.49</ele>
        <time>2018-04-08T08:05:38Z</time>
      </trkpt>
      <trkpt lat="49.08133" lon="1.92277">
        <ele>91.6</ele>
        <time>2018-04-08T08:05:57Z</time>
      </trkpt>
      <trkpt lat="49.08125" lon="1.92287">
        <ele>91.25</ele>
        <time>2018-04-08T08:06:04Z</time>
      </trkpt>
      <trkpt lat="49.08114" lon="1.92292">
        <ele>90.59</ele>
        <time>2018-04-08T08:06:10Z</time>
      </trkpt>
      <trkpt lat="49.08099" lon="1.92304">
        <ele>89.18</ele>
        <time>2018-04-08T08:06:25Z</time>
      </trkpt>
      <trkpt lat="49.08092" lon="1.92307">
        <ele>88.39</ele>
        <time>2018-04-08T08:06:33Z</time>
      </trkpt>
      <trkpt lat="49.08073" lon="1.92302">
        <ele>85.17</ele>
        <time>2018-04-08T08:07:00Z</time>
      </trkpt>
      <trkpt lat="49.08071" lon="1.92302">
        <ele>85.07</ele>
        <time>2018-04-08T08:07:01Z</time>
      </trkpt>
      <trkpt lat="49.08049" lon="1.92297">
        <ele>83.42</ele>
        <time>2018-04-08T08:07:19Z</time>
      </trkpt>
      <trkpt lat="49.08038" lon="1.92293">
        <ele>81.78</ele>
        <time>2018-04-08T08:07:33Z</time>
      </trkpt>
      <trkpt lat="49.08028" lon="1.92296">
        <ele>80.16</ele>
        <time>2018-04-08T08:07:52Z</time>
      </trkpt>
      <trkpt lat="49.08011" lon="1.92296">
        <ele>78.07</ele>
        <time>2018-04-08T08:08:07Z</time>
      </trkpt>
      <trkpt lat="49.07992" lon="1.92292">
        <ele>75.13</ele>
        <time>2018-04-08T08:08:23Z</time>
      </trkpt>
      <trkpt lat="49.07973" lon="1.92291">
        <ele>73.17</ele>
        <time>2018-04-08T08:08:43Z</time>
      </trkpt>
      <trkpt lat="49.07967" lon="1.9229">
        <ele>72.5</ele>
        <time>2018-04-08T08:08:52Z</time>
      </trkpt>
      <trkpt lat="49.07965" lon="1.92291">
        <ele>72.47</ele>
        <time>2018-04-08T08:08:54Z</time>
      </trkpt>
      <trkpt lat="49.07952" lon="1.9229">
        <ele>70.3</ele>
        <time>2018-04-08T08:09:09Z</time>
      </trkpt>
      <trkpt lat="49.07926" lon="1.92288">
        <ele>68.69</ele>
        <time>2018-04-08T08:09:29Z</time>
      </trkpt>
      <trkpt lat="49.07908" lon="1.92285">
        <ele>66.34</ele>
        <time>2018-04-08T08:09:46Z</time>
      </trkpt>
      <trkpt lat="49.07903" lon="1.92281">
        <ele>66.25</ele>
        <time>2018-04-08T08:09:51Z</time>
      </trkpt>
      <trkpt lat="49.07892" lon="1.9228">
        <ele>64.26</ele>
        <time>2018-04-08T08:10:03Z</time>
      </trkpt>
      <trkpt lat="49.07863" lon="1.92265">
        <ele>63.63</ele>
        <time>2018-04-08T08:10:25Z</time>
      </trkpt>
      <trkpt lat="49.07848" lon="1.92263">
        <ele>61.32</ele>
        <time>2018-04-08T08:10:41Z</time>
      </trkpt>
      <trkpt lat="49.07843" lon="1.92269">
        <ele>60.56</ele>
        <time>2018-04-08T08:10:58Z</time>
      </trkpt>
      <trkpt lat="49.0784" lon="1.92284">
        <ele>60.52</ele>
        <time>2018-04-08T08:11:06Z</time>
      </trkpt>
      <trkpt lat="49.07837" lon="1.92295">
        <ele>60.45</ele>
        <time>2018-04-08T08:11:13Z</time>
      </trkpt>
      <trkpt lat="49.07833" lon="1.92324">
        <ele>59.9</ele>
        <time>2018-04-08T08:11:28Z</time>
      </trkpt>
      <trkpt lat="49.07831" lon="1.92327">
        <ele>59.76</ele>
        <time>2018-04-08T08:11:41Z</time>
      </trkpt>
      <trkpt lat="49.07822" lon="1.92331">
        <ele>59.78</ele>
        <time>2018-04-08T08:11:55Z</time>
      </trkpt>
      <trkpt lat="49.07822" lon="1.92332">
        <ele>59.56</ele>
        <time>2018-04-08T08:11:56Z</time>
      </trkpt>
      <trkpt lat="49.0782" lon="1.92336">
        <ele>59.1</ele>
        <time>2018-04-08T08:11:58Z</time>
      </trkpt>
      <trkpt lat="49.07814" lon="1.92362">
        <ele>58.69</ele>
        <time>2018-04-08T08:12:12Z</time>
      </trkpt>
      <trkpt lat="49.07816" lon="1.92386">
        <ele>58.62</ele>
        <time>2018-04-08T08:12:26Z</time>
      </trkpt>
      <trkpt lat="49.07817" lon="1.9241">
        <ele>57.64</ele>
        <time>2018-04-08T08:12:42Z</time>
      </trkpt>
      <trkpt lat="49.07809" lon="1.92439">
        <ele>57.42</ele>
        <time>2018-04-08T08:12:57Z</time>
      </trkpt>
      <trkpt lat="49.07802" lon="1.92455">
        <ele>56.56</ele>
        <time>2018-04-08T08:13:10Z</time>
      </trkpt>
      <trkpt lat="49.07789" lon="1.92482">
        <ele>56.25</ele>
        <time>2018-04-08T08:13:25Z</time>
      </trkpt>
      <trkpt lat="49.07784" lon="1.92497">
        <ele>55.32</ele>
        <time>2018-04-08T08:13:34Z</time>
      </trkpt>
      <trkpt lat="49.07781" lon="1.92525">
        <ele>55.21</ele>
        <time>2018-04-08T08:13:49Z</time>
      </trkpt>
      <trkpt lat="49.07779" lon="1.92538">
        <ele>55.31</ele>
        <time>2018-04-08T08:13:57Z</time>
      </trkpt>
      <trkpt lat="49.07779" lon="1.92544">
        <ele>55.06</ele>
        <time>2018-04-08T08:14:16Z</time>
      </trkpt>
      <trkpt lat="49.07782" lon="1.92541">
        <ele>54.41</ele>
        <time>2018-04-08T08:14:27Z</time>
      </trkpt>
      <trkpt lat="49.07784" lon="1.9254">
        <ele>55</ele>
        <time>2018-04-08T08:14:29Z</time>
      </trkpt>
      <trkpt lat="49.07781" lon="1.92551">
        <ele>54.29</ele>
        <time>2018-04-08T08:14:54Z</time>
      </trkpt>
      <trkpt lat="49.07779" lon="1.92553">
        <ele>54.01</ele>
        <time>2018-04-08T08:15:24Z</time>
      </trkpt>
      <trkpt lat="49.07773" lon="1.9256">
        <ele>54.09</ele>
        <time>2018-04-08T08:15:45Z</time>
      </trkpt>
      <trkpt lat="49.07763" lon="1.92586">
        <ele>53.38</ele>
        <time>2018-04-08T08:16:08Z</time>
      </trkpt>
      <trkpt lat="49.07755" lon="1.92611">
        <ele>53.35</ele>
        <time>2018-04-08T08:16:25Z</time>
      </trkpt>
      <trkpt lat="49.07754" lon="1.92638">
        <ele>52.92</ele>
        <time>2018-04-08T08:16:40Z</time>
      </trkpt>
      <trkpt lat="49.07746" lon="1.92655">
        <ele>52.71</ele>
        <time>2018-04-08T08:16:56Z</time>
      </trkpt>
      <trkpt lat="49.07734" lon="1.92654">
        <ele>52.02</ele>
        <time>2018-04-08T08:17:16Z</time>
      </trkpt>
      <trkpt lat="49.07735" lon="1.92651">
        <ele>52.22</ele>
        <time>2018-04-08T08:17:36Z</time>
      </trkpt>
      <trkpt lat="49.07735" lon="1.92654">
        <ele>51.94</ele>
        <time>2018-04-08T08:17:44Z</time>
      </trkpt>
      <trkpt lat="49.0774" lon="1.92658">
        <ele>52.34</ele>
        <time>2018-04-08T08:18:05Z</time>
      </trkpt>
      <trkpt lat="49.07749" lon="1.92665">
        <ele>52.87</ele>
        <time>2018-04-08T08:18:27Z</time>
      </trkpt>
      <trkpt lat="49.0775" lon="1.92671">
        <ele>52.81</ele>
        <time>2018-04-08T08:18:49Z</time>
      </trkpt>
      <trkpt lat="49.07748" lon="1.92685">
        <ele>52.97</ele>
        <time>2018-04-08T08:19:07Z</time>
      </trkpt>
      <trkpt lat="49.07739" lon="1.92708">
        <ele>53.17</ele>
        <time>2018-04-08T08:19:26Z</time>
      </trkpt>
      <trkpt lat="49.0772" lon="1.92718">
        <ele>52.2</ele>
        <time>2018-04-08T08:19:44Z</time>
      </trkpt>
      <trkpt lat="49.07707" lon="1.92712">
        <ele>51.61</ele>
        <time>2018-04-08T08:20:00Z</time>
      </trkpt>
      <trkpt lat="49.07698" lon="1.9272">
        <ele>51.02</ele>
        <time>2018-04-08T08:20:12Z</time>
      </trkpt>
      <trkpt lat="49.07693" lon="1.92722">
        <ele>52.39</ele>
        <time>2018-04-08T08:20:15Z</time>
      </trkpt>
      <trkpt lat="49.07688" lon="1.92721">
        <ele>51.48</ele>
        <time>2018-04-08T08:20:30Z</time>
      </trkpt>
      <trkpt lat="49.07688" lon="1.92724">
        <ele>51.64</ele>
        <time>2018-04-08T08:20:44Z</time>
      </trkpt>
      <trkpt lat="49.07679" lon="1.92717">
        <ele>51.36</ele>
        <time>2018-04-08T08:20:59Z</time>
      </trkpt>
      <trkpt lat="49.07657" lon="1.92705">
        <ele>50.91</ele>
        <time>2018-04-08T08:21:16Z</time>
      </trkpt>
      <trkpt lat="49.07642" lon="1.92695">
        <ele>49.84</ele>
        <time>2018-04-08T08:21:32Z</time>
      </trkpt>
      <trkpt lat="49.07627" lon="1.92685">
        <ele>50.17</ele>
        <time>2018-04-08T08:21:50Z</time>
      </trkpt>
      <trkpt lat="49.07608" lon="1.92677">
        <ele>51.06</ele>
        <time>2018-04-08T08:22:12Z</time>
      </trkpt>
      <trkpt lat="49.076" lon="1.92669">
        <ele>51.21</ele>
        <time>2018-04-08T08:22:21Z</time>
      </trkpt>
      <trkpt lat="49.07593" lon="1.92678">
        <ele>51.19</ele>
        <time>2018-04-08T08:22:46Z</time>
      </trkpt>
      <trkpt lat="49.07586" lon="1.92682">
        <ele>51.31</ele>
        <time>2018-04-08T08:23:02Z</time>
      </trkpt>
      <trkpt lat="49.07581" lon="1.9268">
        <ele>50.76</ele>
        <time>2018-04-08T08:23:09Z</time>
      </trkpt>
      <trkpt lat="49.07575" lon="1.92677">
        <ele>50.87</ele>
        <time>2018-04-08T08:23:18Z</time>
      </trkpt>
      <trkpt lat="49.07569" lon="1.92683">
        <ele>50.69</ele>
        <time>2018-04-08T08:23:40Z</time>
      </trkpt>
      <trkpt lat="49.07575" lon="1.92686">
        <ele>50.66</ele>
        <time>2018-04-08T08:24:08Z</time>
      </trkpt>
      <trkpt lat="49.0758" lon="1.92689">
        <ele>50.93</ele>
        <time>2018-04-08T08:24:34Z</time>
      </trkpt>
      <trkpt lat="49.07585" lon="1.92687">
        <ele>51.45</ele>
        <time>2018-04-08T08:24:55Z</time>
      </trkpt>
      <trkpt lat="49.07589" lon="1.92686">
        <ele>50.19</ele>
        <time>2018-04-08T08:25:23Z</time>
      </trkpt>
      <trkpt lat="49.07589" lon="1.92685">
        <ele>50.35</ele>
        <time>2018-04-08T08:25:57Z</time>
      </trkpt>
      <trkpt lat="49.07594" lon="1.92686">
        <ele>50.97</ele>
        <time>2018-04-08T08:26:25Z</time>
      </trkpt>
      <trkpt lat="49.07596" lon="1.92683">
        <ele>51.3</ele>
        <time>2018-04-08T08:26:32Z</time>
      </trkpt>
      <trkpt lat="49.07582" lon="1.92676">
        <ele>51.84</ele>
        <time>2018-04-08T08:26:47Z</time>
      </trkpt>
      <trkpt lat="49.0757" lon="1.92675">
        <ele>51.71</ele>
        <time>2018-04-08T08:27:01Z</time>
      </trkpt>
      <trkpt lat="49.07567" lon="1.92674">
        <ele>52.01</ele>
        <time>2018-04-08T08:27:04Z</time>
      </trkpt>
      <trkpt lat="49.07562" lon="1.92669">
        <ele>51.82</ele>
        <time>2018-04-08T08:27:06Z</time>
      </trkpt>
      <trkpt lat="49.07546" lon="1.92663">
        <ele>51.74</ele>
        <time>2018-04-08T08:27:20Z</time>
      </trkpt>
      <trkpt lat="49.07528" lon="1.92658">
        <ele>51.5</ele>
        <time>2018-04-08T08:27:38Z</time>
      </trkpt>
      <trkpt lat="49.07509" lon="1.92641">
        <ele>52</ele>
        <time>2018-04-08T08:27:54Z</time>
      </trkpt>
      <trkpt lat="49.07487" lon="1.92621">
        <ele>52.05</ele>
        <time>2018-04-08T08:28:12Z</time>
      </trkpt>
      <trkpt lat="49.07481" lon="1.92618">
        <ele>52.58</ele>
        <time>2018-04-08T08:28:16Z</time>
      </trkpt>
      <trkpt lat="49.07479" lon="1.92616">
        <ele>52.26</ele>
        <time>2018-04-08T08:28:18Z</time>
      </trkpt>
      <trkpt lat="49.07468" lon="1.92619">
        <ele>52.48</ele>
        <time>2018-04-08T08:28:28Z</time>
      </trkpt>
      <trkpt lat="49.07464" lon="1.92619">
        <ele>52.86</ele>
        <time>2018-04-08T08:28:32Z</time>
      </trkpt>
      <trkpt lat="49.07448" lon="1.92608">
        <ele>52.95</ele>
        <time>2018-04-08T08:28:47Z</time>
      </trkpt>
      <trkpt lat="49.07435" lon="1.92605">
        <ele>53.59</ele>
        <time>2018-04-08T08:28:58Z</time>
      </trkpt>
      <trkpt lat="49.07425" lon="1.92601">
        <ele>54.46</ele>
        <time>2018-04-08T08:29:04Z</time>
      </trkpt>
      <trkpt lat="49.07411" lon="1.92599">
        <ele>54.45</ele>
        <time>2018-04-08T08:29:16Z</time>
      </trkpt>
      <trkpt lat="49.07408" lon="1.92598">
        <ele>54.31</ele>
        <time>2018-04-08T08:29:18Z</time>
      </trkpt>
      <trkpt lat="49.07394" lon="1.92596">
        <ele>55.19</ele>
        <time>2018-04-08T08:29:32Z</time>
      </trkpt>
      <trkpt lat="49.07384" lon="1.92596">
        <ele>55.01</ele>
        <time>2018-04-08T08:29:42Z</time>
      </trkpt>
      <trkpt lat="49.07381" lon="1.92598">
        <ele>54.98</ele>
        <time>2018-04-08T08:29:45Z</time>
      </trkpt>
      <trkpt lat="49.07373" lon="1.9259">
        <ele>54.62</ele>
        <time>2018-04-08T08:29:51Z</time>
      </trkpt>
      <trkpt lat="49.07365" lon="1.92589">
        <ele>54.48</ele>
        <time>2018-04-08T08:29:59Z</time>
      </trkpt>
      <trkpt lat="49.07363" lon="1.9259">
        <ele>54.64</ele>
        <time>2018-04-08T08:30:01Z</time>
      </trkpt>
      <trkpt lat="49.07361" lon="1.92589">
        <ele>54.08</ele>
        <time>2018-04-08T08:30:04Z</time>
      </trkpt>
      <trkpt lat="49.07352" lon="1.9259">
        <ele>54.13</ele>
        <time>2018-04-08T08:30:15Z</time>
      </trkpt>
      <trkpt lat="49.07338" lon="1.9258">
        <ele>53.69</ele>
        <time>2018-04-08T08:30:26Z</time>
      </trkpt>
      <trkpt lat="49.07324" lon="1.92565">
        <ele>53.27</ele>
        <time>2018-04-08T08:30:38Z</time>
      </trkpt>
      <trkpt lat="49.07321" lon="1.92566">
        <ele>53.23</ele>
        <time>2018-04-08T08:31:02Z</time>
      </trkpt>
      <trkpt lat="49.07325" lon="1.92568">
        <ele>52.69</ele>
        <time>2018-04-08T08:31:07Z</time>
      </trkpt>
      <trkpt lat="49.07325" lon="1.9257">
        <ele>52.07</ele>
        <time>2018-04-08T08:31:29Z</time>
      </trkpt>
      <trkpt lat="49.07323" lon="1.92576">
        <ele>52.48</ele>
        <time>2018-04-08T08:31:51Z</time>
      </trkpt>
      <trkpt lat="49.0732" lon="1.92583">
        <ele>52.71</ele>
        <time>2018-04-08T08:32:05Z</time>
      </trkpt>
      <trkpt lat="49.07315" lon="1.9259">
        <ele>52.65</ele>
        <time>2018-04-08T08:32:14Z</time>
      </trkpt>
      <trkpt lat="49.07303" lon="1.92603">
        <ele>51.48</ele>
        <time>2018-04-08T08:32:30Z</time>
      </trkpt>
      <trkpt lat="49.073" lon="1.92607">
        <ele>51.19</ele>
        <time>2018-04-08T08:32:34Z</time>
      </trkpt>
      <trkpt lat="49.07297" lon="1.9261">
        <ele>51.43</ele>
        <time>2018-04-08T08:32:38Z</time>
      </trkpt>
      <trkpt lat="49.07292" lon="1.92619">
        <ele>51.08</ele>
        <time>2018-04-08T08:32:45Z</time>
      </trkpt>
      <trkpt lat="49.0728" lon="1.92632">
        <ele>50.68</ele>
        <time>2018-04-08T08:32:58Z</time>
      </trkpt>
      <trkpt lat="49.07265" lon="1.92646">
        <ele>49.62</ele>
        <time>2018-04-08T08:33:10Z</time>
      </trkpt>
      <trkpt lat="49.07249" lon="1.92664">
        <ele>48.76</ele>
        <time>2018-04-08T08:33:25Z</time>
      </trkpt>
      <trkpt lat="49.07242" lon="1.92673">
        <ele>47.88</ele>
        <time>2018-04-08T08:33:33Z</time>
      </trkpt>
      <trkpt lat="49.0724" lon="1.92675">
        <ele>47.92</ele>
        <time>2018-04-08T08:33:35Z</time>
      </trkpt>
      <trkpt lat="49.07228" lon="1.92688">
        <ele>47.52</ele>
        <time>2018-04-08T08:33:47Z</time>
      </trkpt>
      <trkpt lat="49.07219" lon="1.927">
        <ele>46.94</ele>
        <time>2018-04-08T08:33:56Z</time>
      </trkpt>
      <trkpt lat="49.07203" lon="1.92718">
        <ele>46.25</ele>
        <time>2018-04-08T08:34:13Z</time>
      </trkpt>
      <trkpt lat="49.07189" lon="1.92736">
        <ele>46.12</ele>
        <time>2018-04-08T08:34:27Z</time>
      </trkpt>
      <trkpt lat="49.07178" lon="1.92751">
        <ele>45.98</ele>
        <time>2018-04-08T08:34:41Z</time>
      </trkpt>
      <trkpt lat="49.07166" lon="1.92767">
        <ele>46.11</ele>
        <time>2018-04-08T08:34:55Z</time>
      </trkpt>
      <trkpt lat="49.0715" lon="1.92783">
        <ele>47.1</ele>
        <time>2018-04-08T08:35:11Z</time>
      </trkpt>
      <trkpt lat="49.07136" lon="1.92799">
        <ele>47.75</ele>
        <time>2018-04-08T08:35:25Z</time>
      </trkpt>
      <trkpt lat="49.07126" lon="1.92814">
        <ele>49.14</ele>
        <time>2018-04-08T08:35:38Z</time>
      </trkpt>
      <trkpt lat="49.07115" lon="1.92828">
        <ele>50.3</ele>
        <time>2018-04-08T08:35:50Z</time>
      </trkpt>
      <trkpt lat="49.07112" lon="1.92831">
        <ele>50.88</ele>
        <time>2018-04-08T08:35:53Z</time>
      </trkpt>
      <trkpt lat="49.0711" lon="1.92834">
        <ele>50.55</ele>
        <time>2018-04-08T08:35:55Z</time>
      </trkpt>
      <trkpt lat="49.07108" lon="1.92836">
        <ele>50.54</ele>
        <time>2018-04-08T08:35:57Z</time>
      </trkpt>
      <trkpt lat="49.07096" lon="1.92849">
        <ele>52.55</ele>
        <time>2018-04-08T08:36:12Z</time>
      </trkpt>
      <trkpt lat="49.07082" lon="1.92864">
        <ele>53.63</ele>
        <time>2018-04-08T08:36:29Z</time>
      </trkpt>
      <trkpt lat="49.07071" lon="1.92875">
        <ele>54.61</ele>
        <time>2018-04-08T08:36:41Z</time>
      </trkpt>
      <trkpt lat="49.07054" lon="1.92894">
        <ele>55.73</ele>
        <time>2018-04-08T08:36:59Z</time>
      </trkpt>
      <trkpt lat="49.07046" lon="1.92905">
        <ele>56.68</ele>
        <time>2018-04-08T08:37:12Z</time>
      </trkpt>
      <trkpt lat="49.07038" lon="1.92911">
        <ele>57.64</ele>
        <time>2018-04-08T08:37:20Z</time>
      </trkpt>
      <trkpt lat="49.07028" lon="1.92924">
        <ele>59.07</ele>
        <time>2018-04-08T08:37:33Z</time>
      </trkpt>
      <trkpt lat="49.07016" lon="1.92935">
        <ele>59.39</ele>
        <time>2018-04-08T08:37:44Z</time>
      </trkpt>
      <trkpt lat="49.0701" lon="1.92942">
        <ele>59.9</ele>
        <time>2018-04-08T08:37:49Z</time>
      </trkpt>
      <trkpt lat="49.06998" lon="1.92953">
        <ele>60.72</ele>
        <time>2018-04-08T08:38:04Z</time>
      </trkpt>
      <trkpt lat="49.06984" lon="1.92969">
        <ele>61.47</ele>
        <time>2018-04-08T08:38:22Z</time>
      </trkpt>
      <trkpt lat="49.06983" lon="1.9297">
        <ele>61.51</ele>
        <time>2018-04-08T08:38:23Z</time>
      </trkpt>
      <trkpt lat="49.06966" lon="1.92988">
        <ele>62.37</ele>
        <time>2018-04-08T08:38:39Z</time>
      </trkpt>
      <trkpt lat="49.06949" lon="1.93004">
        <ele>63.07</ele>
        <time>2018-04-08T08:39:00Z</time>
      </trkpt>
      <trkpt lat="49.0693" lon="1.93025">
        <ele>64.21</ele>
        <time>2018-04-08T08:39:19Z</time>
      </trkpt>
      <trkpt lat="49.06925" lon="1.9303">
        <ele>64.56</ele>
        <time>2018-04-08T08:39:22Z</time>
      </trkpt>
      <trkpt lat="49.06912" lon="1.93045">
        <ele>65.55</ele>
        <time>2018-04-08T08:39:35Z</time>
      </trkpt>
      <trkpt lat="49.06899" lon="1.93057">
        <ele>66.31</ele>
        <time>2018-04-08T08:39:52Z</time>
      </trkpt>
      <trkpt lat="49.06882" lon="1.93076">
        <ele>67.38</ele>
        <time>2018-04-08T08:40:06Z</time>
      </trkpt>
      <trkpt lat="49.06873" lon="1.93086">
        <ele>67.81</ele>
        <time>2018-04-08T08:40:14Z</time>
      </trkpt>
      <trkpt lat="49.0686" lon="1.93101">
        <ele>68.49</ele>
        <time>2018-04-08T08:40:29Z</time>
      </trkpt>
      <trkpt lat="49.0685" lon="1.9311">
        <ele>69.04</ele>
        <time>2018-04-08T08:40:49Z</time>
      </trkpt>
      <trkpt lat="49.06844" lon="1.93119">
        <ele>68.96</ele>
        <time>2018-04-08T08:41:04Z</time>
      </trkpt>
      <trkpt lat="49.06831" lon="1.93133">
        <ele>69.52</ele>
        <time>2018-04-08T08:41:16Z</time>
      </trkpt>
      <trkpt lat="49.06815" lon="1.93154">
        <ele>70.13</ele>
        <time>2018-04-08T08:41:32Z</time>
      </trkpt>
      <trkpt lat="49.06806" lon="1.93169">
        <ele>70.38</ele>
        <time>2018-04-08T08:41:42Z</time>
      </trkpt>
      <trkpt lat="49.06795" lon="1.93184">
        <ele>70.72</ele>
        <time>2018-04-08T08:41:54Z</time>
      </trkpt>
      <trkpt lat="49.06789" lon="1.9319">
        <ele>70.42</ele>
        <time>2018-04-08T08:41:59Z</time>
      </trkpt>
      <trkpt lat="49.06781" lon="1.93203">
        <ele>69.98</ele>
        <time>2018-04-08T08:42:15Z</time>
      </trkpt>
      <trkpt lat="49.06768" lon="1.93224">
        <ele>69.01</ele>
        <time>2018-04-08T08:42:37Z</time>
      </trkpt>
      <trkpt lat="49.06756" lon="1.93244">
        <ele>66.27</ele>
        <time>2018-04-08T08:42:55Z</time>
      </trkpt>
      <trkpt lat="49.06747" lon="1.93256">
        <ele>66.08</ele>
        <time>2018-04-08T08:43:01Z</time>
      </trkpt>
      <trkpt lat="49.06743" lon="1.9326">
        <ele>66.41</ele>
        <time>2018-04-08T08:43:21Z</time>
      </trkpt>
      <trkpt lat="49.06735" lon="1.93274">
        <ele>64.65</ele>
        <time>2018-04-08T08:43:41Z</time>
      </trkpt>
      <trkpt lat="49.06724" lon="1.93287">
        <ele>63.9</ele>
        <time>2018-04-08T08:43:51Z</time>
      </trkpt>
      <trkpt lat="49.06704" lon="1.93309">
        <ele>62.36</ele>
        <time>2018-04-08T08:44:08Z</time>
      </trkpt>
      <trkpt lat="49.06691" lon="1.93319">
        <ele>60.13</ele>
        <time>2018-04-08T08:44:27Z</time>
      </trkpt>
      <trkpt lat="49.06676" lon="1.93331">
        <ele>58.84</ele>
        <time>2018-04-08T08:44:43Z</time>
      </trkpt>
      <trkpt lat="49.06672" lon="1.93336">
        <ele>59.56</ele>
        <time>2018-04-08T08:45:01Z</time>
      </trkpt>
      <trkpt lat="49.06667" lon="1.9334">
        <ele>58.77</ele>
        <time>2018-04-08T08:45:09Z</time>
      </trkpt>
      <trkpt lat="49.06661" lon="1.93347">
        <ele>58.1</ele>
        <time>2018-04-08T08:45:26Z</time>
      </trkpt>
      <trkpt lat="49.06659" lon="1.93348">
        <ele>57.72</ele>
        <time>2018-04-08T08:45:53Z</time>
      </trkpt>
      <trkpt lat="49.06657" lon="1.93347">
        <ele>58.18</ele>
        <time>2018-04-08T08:46:17Z</time>
      </trkpt>
      <trkpt lat="49.06657" lon="1.93349">
        <ele>57.8</ele>
        <time>2018-04-08T08:46:40Z</time>
      </trkpt>
      <trkpt lat="49.06656" lon="1.93349">
        <ele>58.15</ele>
        <time>2018-04-08T08:46:59Z</time>
      </trkpt>
      <trkpt lat="49.06653" lon="1.93352">
        <ele>58.38</ele>
        <time>2018-04-08T08:47:17Z</time>
      </trkpt>
      <trkpt lat="49.06648" lon="1.93353">
        <ele>57.18</ele>
        <time>2018-04-08T08:47:21Z</time>
      </trkpt>
      <trkpt lat="49.06632" lon="1.93357">
        <ele>56.39</ele>
        <time>2018-04-08T08:47:36Z</time>
      </trkpt>
      <trkpt lat="49.06616" lon="1.93363">
        <ele>54.81</ele>
        <time>2018-04-08T08:47:50Z</time>
      </trkpt>
      <trkpt lat="49.06615" lon="1.93363">
        <ele>55.33</ele>
        <time>2018-04-08T08:47:51Z</time>
      </trkpt>
      <trkpt lat="49.06611" lon="1.93364">
        <ele>54.48</ele>
        <time>2018-04-08T08:47:55Z</time>
      </trkpt>
      <trkpt lat="49.06608" lon="1.93366">
        <ele>54.18</ele>
        <time>2018-04-08T08:47:59Z</time>
      </trkpt>
      <trkpt lat="49.06605" lon="1.93366">
        <ele>54.35</ele>
        <time>2018-04-08T08:48:01Z</time>
      </trkpt>
      <trkpt lat="49.06592" lon="1.93371">
        <ele>53.48</ele>
        <time>2018-04-08T08:48:14Z</time>
      </trkpt>
      <trkpt lat="49.0659" lon="1.93373">
        <ele>53.59</ele>
        <time>2018-04-08T08:48:16Z</time>
      </trkpt>
      <trkpt lat="49.06574" lon="1.93378">
        <ele>51.87</ele>
        <time>2018-04-08T08:48:30Z</time>
      </trkpt>
      <trkpt lat="49.06571" lon="1.9338">
        <ele>52.17</ele>
        <time>2018-04-08T08:48:33Z</time>
      </trkpt>
      <trkpt lat="49.06555" lon="1.93387">
        <ele>51.52</ele>
        <time>2018-04-08T08:48:48Z</time>
      </trkpt>
      <trkpt lat="49.0654" lon="1.93392">
        <ele>49.99</ele>
        <time>2018-04-08T08:49:02Z</time>
      </trkpt>
      <trkpt lat="49.06529" lon="1.93394">
        <ele>49.69</ele>
        <time>2018-04-08T08:49:12Z</time>
      </trkpt>
      <trkpt lat="49.06526" lon="1.93396">
        <ele>49.27</ele>
        <time>2018-04-08T08:49:16Z</time>
      </trkpt>
      <trkpt lat="49.06509" lon="1.93397">
        <ele>48.12</ele>
        <time>2018-04-08T08:49:33Z</time>
      </trkpt>
      <trkpt lat="49.0649" lon="1.934">
        <ele>46.46</ele>
        <time>2018-04-08T08:49:51Z</time>
      </trkpt>
      <trkpt lat="49.06477" lon="1.93398">
        <ele>45.47</ele>
        <time>2018-04-08T08:50:06Z</time>
      </trkpt>
      <trkpt lat="49.06468" lon="1.93402">
        <ele>45.67</ele>
        <time>2018-04-08T08:50:19Z</time>
      </trkpt>
      <trkpt lat="49.06455" lon="1.93401">
        <ele>44.89</ele>
        <time>2018-04-08T08:50:37Z</time>
      </trkpt>
      <trkpt lat="49.06451" lon="1.934">
        <ele>45.17</ele>
        <time>2018-04-08T08:51:02Z</time>
      </trkpt>
      <trkpt lat="49.06446" lon="1.93394">
        <ele>44.96</ele>
        <time>2018-04-08T08:51:16Z</time>
      </trkpt>
      <trkpt lat="49.0644" lon="1.93405">
        <ele>44.58</ele>
        <time>2018-04-08T08:51:37Z</time>
      </trkpt>
      <trkpt lat="49.06439" lon="1.93406">
        <ele>45.09</ele>
        <time>2018-04-08T08:51:38Z</time>
      </trkpt>
      <trkpt lat="49.06426" lon="1.93422">
        <ele>44.48</ele>
        <time>2018-04-08T08:51:54Z</time>
      </trkpt>
      <trkpt lat="49.06417" lon="1.93431">
        <ele>43.85</ele>
        <time>2018-04-08T08:52:03Z</time>
      </trkpt>
      <trkpt lat="49.06413" lon="1.93432">
        <ele>42.82</ele>
        <time>2018-04-08T08:52:07Z</time>
      </trkpt>
      <trkpt lat="49.06405" lon="1.93439">
        <ele>42.54</ele>
        <time>2018-04-08T08:52:15Z</time>
      </trkpt>
      <trkpt lat="49.06383" lon="1.93439">
        <ele>41.44</ele>
        <time>2018-04-08T08:52:33Z</time>
      </trkpt>
      <trkpt lat="49.06374" lon="1.93439">
        <ele>40.97</ele>
        <time>2018-04-08T08:52:40Z</time>
      </trkpt>
      <trkpt lat="49.06357" lon="1.93453">
        <ele>41.26</ele>
        <time>2018-04-08T08:52:57Z</time>
      </trkpt>
      <trkpt lat="49.06344" lon="1.93464">
        <ele>41.43</ele>
        <time>2018-04-08T08:53:11Z</time>
      </trkpt>
      <trkpt lat="49.06334" lon="1.9347">
        <ele>42.01</ele>
        <time>2018-04-08T08:53:20Z</time>
      </trkpt>
      <trkpt lat="49.06327" lon="1.93472">
        <ele>42.73</ele>
        <time>2018-04-08T08:53:30Z</time>
      </trkpt>
      <trkpt lat="49.06325" lon="1.93491">
        <ele>42.54</ele>
        <time>2018-04-08T08:53:43Z</time>
      </trkpt>
      <trkpt lat="49.06325" lon="1.93518">
        <ele>43.68</ele>
        <time>2018-04-08T08:53:58Z</time>
      </trkpt>
      <trkpt lat="49.06331" lon="1.9354">
        <ele>43.17</ele>
        <time>2018-04-08T08:54:14Z</time>
      </trkpt>
      <trkpt lat="49.06337" lon="1.93558">
        <ele>43.37</ele>
        <time>2018-04-08T08:54:29Z</time>
      </trkpt>
      <trkpt lat="49.06339" lon="1.93565">
        <ele>43.48</ele>
        <time>2018-04-08T08:54:35Z</time>
      </trkpt>
      <trkpt lat="49.06346" lon="1.93577">
        <ele>43.38</ele>
        <time>2018-04-08T08:54:46Z</time>
      </trkpt>
      <trkpt lat="49.0636" lon="1.93597">
        <ele>43.96</ele>
        <time>2018-04-08T08:55:03Z</time>
      </trkpt>
      <trkpt lat="49.06362" lon="1.93602">
        <ele>43.9</ele>
        <time>2018-04-08T08:55:06Z</time>
      </trkpt>
      <trkpt lat="49.0637" lon="1.93611">
        <ele>44.36</ele>
        <time>2018-04-08T08:55:15Z</time>
      </trkpt>
      <trkpt lat="49.06372" lon="1.93617">
        <ele>44.76</ele>
        <time>2018-04-08T08:55:19Z</time>
      </trkpt>
      <trkpt lat="49.06375" lon="1.93621">
        <ele>44.73</ele>
        <time>2018-04-08T08:55:22Z</time>
      </trkpt>
      <trkpt lat="49.06387" lon="1.93641">
        <ele>45.33</ele>
        <time>2018-04-08T08:55:37Z</time>
      </trkpt>
      <trkpt lat="49.06392" lon="1.93651">
        <ele>45.49</ele>
        <time>2018-04-08T08:55:45Z</time>
      </trkpt>
      <trkpt lat="49.06405" lon="1.93671">
        <ele>45.81</ele>
        <time>2018-04-08T08:56:02Z</time>
      </trkpt>
      <trkpt lat="49.06409" lon="1.93676">
        <ele>46.03</ele>
        <time>2018-04-08T08:56:07Z</time>
      </trkpt>
      <trkpt lat="49.06419" lon="1.93696">
        <ele>46.78</ele>
        <time>2018-04-08T08:56:22Z</time>
      </trkpt>
      <trkpt lat="49.06432" lon="1.93716">
        <ele>47.6</ele>
        <time>2018-04-08T08:56:39Z</time>
      </trkpt>
      <trkpt lat="49.06432" lon="1.93718">
        <ele>47.77</ele>
        <time>2018-04-08T08:56:55Z</time>
      </trkpt>
      <trkpt lat="49.06431" lon="1.9372">
        <ele>47.51</ele>
        <time>2018-04-08T08:57:11Z</time>
      </trkpt>
      <trkpt lat="49.0643" lon="1.93723">
        <ele>47.85</ele>
        <time>2018-04-08T08:57:31Z</time>
      </trkpt>
      <trkpt lat="49.06431" lon="1.93724">
        <ele>47.96</ele>
        <time>2018-04-08T08:58:01Z</time>
      </trkpt>
      <trkpt lat="49.06427" lon="1.93728">
        <ele>48.18</ele>
        <time>2018-04-08T08:58:14Z</time>
      </trkpt>
      <trkpt lat="49.06413" lon="1.93742">
        <ele>49.13</ele>
        <time>2018-04-08T08:58:28Z</time>
      </trkpt>
      <trkpt lat="49.06397" lon="1.93758">
        <ele>50.15</ele>
        <time>2018-04-08T08:58:45Z</time>
      </trkpt>
      <trkpt lat="49.06384" lon="1.93774">
        <ele>51.77</ele>
        <time>2018-04-08T08:59:00Z</time>
      </trkpt>
      <trkpt lat="49.06381" lon="1.93779">
        <ele>52.09</ele>
        <time>2018-04-08T08:59:10Z</time>
      </trkpt>
      <trkpt lat="49.06378" lon="1.93785">
        <ele>52.97</ele>
        <time>2018-04-08T08:59:15Z</time>
      </trkpt>
      <trkpt lat="49.06374" lon="1.9379">
        <ele>53.34</ele>
        <time>2018-04-08T08:59:20Z</time>
      </trkpt>
      <trkpt lat="49.06364" lon="1.93803">
        <ele>53.84</ele>
        <time>2018-04-08T08:59:36Z</time>
      </trkpt>
      <trkpt lat="49.06351" lon="1.93821">
        <ele>55.66</ele>
        <time>2018-04-08T08:59:53Z</time>
      </trkpt>
      <trkpt lat="49.06345" lon="1.93827">
        <ele>55.7</ele>
        <time>2018-04-08T08:59:59Z</time>
      </trkpt>
      <trkpt lat="49.06336" lon="1.93842">
        <ele>56.81</ele>
        <time>2018-04-08T09:00:15Z</time>
      </trkpt>
      <trkpt lat="49.06326" lon="1.93859">
        <ele>58.35</ele>
        <time>2018-04-08T09:00:33Z</time>
      </trkpt>
      <trkpt lat="49.06316" lon="1.93873">
        <ele>58.45</ele>
        <time>2018-04-08T09:00:49Z</time>
      </trkpt>
      <trkpt lat="49.06313" lon="1.93878">
        <ele>58.1</ele>
        <time>2018-04-08T09:00:52Z</time>
      </trkpt>
      <trkpt lat="49.06297" lon="1.9391">
        <ele>59.59</ele>
        <time>2018-04-08T09:01:09Z</time>
      </trkpt>
      <trkpt lat="49.06286" lon="1.93929">
        <ele>59.56</ele>
        <time>2018-04-08T09:01:22Z</time>
      </trkpt>
      <trkpt lat="49.06278" lon="1.93943">
        <ele>60.3</ele>
        <time>2018-04-08T09:01:32Z</time>
      </trkpt>
      <trkpt lat="49.06265" lon="1.93963">
        <ele>60.95</ele>
        <time>2018-04-08T09:01:47Z</time>
      </trkpt>
      <trkpt lat="49.06263" lon="1.93967">
        <ele>61.63</ele>
        <time>2018-04-08T09:01:49Z</time>
      </trkpt>
      <trkpt lat="49.06253" lon="1.93984">
        <ele>61.96</ele>
        <time>2018-04-08T09:02:03Z</time>
      </trkpt>
      <trkpt lat="49.06245" lon="1.94001">
        <ele>61.79</ele>
        <time>2018-04-08T09:02:16Z</time>
      </trkpt>
      <trkpt lat="49.0624" lon="1.94011">
        <ele>62.21</ele>
        <time>2018-04-08T09:02:23Z</time>
      </trkpt>
      <trkpt lat="49.0623" lon="1.94029">
        <ele>62.59</ele>
        <time>2018-04-08T09:02:37Z</time>
      </trkpt>
      <trkpt lat="49.06218" lon="1.9405">
        <ele>63.12</ele>
        <time>2018-04-08T09:02:52Z</time>
      </trkpt>
      <trkpt lat="49.0621" lon="1.94068">
        <ele>63.16</ele>
        <time>2018-04-08T09:03:07Z</time>
      </trkpt>
      <trkpt lat="49.06198" lon="1.9409">
        <ele>63.69</ele>
        <time>2018-04-08T09:03:21Z</time>
      </trkpt>
      <trkpt lat="49.06186" lon="1.94112">
        <ele>63.78</ele>
        <time>2018-04-08T09:03:37Z</time>
      </trkpt>
      <trkpt lat="49.06175" lon="1.94132">
        <ele>64.43</ele>
        <time>2018-04-08T09:03:53Z</time>
      </trkpt>
      <trkpt lat="49.06162" lon="1.94152">
        <ele>63.21</ele>
        <time>2018-04-08T09:04:11Z</time>
      </trkpt>
      <trkpt lat="49.0616" lon="1.94155">
        <ele>63.18</ele>
        <time>2018-04-08T09:04:14Z</time>
      </trkpt>
      <trkpt lat="49.06155" lon="1.94163">
        <ele>63.5</ele>
        <time>2018-04-08T09:04:20Z</time>
      </trkpt>
      <trkpt lat="49.0615" lon="1.9417">
        <ele>62.75</ele>
        <time>2018-04-08T09:04:26Z</time>
      </trkpt>
      <trkpt lat="49.06139" lon="1.94188">
        <ele>62.19</ele>
        <time>2018-04-08T09:04:41Z</time>
      </trkpt>
      <trkpt lat="49.06138" lon="1.9419">
        <ele>62.2</ele>
        <time>2018-04-08T09:04:43Z</time>
      </trkpt>
      <trkpt lat="49.06134" lon="1.94196">
        <ele>61.61</ele>
        <time>2018-04-08T09:04:49Z</time>
      </trkpt>
      <trkpt lat="49.0612" lon="1.94217">
        <ele>61.23</ele>
        <time>2018-04-08T09:05:05Z</time>
      </trkpt>
      <trkpt lat="49.06116" lon="1.94223">
        <ele>60.74</ele>
        <time>2018-04-08T09:05:10Z</time>
      </trkpt>
      <trkpt lat="49.06113" lon="1.9423">
        <ele>60.87</ele>
        <time>2018-04-08T09:05:15Z</time>
      </trkpt>
      <trkpt lat="49.0611" lon="1.94233">
        <ele>60.74</ele>
        <time>2018-04-08T09:05:18Z</time>
      </trkpt>
      <trkpt lat="49.06098" lon="1.94252">
        <ele>59.94</ele>
        <time>2018-04-08T09:05:34Z</time>
      </trkpt>
      <trkpt lat="49.06085" lon="1.9427">
        <ele>58.97</ele>
        <time>2018-04-08T09:05:49Z</time>
      </trkpt>
      <trkpt lat="49.06071" lon="1.94293">
        <ele>58.67</ele>
        <time>2018-04-08T09:06:06Z</time>
      </trkpt>
      <trkpt lat="49.0607" lon="1.94295">
        <ele>58.74</ele>
        <time>2018-04-08T09:06:08Z</time>
      </trkpt>
      <trkpt lat="49.06068" lon="1.94298">
        <ele>58.76</ele>
        <time>2018-04-08T09:06:10Z</time>
      </trkpt>
      <trkpt lat="49.06066" lon="1.943">
        <ele>58.45</ele>
        <time>2018-04-08T09:06:12Z</time>
      </trkpt>
      <trkpt lat="49.06055" lon="1.94318">
        <ele>58.08</ele>
        <time>2018-04-08T09:06:27Z</time>
      </trkpt>
      <trkpt lat="49.06042" lon="1.94338">
        <ele>57.59</ele>
        <time>2018-04-08T09:06:44Z</time>
      </trkpt>
      <trkpt lat="49.06029" lon="1.94358">
        <ele>57.22</ele>
        <time>2018-04-08T09:07:00Z</time>
      </trkpt>
      <trkpt lat="49.06018" lon="1.94376">
        <ele>56.38</ele>
        <time>2018-04-08T09:07:15Z</time>
      </trkpt>
      <trkpt lat="49.06006" lon="1.94395">
        <ele>56.21</ele>
        <time>2018-04-08T09:07:31Z</time>
      </trkpt>
      <trkpt lat="49.05991" lon="1.94417">
        <ele>56.54</ele>
        <time>2018-04-08T09:07:48Z</time>
      </trkpt>
      <trkpt lat="49.05982" lon="1.94433">
        <ele>56.14</ele>
        <time>2018-04-08T09:08:03Z</time>
      </trkpt>
      <trkpt lat="49.05982" lon="1.94434">
        <ele>56.28</ele>
        <time>2018-04-08T09:08:23Z</time>
      </trkpt>
      <trkpt lat="49.05981" lon="1.94437">
        <ele>56.06</ele>
        <time>2018-04-08T09:08:28Z</time>
      </trkpt>
      <trkpt lat="49.05979" lon="1.94441">
        <ele>55.92</ele>
        <time>2018-04-08T09:08:31Z</time>
      </trkpt>
      <trkpt lat="49.05975" lon="1.94451">
        <ele>55.49</ele>
        <time>2018-04-08T09:08:38Z</time>
      </trkpt>
      <trkpt lat="49.05966" lon="1.94472">
        <ele>56.68</ele>
        <time>2018-04-08T09:08:52Z</time>
      </trkpt>
      <trkpt lat="49.05956" lon="1.94498">
        <ele>56.45</ele>
        <time>2018-04-08T09:09:09Z</time>
      </trkpt>
      <trkpt lat="49.05948" lon="1.9452">
        <ele>57.48</ele>
        <time>2018-04-08T09:09:22Z</time>
      </trkpt>
      <trkpt lat="49.05945" lon="1.94527">
        <ele>56.74</ele>
        <time>2018-04-08T09:09:27Z</time>
      </trkpt>
      <trkpt lat="49.05933" lon="1.94556">
        <ele>57.8</ele>
        <time>2018-04-08T09:09:45Z</time>
      </trkpt>
      <trkpt lat="49.05926" lon="1.94578">
        <ele>58.25</ele>
        <time>2018-04-08T09:10:00Z</time>
      </trkpt>
      <trkpt lat="49.05919" lon="1.94599">
        <ele>58.58</ele>
        <time>2018-04-08T09:10:14Z</time>
      </trkpt>
      <trkpt lat="49.05911" lon="1.94622">
        <ele>58.72</ele>
        <time>2018-04-08T09:10:29Z</time>
      </trkpt>
      <trkpt lat="49.05905" lon="1.94639">
        <ele>58.76</ele>
        <time>2018-04-08T09:10:38Z</time>
      </trkpt>
      <trkpt lat="49.05904" lon="1.94642">
        <ele>59.66</ele>
        <time>2018-04-08T09:10:40Z</time>
      </trkpt>
      <trkpt lat="49.05897" lon="1.94662">
        <ele>59.96</ele>
        <time>2018-04-08T09:10:54Z</time>
      </trkpt>
      <trkpt lat="49.05894" lon="1.94672">
        <ele>59.97</ele>
        <time>2018-04-08T09:11:01Z</time>
      </trkpt>
      <trkpt lat="49.05887" lon="1.94695">
        <ele>60.81</ele>
        <time>2018-04-08T09:11:17Z</time>
      </trkpt>
      <trkpt lat="49.05878" lon="1.9472">
        <ele>60.71</ele>
        <time>2018-04-08T09:11:33Z</time>
      </trkpt>
      <trkpt lat="49.05876" lon="1.94727">
        <ele>60.99</ele>
        <time>2018-04-08T09:11:37Z</time>
      </trkpt>
      <trkpt lat="49.05869" lon="1.94749">
        <ele>61.27</ele>
        <time>2018-04-08T09:11:53Z</time>
      </trkpt>
      <trkpt lat="49.0587" lon="1.94759">
        <ele>61.72</ele>
        <time>2018-04-08T09:12:08Z</time>
      </trkpt>
      <trkpt lat="49.05864" lon="1.94773">
        <ele>61.37</ele>
        <time>2018-04-08T09:12:33Z</time>
      </trkpt>
      <trkpt lat="49.05862" lon="1.94776">
        <ele>61.37</ele>
        <time>2018-04-08T09:12:55Z</time>
      </trkpt>
      <trkpt lat="49.05868" lon="1.94771">
        <ele>61.66</ele>
        <time>2018-04-08T09:13:23Z</time>
      </trkpt>
      <trkpt lat="49.05858" lon="1.94782">
        <ele>61.13</ele>
        <time>2018-04-08T09:13:41Z</time>
      </trkpt>
      <trkpt lat="49.05845" lon="1.94796">
        <ele>60.2</ele>
        <time>2018-04-08T09:14:01Z</time>
      </trkpt>
      <trkpt lat="49.05838" lon="1.94801">
        <ele>60.69</ele>
        <time>2018-04-08T09:14:18Z</time>
      </trkpt>
      <trkpt lat="49.05832" lon="1.94809">
        <ele>60.33</ele>
        <time>2018-04-08T09:14:39Z</time>
      </trkpt>
      <trkpt lat="49.05831" lon="1.9481">
        <ele>60.28</ele>
        <time>2018-04-08T09:14:40Z</time>
      </trkpt>
      <trkpt lat="49.05822" lon="1.94824">
        <ele>60.04</ele>
        <time>2018-04-08T09:14:55Z</time>
      </trkpt>
      <trkpt lat="49.05823" lon="1.94829">
        <ele>60.13</ele>
        <time>2018-04-08T09:15:18Z</time>
      </trkpt>
      <trkpt lat="49.0582" lon="1.94829">
        <ele>60.28</ele>
        <time>2018-04-08T09:15:35Z</time>
      </trkpt>
      <trkpt lat="49.05814" lon="1.94838">
        <ele>59.56</ele>
        <time>2018-04-08T09:15:51Z</time>
      </trkpt>
      <trkpt lat="49.05813" lon="1.9484">
        <ele>59.01</ele>
        <time>2018-04-08T09:15:53Z</time>
      </trkpt>
      <trkpt lat="49.05811" lon="1.94842">
        <ele>59.56</ele>
        <time>2018-04-08T09:15:55Z</time>
      </trkpt>
      <trkpt lat="49.05807" lon="1.94846">
        <ele>59.04</ele>
        <time>2018-04-08T09:15:59Z</time>
      </trkpt>
      <trkpt lat="49.05805" lon="1.94848">
        <ele>59.06</ele>
        <time>2018-04-08T09:16:01Z</time>
      </trkpt>
      <trkpt lat="49.05794" lon="1.94864">
        <ele>58.83</ele>
        <time>2018-04-08T09:16:18Z</time>
      </trkpt>
      <trkpt lat="49.05792" lon="1.94866">
        <ele>58.54</ele>
        <time>2018-04-08T09:16:34Z</time>
      </trkpt>
      <trkpt lat="49.05793" lon="1.94865">
        <ele>59.06</ele>
        <time>2018-04-08T09:16:47Z</time>
      </trkpt>
      <trkpt lat="49.05779" lon="1.9488">
        <ele>58.59</ele>
        <time>2018-04-08T09:17:03Z</time>
      </trkpt>
      <trkpt lat="49.05771" lon="1.94891">
        <ele>57.61</ele>
        <time>2018-04-08T09:17:16Z</time>
      </trkpt>
      <trkpt lat="49.0577" lon="1.94893">
        <ele>57.5</ele>
        <time>2018-04-08T09:17:19Z</time>
      </trkpt>
      <trkpt lat="49.05763" lon="1.94905">
        <ele>57.46</ele>
        <time>2018-04-08T09:17:30Z</time>
      </trkpt>
      <trkpt lat="49.05754" lon="1.94924">
        <ele>57.31</ele>
        <time>2018-04-08T09:17:44Z</time>
      </trkpt>
      <trkpt lat="49.05741" lon="1.94947">
        <ele>57.45</ele>
        <time>2018-04-08T09:17:58Z</time>
      </trkpt>
      <trkpt lat="49.05725" lon="1.94979">
        <ele>57.73</ele>
        <time>2018-04-08T09:18:17Z</time>
      </trkpt>
      <trkpt lat="49.05719" lon="1.94992">
        <ele>57.36</ele>
        <time>2018-04-08T09:18:25Z</time>
      </trkpt>
      <trkpt lat="49.05707" lon="1.95018">
        <ele>57.89</ele>
        <time>2018-04-08T09:18:43Z</time>
      </trkpt>
      <trkpt lat="49.05702" lon="1.9503">
        <ele>57.75</ele>
        <time>2018-04-08T09:18:51Z</time>
      </trkpt>
      <trkpt lat="49.05691" lon="1.95052">
        <ele>57.8</ele>
        <time>2018-04-08T09:19:08Z</time>
      </trkpt>
      <trkpt lat="49.05689" lon="1.95058">
        <ele>57.29</ele>
        <time>2018-04-08T09:19:14Z</time>
      </trkpt>
      <trkpt lat="49.05687" lon="1.95062">
        <ele>57.38</ele>
        <time>2018-04-08T09:19:17Z</time>
      </trkpt>
      <trkpt lat="49.05677" lon="1.95086">
        <ele>58.22</ele>
        <time>2018-04-08T09:19:34Z</time>
      </trkpt>
      <trkpt lat="49.05666" lon="1.95109">
        <ele>58.96</ele>
        <time>2018-04-08T09:19:50Z</time>
      </trkpt>
      <trkpt lat="49.05657" lon="1.95134">
        <ele>60.14</ele>
        <time>2018-04-08T09:20:07Z</time>
      </trkpt>
      <trkpt lat="49.05651" lon="1.95152">
        <ele>59.06</ele>
        <time>2018-04-08T09:20:18Z</time>
      </trkpt>
      <trkpt lat="49.05641" lon="1.95176">
        <ele>58.92</ele>
        <time>2018-04-08T09:20:35Z</time>
      </trkpt>
      <trkpt lat="49.05633" lon="1.95196">
        <ele>58.73</ele>
        <time>2018-04-08T09:20:48Z</time>
      </trkpt>
      <trkpt lat="49.05633" lon="1.95198">
        <ele>58.64</ele>
        <time>2018-04-08T09:20:49Z</time>
      </trkpt>
      <trkpt lat="49.05627" lon="1.95212">
        <ele>58.89</ele>
        <time>2018-04-08T09:20:58Z</time>
      </trkpt>
      <trkpt lat="49.05617" lon="1.95239">
        <ele>57.93</ele>
        <time>2018-04-08T09:21:15Z</time>
      </trkpt>
      <trkpt lat="49.05605" lon="1.95262">
        <ele>57.96</ele>
        <time>2018-04-08T09:21:29Z</time>
      </trkpt>
      <trkpt lat="49.05594" lon="1.9529">
        <ele>57.43</ele>
        <time>2018-04-08T09:21:46Z</time>
      </trkpt>
      <trkpt lat="49.05583" lon="1.9532">
        <ele>56.89</ele>
        <time>2018-04-08T09:22:05Z</time>
      </trkpt>
      <trkpt lat="49.05574" lon="1.95344">
        <ele>56.52</ele>
        <time>2018-04-08T09:22:20Z</time>
      </trkpt>
      <trkpt lat="49.05569" lon="1.95358">
        <ele>56.3</ele>
        <time>2018-04-08T09:22:29Z</time>
      </trkpt>
      <trkpt lat="49.05566" lon="1.95366">
        <ele>56.17</ele>
        <time>2018-04-08T09:22:34Z</time>
      </trkpt>
      <trkpt lat="49.0556" lon="1.95384">
        <ele>55.78</ele>
        <time>2018-04-08T09:22:46Z</time>
      </trkpt>
      <trkpt lat="49.05551" lon="1.95409">
        <ele>56.77</ele>
        <time>2018-04-08T09:23:02Z</time>
      </trkpt>
      <trkpt lat="49.05543" lon="1.95435">
        <ele>56.09</ele>
        <time>2018-04-08T09:23:18Z</time>
      </trkpt>
      <trkpt lat="49.05531" lon="1.95469">
        <ele>55.79</ele>
        <time>2018-04-08T09:23:38Z</time>
      </trkpt>
      <trkpt lat="49.05518" lon="1.95499">
        <ele>55.84</ele>
        <time>2018-04-08T09:23:57Z</time>
      </trkpt>
      <trkpt lat="49.05509" lon="1.95519">
        <ele>56.89</ele>
        <time>2018-04-08T09:24:11Z</time>
      </trkpt>
      <trkpt lat="49.05499" lon="1.95534">
        <ele>57.78</ele>
        <time>2018-04-08T09:24:27Z</time>
      </trkpt>
      <trkpt lat="49.05496" lon="1.95536">
        <ele>57.72</ele>
        <time>2018-04-08T09:24:38Z</time>
      </trkpt>
      <trkpt lat="49.05495" lon="1.95536">
        <ele>58.15</ele>
        <time>2018-04-08T09:25:05Z</time>
      </trkpt>
      <trkpt lat="49.05488" lon="1.95531">
        <ele>57.77</ele>
        <time>2018-04-08T09:25:19Z</time>
      </trkpt>
      <trkpt lat="49.05487" lon="1.95532">
        <ele>57.99</ele>
        <time>2018-04-08T09:25:41Z</time>
      </trkpt>
      <trkpt lat="49.05484" lon="1.95529">
        <ele>57.39</ele>
        <time>2018-04-08T09:25:49Z</time>
      </trkpt>
      <trkpt lat="49.0548" lon="1.95525">
        <ele>57.54</ele>
        <time>2018-04-08T09:25:53Z</time>
      </trkpt>
      <trkpt lat="49.05468" lon="1.95509">
        <ele>56.85</ele>
        <time>2018-04-08T09:26:13Z</time>
      </trkpt>
      <trkpt lat="49.05457" lon="1.95488">
        <ele>56.59</ele>
        <time>2018-04-08T09:26:28Z</time>
      </trkpt>
      <trkpt lat="49.05451" lon="1.9548">
        <ele>55.94</ele>
        <time>2018-04-08T09:26:34Z</time>
      </trkpt>
      <trkpt lat="49.0544" lon="1.95465">
        <ele>55.88</ele>
        <time>2018-04-08T09:26:46Z</time>
      </trkpt>
      <trkpt lat="49.05434" lon="1.95455">
        <ele>55.65</ele>
        <time>2018-04-08T09:26:54Z</time>
      </trkpt>
      <trkpt lat="49.05431" lon="1.95451">
        <ele>55.14</ele>
        <time>2018-04-08T09:26:57Z</time>
      </trkpt>
      <trkpt lat="49.05419" lon="1.9543">
        <ele>54.98</ele>
        <time>2018-04-08T09:27:11Z</time>
      </trkpt>
      <trkpt lat="49.05406" lon="1.95411">
        <ele>54.4</ele>
        <time>2018-04-08T09:27:25Z</time>
      </trkpt>
      <trkpt lat="49.054" lon="1.95402">
        <ele>54.88</ele>
        <time>2018-04-08T09:27:34Z</time>
      </trkpt>
      <trkpt lat="49.05393" lon="1.95391">
        <ele>54.14</ele>
        <time>2018-04-08T09:27:43Z</time>
      </trkpt>
      <trkpt lat="49.05383" lon="1.95376">
        <ele>53.69</ele>
        <time>2018-04-08T09:27:54Z</time>
      </trkpt>
      <trkpt lat="49.05379" lon="1.9537">
        <ele>53.77</ele>
        <time>2018-04-08T09:27:59Z</time>
      </trkpt>
      <trkpt lat="49.05377" lon="1.95367">
        <ele>53.34</ele>
        <time>2018-04-08T09:28:02Z</time>
      </trkpt>
      <trkpt lat="49.05368" lon="1.95353">
        <ele>53.66</ele>
        <time>2018-04-08T09:28:12Z</time>
      </trkpt>
      <trkpt lat="49.05357" lon="1.95339">
        <ele>53.02</ele>
        <time>2018-04-08T09:28:25Z</time>
      </trkpt>
      <trkpt lat="49.05341" lon="1.95317">
        <ele>52.81</ele>
        <time>2018-04-08T09:28:40Z</time>
      </trkpt>
      <trkpt lat="49.05328" lon="1.95307">
        <ele>51.95</ele>
        <time>2018-04-08T09:28:53Z</time>
      </trkpt>
      <trkpt lat="49.05327" lon="1.95307">
        <ele>52.38</ele>
        <time>2018-04-08T09:28:54Z</time>
      </trkpt>
      <trkpt lat="49.05321" lon="1.95304">
        <ele>51.94</ele>
        <time>2018-04-08T09:28:59Z</time>
      </trkpt>
      <trkpt lat="49.0531" lon="1.95291">
        <ele>51.45</ele>
        <time>2018-04-08T09:29:12Z</time>
      </trkpt>
      <trkpt lat="49.05289" lon="1.95277">
        <ele>51.15</ele>
        <time>2018-04-08T09:29:30Z</time>
      </trkpt>
      <trkpt lat="49.05277" lon="1.95269">
        <ele>50.94</ele>
        <time>2018-04-08T09:29:42Z</time>
      </trkpt>
      <trkpt lat="49.05255" lon="1.95265">
        <ele>50.53</ele>
        <time>2018-04-08T09:29:59Z</time>
      </trkpt>
      <trkpt lat="49.05241" lon="1.95261">
        <ele>49.63</ele>
        <time>2018-04-08T09:30:10Z</time>
      </trkpt>
      <trkpt lat="49.05228" lon="1.95256">
        <ele>49.17</ele>
        <time>2018-04-08T09:30:25Z</time>
      </trkpt>
      <trkpt lat="49.05218" lon="1.95253">
        <ele>49.33</ele>
        <time>2018-04-08T09:30:42Z</time>
      </trkpt>
      <trkpt lat="49.0521" lon="1.95254">
        <ele>49.52</ele>
        <time>2018-04-08T09:30:51Z</time>
      </trkpt>
      <trkpt lat="49.05206" lon="1.95253">
        <ele>49.32</ele>
        <time>2018-04-08T09:30:54Z</time>
      </trkpt>
      <trkpt lat="49.05193" lon="1.95252">
        <ele>49.16</ele>
        <time>2018-04-08T09:31:11Z</time>
      </trkpt>
      <trkpt lat="49.05182" lon="1.9525">
        <ele>48.25</ele>
        <time>2018-04-08T09:31:29Z</time>
      </trkpt>
      <trkpt lat="49.05181" lon="1.9525">
        <ele>47.9</ele>
        <time>2018-04-08T09:31:30Z</time>
      </trkpt>
      <trkpt lat="49.05169" lon="1.95248">
        <ele>47.88</ele>
        <time>2018-04-08T09:31:40Z</time>
      </trkpt>
      <trkpt lat="49.05157" lon="1.95246">
        <ele>47.58</ele>
        <time>2018-04-08T09:31:50Z</time>
      </trkpt>
      <trkpt lat="49.05143" lon="1.95247">
        <ele>46.64</ele>
        <time>2018-04-08T09:32:05Z</time>
      </trkpt>
      <trkpt lat="49.05141" lon="1.95246">
        <ele>46.47</ele>
        <time>2018-04-08T09:32:08Z</time>
      </trkpt>
      <trkpt lat="49.05131" lon="1.95245">
        <ele>45.76</ele>
        <time>2018-04-08T09:32:22Z</time>
      </trkpt>
      <trkpt lat="49.05121" lon="1.95243">
        <ele>45.54</ele>
        <time>2018-04-08T09:32:42Z</time>
      </trkpt>
      <trkpt lat="49.05113" lon="1.95244">
        <ele>45.14</ele>
        <time>2018-04-08T09:32:56Z</time>
      </trkpt>
      <trkpt lat="49.0511" lon="1.95246">
        <ele>45.12</ele>
        <time>2018-04-08T09:33:00Z</time>
      </trkpt>
      <trkpt lat="49.05095" lon="1.95247">
        <ele>44.25</ele>
        <time>2018-04-08T09:33:16Z</time>
      </trkpt>
      <trkpt lat="49.05091" lon="1.95247">
        <ele>44.15</ele>
        <time>2018-04-08T09:33:20Z</time>
      </trkpt>
      <trkpt lat="49.05075" lon="1.95246">
        <ele>43.04</ele>
        <time>2018-04-08T09:33:35Z</time>
      </trkpt>
      <trkpt lat="49.05057" lon="1.95242">
        <ele>40.79</ele>
        <time>2018-04-08T09:33:51Z</time>
      </trkpt>
      <trkpt lat="49.05051" lon="1.95241">
        <ele>41.79</ele>
        <time>2018-04-08T09:33:57Z</time>
      </trkpt>
      <trkpt lat="49.05043" lon="1.95241">
        <ele>41.59</ele>
        <time>2018-04-08T09:34:03Z</time>
      </trkpt>
      <trkpt lat="49.05027" lon="1.95238">
        <ele>40.86</ele>
        <time>2018-04-08T09:34:19Z</time>
      </trkpt>
      <trkpt lat="49.0501" lon="1.95237">
        <ele>40.83</ele>
        <time>2018-04-08T09:34:34Z</time>
      </trkpt>
      <trkpt lat="49.04991" lon="1.95238">
        <ele>41.14</ele>
        <time>2018-04-08T09:34:50Z</time>
      </trkpt>
      <trkpt lat="49.04977" lon="1.95237">
        <ele>42.09</ele>
        <time>2018-04-08T09:35:05Z</time>
      </trkpt>
      <trkpt lat="49.04969" lon="1.95237">
        <ele>42.13</ele>
        <time>2018-04-08T09:35:13Z</time>
      </trkpt>
      <trkpt lat="49.04964" lon="1.95234">
        <ele>41.97</ele>
        <time>2018-04-08T09:35:17Z</time>
      </trkpt>
      <trkpt lat="49.04956" lon="1.95231">
        <ele>42.25</ele>
        <time>2018-04-08T09:35:26Z</time>
      </trkpt>
      <trkpt lat="49.04956" lon="1.95222">
        <ele>41.85</ele>
        <time>2018-04-08T09:35:53Z</time>
      </trkpt>
      <trkpt lat="49.04958" lon="1.95224">
        <ele>41.73</ele>
        <time>2018-04-08T09:36:15Z</time>
      </trkpt>
      <trkpt lat="49.04955" lon="1.95224">
        <ele>42.23</ele>
        <time>2018-04-08T09:36:38Z</time>
      </trkpt>
      <trkpt lat="49.04952" lon="1.95227">
        <ele>41.5</ele>
        <time>2018-04-08T09:37:06Z</time>
      </trkpt>
      <trkpt lat="49.04952" lon="1.95228">
        <ele>41.97</ele>
        <time>2018-04-08T09:37:33Z</time>
      </trkpt>
      <trkpt lat="49.04947" lon="1.95233">
        <ele>42.75</ele>
        <time>2018-04-08T09:37:52Z</time>
      </trkpt>
      <trkpt lat="49.04935" lon="1.95242">
        <ele>42.7</ele>
        <time>2018-04-08T09:38:04Z</time>
      </trkpt>
      <trkpt lat="49.04931" lon="1.95242">
        <ele>43.12</ele>
        <time>2018-04-08T09:38:07Z</time>
      </trkpt>
      <trkpt lat="49.04925" lon="1.95244">
        <ele>43.8</ele>
        <time>2018-04-08T09:38:13Z</time>
      </trkpt>
      <trkpt lat="49.04912" lon="1.95251">
        <ele>43.65</ele>
        <time>2018-04-08T09:38:28Z</time>
      </trkpt>
      <trkpt lat="49.04909" lon="1.95252">
        <ele>43.72</ele>
        <time>2018-04-08T09:38:43Z</time>
      </trkpt>
      <trkpt lat="49.0491" lon="1.95254">
        <ele>43.75</ele>
        <time>2018-04-08T09:38:48Z</time>
      </trkpt>
      <trkpt lat="49.04912" lon="1.95258">
        <ele>44.02</ele>
        <time>2018-04-08T09:38:53Z</time>
      </trkpt>
      <trkpt lat="49.04913" lon="1.9527">
        <ele>44.72</ele>
        <time>2018-04-08T09:39:02Z</time>
      </trkpt>
      <trkpt lat="49.04916" lon="1.95278">
        <ele>45.09</ele>
        <time>2018-04-08T09:39:15Z</time>
      </trkpt>
      <trkpt lat="49.04918" lon="1.95284">
        <ele>45.31</ele>
        <time>2018-04-08T09:39:19Z</time>
      </trkpt>
      <trkpt lat="49.04922" lon="1.95301">
        <ele>45.49</ele>
        <time>2018-04-08T09:39:30Z</time>
      </trkpt>
      <trkpt lat="49.04922" lon="1.95305">
        <ele>45.7</ele>
        <time>2018-04-08T09:39:33Z</time>
      </trkpt>
      <trkpt lat="49.0493" lon="1.95329">
        <ele>46.24</ele>
        <time>2018-04-08T09:39:49Z</time>
      </trkpt>
      <trkpt lat="49.0493" lon="1.95332">
        <ele>46.4</ele>
        <time>2018-04-08T09:39:51Z</time>
      </trkpt>
      <trkpt lat="49.04924" lon="1.95354">
        <ele>47.14</ele>
        <time>2018-04-08T09:40:07Z</time>
      </trkpt>
      <trkpt lat="49.04918" lon="1.95367">
        <ele>47.46</ele>
        <time>2018-04-08T09:40:21Z</time>
      </trkpt>
      <trkpt lat="49.04907" lon="1.95393">
        <ele>47.41</ele>
        <time>2018-04-08T09:40:40Z</time>
      </trkpt>
      <trkpt lat="49.04898" lon="1.95417">
        <ele>47.59</ele>
        <time>2018-04-08T09:40:57Z</time>
      </trkpt>
      <trkpt lat="49.04884" lon="1.95453">
        <ele>47.63</ele>
        <time>2018-04-08T09:41:19Z</time>
      </trkpt>
      <trkpt lat="49.0488" lon="1.95463">
        <ele>46.64</ele>
        <time>2018-04-08T09:41:25Z</time>
      </trkpt>
      <trkpt lat="49.04877" lon="1.95474">
        <ele>46.31</ele>
        <time>2018-04-08T09:41:35Z</time>
      </trkpt>
      <trkpt lat="49.04871" lon="1.95482">
        <ele>45.85</ele>
        <time>2018-04-08T09:41:42Z</time>
      </trkpt>
      <trkpt lat="49.04862" lon="1.95514">
        <ele>45.13</ele>
        <time>2018-04-08T09:42:03Z</time>
      </trkpt>
      <trkpt lat="49.04848" lon="1.95545">
        <ele>44.79</ele>
        <time>2018-04-08T09:42:24Z</time>
      </trkpt>
      <trkpt lat="49.04845" lon="1.95549">
        <ele>44.76</ele>
        <time>2018-04-08T09:42:27Z</time>
      </trkpt>
      <trkpt lat="49.04833" lon="1.95567">
        <ele>44.49</ele>
        <time>2018-04-08T09:42:43Z</time>
      </trkpt>
      <trkpt lat="49.04833" lon="1.95565">
        <ele>44.35</ele>
        <time>2018-04-08T09:43:02Z</time>
      </trkpt>
      <trkpt lat="49.04835" lon="1.95566">
        <ele>45.06</ele>
        <time>2018-04-08T09:43:20Z</time>
      </trkpt>
      <trkpt lat="49.04827" lon="1.95572">
        <ele>44.56</ele>
        <time>2018-04-08T09:43:32Z</time>
      </trkpt>
      <trkpt lat="49.04826" lon="1.95577">
        <ele>44.49</ele>
        <time>2018-04-08T09:43:37Z</time>
      </trkpt>
      <trkpt lat="49.04831" lon="1.95583">
        <ele>45.08</ele>
        <time>2018-04-08T09:43:42Z</time>
      </trkpt>
      <trkpt lat="49.04849" lon="1.95601">
        <ele>45.31</ele>
        <time>2018-04-08T09:44:01Z</time>
      </trkpt>
      <trkpt lat="49.04843" lon="1.95641">
        <ele>43.88</ele>
        <time>2018-04-08T09:44:23Z</time>
      </trkpt>
      <trkpt lat="49.04839" lon="1.95672">
        <ele>44.31</ele>
        <time>2018-04-08T09:44:41Z</time>
      </trkpt>
      <trkpt lat="49.04838" lon="1.95675">
        <ele>44.13</ele>
        <time>2018-04-08T09:44:44Z</time>
      </trkpt>
      <trkpt lat="49.04837" lon="1.95684">
        <ele>43.93</ele>
        <time>2018-04-08T09:44:49Z</time>
      </trkpt>
      <trkpt lat="49.04832" lon="1.95716">
        <ele>44</ele>
        <time>2018-04-08T09:45:07Z</time>
      </trkpt>
      <trkpt lat="49.04826" lon="1.95746">
        <ele>44.29</ele>
        <time>2018-04-08T09:45:25Z</time>
      </trkpt>
      <trkpt lat="49.0482" lon="1.95777">
        <ele>43.96</ele>
        <time>2018-04-08T09:45:45Z</time>
      </trkpt>
      <trkpt lat="49.04819" lon="1.9578">
        <ele>44.41</ele>
        <time>2018-04-08T09:45:47Z</time>
      </trkpt>
      <trkpt lat="49.04818" lon="1.95797">
        <ele>43.87</ele>
        <time>2018-04-08T09:45:58Z</time>
      </trkpt>
      <trkpt lat="49.04814" lon="1.95813">
        <ele>43.35</ele>
        <time>2018-04-08T09:46:09Z</time>
      </trkpt>
      <trkpt lat="49.04811" lon="1.95823">
        <ele>43.61</ele>
        <time>2018-04-08T09:46:15Z</time>
      </trkpt>
      <trkpt lat="49.04806" lon="1.95856">
        <ele>44.11</ele>
        <time>2018-04-08T09:46:32Z</time>
      </trkpt>
      <trkpt lat="49.04801" lon="1.95883">
        <ele>43.89</ele>
        <time>2018-04-08T09:46:49Z</time>
      </trkpt>
      <trkpt lat="49.04797" lon="1.95891">
        <ele>43.63</ele>
        <time>2018-04-08T09:46:54Z</time>
      </trkpt>
      <trkpt lat="49.04792" lon="1.95903">
        <ele>43.99</ele>
        <time>2018-04-08T09:47:00Z</time>
      </trkpt>
      <trkpt lat="49.04779" lon="1.95928">
        <ele>44</ele>
        <time>2018-04-08T09:47:16Z</time>
      </trkpt>
      <trkpt lat="49.04767" lon="1.95949">
        <ele>44.27</ele>
        <time>2018-04-08T09:47:31Z</time>
      </trkpt>
      <trkpt lat="49.04749" lon="1.95979">
        <ele>44.63</ele>
        <time>2018-04-08T09:47:49Z</time>
      </trkpt>
      <trkpt lat="49.04743" lon="1.95988">
        <ele>44.15</ele>
        <time>2018-04-08T09:47:56Z</time>
      </trkpt>
      <trkpt lat="49.04732" lon="1.96003">
        <ele>44.22</ele>
        <time>2018-04-08T09:48:08Z</time>
      </trkpt>
      <trkpt lat="49.04724" lon="1.96024">
        <ele>44.48</ele>
        <time>2018-04-08T09:48:23Z</time>
      </trkpt>
      <trkpt lat="49.04703" lon="1.9605">
        <ele>45.02</ele>
        <time>2018-04-08T09:48:42Z</time>
      </trkpt>
      <trkpt lat="49.0468" lon="1.96081">
        <ele>45.55</ele>
        <time>2018-04-08T09:49:06Z</time>
      </trkpt>
      <trkpt lat="49.04665" lon="1.96107">
        <ele>45.15</ele>
        <time>2018-04-08T09:49:24Z</time>
      </trkpt>
      <trkpt lat="49.04649" lon="1.96134">
        <ele>46.21</ele>
        <time>2018-04-08T09:49:44Z</time>
      </trkpt>
      <trkpt lat="49.04634" lon="1.9616">
        <ele>46.54</ele>
        <time>2018-04-08T09:50:02Z</time>
      </trkpt>
      <trkpt lat="49.04619" lon="1.96187">
        <ele>46.85</ele>
        <time>2018-04-08T09:50:21Z</time>
      </trkpt>
      <trkpt lat="49.04605" lon="1.96213">
        <ele>46.58</ele>
        <time>2018-04-08T09:50:39Z</time>
      </trkpt>
      <trkpt lat="49.04597" lon="1.9623">
        <ele>46.65</ele>
        <time>2018-04-08T09:50:52Z</time>
      </trkpt>
      <trkpt lat="49.04588" lon="1.96244">
        <ele>46.94</ele>
        <time>2018-04-08T09:51:03Z</time>
      </trkpt>
      <trkpt lat="49.04585" lon="1.96248">
        <ele>46.92</ele>
        <time>2018-04-08T09:51:07Z</time>
      </trkpt>
      <trkpt lat="49.0458" lon="1.96255">
        <ele>47.01</ele>
        <time>2018-04-08T09:51:12Z</time>
      </trkpt>
      <trkpt lat="49.04569" lon="1.96274">
        <ele>46.98</ele>
        <time>2018-04-08T09:51:27Z</time>
      </trkpt>
      <trkpt lat="49.04565" lon="1.96281">
        <ele>47.03</ele>
        <time>2018-04-08T09:51:32Z</time>
      </trkpt>
      <trkpt lat="49.04548" lon="1.96308">
        <ele>46.87</ele>
        <time>2018-04-08T09:51:52Z</time>
      </trkpt>
      <trkpt lat="49.04536" lon="1.96339">
        <ele>47.62</ele>
        <time>2018-04-08T09:52:12Z</time>
      </trkpt>
      <trkpt lat="49.04524" lon="1.9637">
        <ele>45.98</ele>
        <time>2018-04-08T09:52:31Z</time>
      </trkpt>
      <trkpt lat="49.04519" lon="1.96379">
        <ele>47.54</ele>
        <time>2018-04-08T09:52:37Z</time>
      </trkpt>
      <trkpt lat="49.04515" lon="1.96382">
        <ele>47.36</ele>
        <time>2018-04-08T09:52:41Z</time>
      </trkpt>
      <trkpt lat="49.04502" lon="1.96381">
        <ele>47.39</ele>
        <time>2018-04-08T09:52:57Z</time>
      </trkpt>
      <trkpt lat="49.04498" lon="1.96379">
        <ele>47.28</ele>
        <time>2018-04-08T09:53:12Z</time>
      </trkpt>
      <trkpt lat="49.04497" lon="1.96381">
        <ele>47.55</ele>
        <time>2018-04-08T09:53:38Z</time>
      </trkpt>
      <trkpt lat="49.04497" lon="1.9638">
        <ele>47.09</ele>
        <time>2018-04-08T09:54:04Z</time>
      </trkpt>
      <trkpt lat="49.04498" lon="1.9638">
        <ele>47.46</ele>
        <time>2018-04-08T09:54:33Z</time>
      </trkpt>
      <trkpt lat="49.04498" lon="1.9638">
        <ele>47.13</ele>
        <time>2018-04-08T09:55:00Z</time>
      </trkpt>
      <trkpt lat="49.04498" lon="1.9638">
        <ele>47.32</ele>
        <time>2018-04-08T09:55:30Z</time>
      </trkpt>
      <trkpt lat="49.04496" lon="1.96379">
        <ele>47.44</ele>
        <time>2018-04-08T09:55:43Z</time>
      </trkpt>
      <trkpt lat="49.04491" lon="1.96376">
        <ele>47.44</ele>
        <time>2018-04-08T09:55:47Z</time>
      </trkpt>
      <trkpt lat="49.04472" lon="1.96365">
        <ele>47.24</ele>
        <time>2018-04-08T09:56:05Z</time>
      </trkpt>
      <trkpt lat="49.04472" lon="1.96364">
        <ele>47.53</ele>
        <time>2018-04-08T09:56:06Z</time>
      </trkpt>
      <trkpt lat="49.04453" lon="1.96354">
        <ele>47.35</ele>
        <time>2018-04-08T09:56:23Z</time>
      </trkpt>
      <trkpt lat="49.04437" lon="1.96344">
        <ele>47.69</ele>
        <time>2018-04-08T09:56:38Z</time>
      </trkpt>
      <trkpt lat="49.04419" lon="1.96335">
        <ele>48.22</ele>
        <time>2018-04-08T09:56:54Z</time>
      </trkpt>
      <trkpt lat="49.04416" lon="1.96333">
        <ele>48.26</ele>
        <time>2018-04-08T09:56:57Z</time>
      </trkpt>
      <trkpt lat="49.04399" lon="1.96322">
        <ele>48.98</ele>
        <time>2018-04-08T09:57:13Z</time>
      </trkpt>
      <trkpt lat="49.0438" lon="1.96311">
        <ele>49.73</ele>
        <time>2018-04-08T09:57:31Z</time>
      </trkpt>
      <trkpt lat="49.04361" lon="1.963">
        <ele>50.24</ele>
        <time>2018-04-08T09:57:48Z</time>
      </trkpt>
      <trkpt lat="49.04348" lon="1.96293">
        <ele>50.84</ele>
        <time>2018-04-08T09:57:59Z</time>
      </trkpt>
      <trkpt lat="49.0434" lon="1.96288">
        <ele>51.12</ele>
        <time>2018-04-08T09:58:06Z</time>
      </trkpt>
      <trkpt lat="49.04319" lon="1.96276">
        <ele>51.39</ele>
        <time>2018-04-08T09:58:24Z</time>
      </trkpt>
      <trkpt lat="49.04318" lon="1.96275">
        <ele>51.32</ele>
        <time>2018-04-08T09:58:25Z</time>
      </trkpt>
      <trkpt lat="49.04304" lon="1.96266">
        <ele>51.07</ele>
        <time>2018-04-08T09:58:38Z</time>
      </trkpt>
      <trkpt lat="49.04283" lon="1.96255">
        <ele>51.82</ele>
        <time>2018-04-08T09:58:55Z</time>
      </trkpt>
      <trkpt lat="49.0428" lon="1.96254">
        <ele>51.83</ele>
        <time>2018-04-08T09:58:58Z</time>
      </trkpt>
      <trkpt lat="49.04273" lon="1.96261">
        <ele>52</ele>
        <time>2018-04-08T09:59:05Z</time>
      </trkpt>
      <trkpt lat="49.04271" lon="1.96288">
        <ele>51.5</ele>
        <time>2018-04-08T09:59:21Z</time>
      </trkpt>
      <trkpt lat="49.04271" lon="1.96317">
        <ele>51.05</ele>
        <time>2018-04-08T09:59:37Z</time>
      </trkpt>
      <trkpt lat="49.0427" lon="1.96347">
        <ele>51.73</ele>
        <time>2018-04-08T09:59:53Z</time>
      </trkpt>
      <trkpt lat="49.04271" lon="1.96357">
        <ele>51.94</ele>
        <time>2018-04-08T09:59:59Z</time>
      </trkpt>
      <trkpt lat="49.0427" lon="1.96389">
        <ele>53.1</ele>
        <time>2018-04-08T10:00:17Z</time>
      </trkpt>
      <trkpt lat="49.04268" lon="1.9642">
        <ele>54.56</ele>
        <time>2018-04-08T10:00:35Z</time>
      </trkpt>
      <trkpt lat="49.04269" lon="1.96432">
        <ele>55.04</ele>
        <time>2018-04-08T10:00:43Z</time>
      </trkpt>
      <trkpt lat="49.04267" lon="1.96455">
        <ele>56.23</ele>
        <time>2018-04-08T10:00:57Z</time>
      </trkpt>
      <trkpt lat="49.04267" lon="1.96476">
        <ele>57.36</ele>
        <time>2018-04-08T10:01:11Z</time>
      </trkpt>
      <trkpt lat="49.04266" lon="1.96495">
        <ele>58.32</ele>
        <time>2018-04-08T10:01:26Z</time>
      </trkpt>
      <trkpt lat="49.04263" lon="1.96521">
        <ele>58.5</ele>
        <time>2018-04-08T10:01:42Z</time>
      </trkpt>
      <trkpt lat="49.04258" lon="1.96546">
        <ele>58.94</ele>
        <time>2018-04-08T10:01:56Z</time>
      </trkpt>
      <trkpt lat="49.04257" lon="1.96558">
        <ele>59.29</ele>
        <time>2018-04-08T10:02:04Z</time>
      </trkpt>
      <trkpt lat="49.04253" lon="1.96585">
        <ele>60.26</ele>
        <time>2018-04-08T10:02:21Z</time>
      </trkpt>
      <trkpt lat="49.04249" lon="1.96604">
        <ele>60.48</ele>
        <time>2018-04-08T10:02:35Z</time>
      </trkpt>
      <trkpt lat="49.04246" lon="1.96615">
        <ele>59.38</ele>
        <time>2018-04-08T10:02:42Z</time>
      </trkpt>
      <trkpt lat="49.04244" lon="1.96641">
        <ele>59.97</ele>
        <time>2018-04-08T10:02:57Z</time>
      </trkpt>
      <trkpt lat="49.04239" lon="1.96664">
        <ele>60.41</ele>
        <time>2018-04-08T10:03:11Z</time>
      </trkpt>
      <trkpt lat="49.04235" lon="1.9669">
        <ele>60.2</ele>
        <time>2018-04-08T10:03:27Z</time>
      </trkpt>
      <trkpt lat="49.04232" lon="1.96715">
        <ele>60.78</ele>
        <time>2018-04-08T10:03:41Z</time>
      </trkpt>
      <trkpt lat="49.04231" lon="1.96727">
        <ele>60.67</ele>
        <time>2018-04-08T10:03:49Z</time>
      </trkpt>
      <trkpt lat="49.0423" lon="1.96734">
        <ele>61.09</ele>
        <time>2018-04-08T10:03:54Z</time>
      </trkpt>
      <trkpt lat="49.04226" lon="1.96759">
        <ele>61.62</ele>
        <time>2018-04-08T10:04:09Z</time>
      </trkpt>
      <trkpt lat="49.04227" lon="1.96772">
        <ele>61.39</ele>
        <time>2018-04-08T10:04:26Z</time>
      </trkpt>
      <trkpt lat="49.04228" lon="1.9678">
        <ele>61.17</ele>
        <time>2018-04-08T10:04:32Z</time>
      </trkpt>
      <trkpt lat="49.04228" lon="1.96784">
        <ele>61.29</ele>
        <time>2018-04-08T10:04:34Z</time>
      </trkpt>
      <trkpt lat="49.0423" lon="1.96809">
        <ele>61.27</ele>
        <time>2018-04-08T10:04:46Z</time>
      </trkpt>
      <trkpt lat="49.04233" lon="1.96841">
        <ele>61.15</ele>
        <time>2018-04-08T10:05:03Z</time>
      </trkpt>
      <trkpt lat="49.04235" lon="1.96855">
        <ele>61.18</ele>
        <time>2018-04-08T10:05:10Z</time>
      </trkpt>
      <trkpt lat="49.04237" lon="1.96883">
        <ele>60.39</ele>
        <time>2018-04-08T10:05:25Z</time>
      </trkpt>
      <trkpt lat="49.0424" lon="1.96912">
        <ele>60.65</ele>
        <time>2018-04-08T10:05:38Z</time>
      </trkpt>
      <trkpt lat="49.04241" lon="1.96917">
        <ele>60.6</ele>
        <time>2018-04-08T10:05:41Z</time>
      </trkpt>
      <trkpt lat="49.04235" lon="1.96949">
        <ele>60.81</ele>
        <time>2018-04-08T10:05:59Z</time>
      </trkpt>
      <trkpt lat="49.0423" lon="1.96971">
        <ele>59.74</ele>
        <time>2018-04-08T10:06:15Z</time>
      </trkpt>
      <trkpt lat="49.04222" lon="1.96975">
        <ele>60.75</ele>
        <time>2018-04-08T10:06:33Z</time>
      </trkpt>
      <trkpt lat="49.04217" lon="1.96973">
        <ele>60.98</ele>
        <time>2018-04-08T10:06:48Z</time>
      </trkpt>
      <trkpt lat="49.04217" lon="1.9697">
        <ele>61.29</ele>
        <time>2018-04-08T10:07:05Z</time>
      </trkpt>
      <trkpt lat="49.04209" lon="1.96967">
        <ele>61.86</ele>
        <time>2018-04-08T10:07:17Z</time>
      </trkpt>
      <trkpt lat="49.04196" lon="1.96959">
        <ele>63.24</ele>
        <time>2018-04-08T10:07:36Z</time>
      </trkpt>
      <trkpt lat="49.04185" lon="1.96949">
        <ele>64.34</ele>
        <time>2018-04-08T10:07:52Z</time>
      </trkpt>
      <trkpt lat="49.04183" lon="1.96947">
        <ele>64.43</ele>
        <time>2018-04-08T10:07:54Z</time>
      </trkpt>
      <trkpt lat="49.04172" lon="1.96935">
        <ele>64.83</ele>
        <time>2018-04-08T10:08:08Z</time>
      </trkpt>
      <trkpt lat="49.04162" lon="1.96924">
        <ele>66.1</ele>
        <time>2018-04-08T10:08:20Z</time>
      </trkpt>
      <trkpt lat="49.04149" lon="1.96911">
        <ele>66.96</ele>
        <time>2018-04-08T10:08:35Z</time>
      </trkpt>
      <trkpt lat="49.04142" lon="1.96899">
        <ele>67.9</ele>
        <time>2018-04-08T10:08:49Z</time>
      </trkpt>
      <trkpt lat="49.04135" lon="1.96885">
        <ele>67.62</ele>
        <time>2018-04-08T10:09:05Z</time>
      </trkpt>
      <trkpt lat="49.04126" lon="1.96865">
        <ele>69.55</ele>
        <time>2018-04-08T10:09:26Z</time>
      </trkpt>
      <trkpt lat="49.04117" lon="1.96844">
        <ele>69.96</ele>
        <time>2018-04-08T10:09:42Z</time>
      </trkpt>
      <trkpt lat="49.04114" lon="1.96832">
        <ele>69.38</ele>
        <time>2018-04-08T10:09:50Z</time>
      </trkpt>
      <trkpt lat="49.04107" lon="1.96812">
        <ele>70.31</ele>
        <time>2018-04-08T10:10:05Z</time>
      </trkpt>
      <trkpt lat="49.04099" lon="1.96787">
        <ele>70.92</ele>
        <time>2018-04-08T10:10:23Z</time>
      </trkpt>
      <trkpt lat="49.04095" lon="1.96774">
        <ele>71.67</ele>
        <time>2018-04-08T10:10:33Z</time>
      </trkpt>
      <trkpt lat="49.04092" lon="1.96761">
        <ele>71.72</ele>
        <time>2018-04-08T10:10:41Z</time>
      </trkpt>
      <trkpt lat="49.04084" lon="1.96744">
        <ele>72.29</ele>
        <time>2018-04-08T10:10:54Z</time>
      </trkpt>
      <trkpt lat="49.0408" lon="1.96736">
        <ele>71.94</ele>
        <time>2018-04-08T10:11:00Z</time>
      </trkpt>
      <trkpt lat="49.04071" lon="1.9672">
        <ele>73.17</ele>
        <time>2018-04-08T10:11:14Z</time>
      </trkpt>
      <trkpt lat="49.04062" lon="1.967">
        <ele>74.53</ele>
        <time>2018-04-08T10:11:33Z</time>
      </trkpt>
      <trkpt lat="49.04051" lon="1.96674">
        <ele>75.64</ele>
        <time>2018-04-08T10:11:51Z</time>
      </trkpt>
      <trkpt lat="49.04038" lon="1.96638">
        <ele>77.27</ele>
        <time>2018-04-08T10:12:13Z</time>
      </trkpt>
      <trkpt lat="49.04025" lon="1.96613">
        <ele>77.59</ele>
        <time>2018-04-08T10:12:32Z</time>
      </trkpt>
      <trkpt lat="49.04017" lon="1.96602">
        <ele>78.63</ele>
        <time>2018-04-08T10:12:46Z</time>
      </trkpt>
      <trkpt lat="49.04008" lon="1.96584">
        <ele>78.28</ele>
        <time>2018-04-08T10:13:04Z</time>
      </trkpt>
      <trkpt lat="49.03997" lon="1.96557">
        <ele>79.98</ele>
        <time>2018-04-08T10:13:22Z</time>
      </trkpt>
      <trkpt lat="49.03995" lon="1.96523">
        <ele>80.22</ele>
        <time>2018-04-08T10:13:42Z</time>
      </trkpt>
      <trkpt lat="49.03992" lon="1.96489">
        <ele>80.75</ele>
        <time>2018-04-08T10:14:01Z</time>
      </trkpt>
      <trkpt lat="49.03982" lon="1.96464">
        <ele>80.65</ele>
        <time>2018-04-08T10:14:20Z</time>
      </trkpt>
      <trkpt lat="49.03974" lon="1.96432">
        <ele>81.44</ele>
        <time>2018-04-08T10:14:41Z</time>
      </trkpt>
      <trkpt lat="49.03966" lon="1.96391">
        <ele>81.7</ele>
        <time>2018-04-08T10:14:59Z</time>
      </trkpt>
      <trkpt lat="49.03958" lon="1.96364">
        <ele>81.95</ele>
        <time>2018-04-08T10:15:16Z</time>
      </trkpt>
      <trkpt lat="49.03954" lon="1.96348">
        <ele>82.81</ele>
        <time>2018-04-08T10:15:23Z</time>
      </trkpt>
      <trkpt lat="49.0395" lon="1.96324">
        <ele>82.16</ele>
        <time>2018-04-08T10:15:41Z</time>
      </trkpt>
      <trkpt lat="49.03942" lon="1.96292">
        <ele>82.03</ele>
        <time>2018-04-08T10:16:01Z</time>
      </trkpt>
      <trkpt lat="49.03941" lon="1.9629">
        <ele>82.49</ele>
        <time>2018-04-08T10:16:02Z</time>
      </trkpt>
      <trkpt lat="49.03932" lon="1.9626">
        <ele>81.82</ele>
        <time>2018-04-08T10:16:22Z</time>
      </trkpt>
      <trkpt lat="49.03924" lon="1.96229">
        <ele>81.69</ele>
        <time>2018-04-08T10:16:41Z</time>
      </trkpt>
      <trkpt lat="49.0392" lon="1.96196">
        <ele>81.54</ele>
        <time>2018-04-08T10:16:59Z</time>
      </trkpt>
      <trkpt lat="49.03911" lon="1.96161">
        <ele>81.59</ele>
        <time>2018-04-08T10:17:19Z</time>
      </trkpt>
      <trkpt lat="49.03908" lon="1.96123">
        <ele>81.34</ele>
        <time>2018-04-08T10:17:38Z</time>
      </trkpt>
      <trkpt lat="49.03914" lon="1.96083">
        <ele>81.88</ele>
        <time>2018-04-08T10:17:59Z</time>
      </trkpt>
      <trkpt lat="49.03919" lon="1.96053">
        <ele>82.41</ele>
        <time>2018-04-08T10:18:18Z</time>
      </trkpt>
      <trkpt lat="49.03926" lon="1.96026">
        <ele>82.66</ele>
        <time>2018-04-08T10:18:32Z</time>
      </trkpt>
      <trkpt lat="49.03931" lon="1.96004">
        <ele>82.28</ele>
        <time>2018-04-08T10:18:49Z</time>
      </trkpt>
      <trkpt lat="49.03933" lon="1.95991">
        <ele>82.89</ele>
        <time>2018-04-08T10:18:59Z</time>
      </trkpt>
      <trkpt lat="49.03933" lon="1.95984">
        <ele>82.73</ele>
        <time>2018-04-08T10:19:04Z</time>
      </trkpt>
      <trkpt lat="49.03932" lon="1.95967">
        <ele>82.5</ele>
        <time>2018-04-08T10:19:22Z</time>
      </trkpt>
      <trkpt lat="49.03939" lon="1.95944">
        <ele>81.29</ele>
        <time>2018-04-08T10:19:41Z</time>
      </trkpt>
      <trkpt lat="49.03948" lon="1.95901">
        <ele>80.84</ele>
        <time>2018-04-08T10:20:02Z</time>
      </trkpt>
      <trkpt lat="49.03957" lon="1.95866">
        <ele>80.97</ele>
        <time>2018-04-08T10:20:21Z</time>
      </trkpt>
      <trkpt lat="49.03962" lon="1.95836">
        <ele>80.92</ele>
        <time>2018-04-08T10:20:40Z</time>
      </trkpt>
      <trkpt lat="49.03973" lon="1.95805">
        <ele>80.85</ele>
        <time>2018-04-08T10:20:59Z</time>
      </trkpt>
      <trkpt lat="49.03984" lon="1.95772">
        <ele>81.89</ele>
        <time>2018-04-08T10:21:19Z</time>
      </trkpt>
      <trkpt lat="49.0399" lon="1.95742">
        <ele>81.95</ele>
        <time>2018-04-08T10:21:37Z</time>
      </trkpt>
      <trkpt lat="49.03993" lon="1.95725">
        <ele>82.1</ele>
        <time>2018-04-08T10:21:46Z</time>
      </trkpt>
      <trkpt lat="49.03998" lon="1.95696">
        <ele>80.71</ele>
        <time>2018-04-08T10:22:03Z</time>
      </trkpt>
      <trkpt lat="49.04004" lon="1.95666">
        <ele>80.34</ele>
        <time>2018-04-08T10:22:20Z</time>
      </trkpt>
      <trkpt lat="49.04008" lon="1.95634">
        <ele>79.52</ele>
        <time>2018-04-08T10:22:40Z</time>
      </trkpt>
      <trkpt lat="49.04007" lon="1.956">
        <ele>78.99</ele>
        <time>2018-04-08T10:22:58Z</time>
      </trkpt>
      <trkpt lat="49.04008" lon="1.95566">
        <ele>79.31</ele>
        <time>2018-04-08T10:23:16Z</time>
      </trkpt>
      <trkpt lat="49.04017" lon="1.95538">
        <ele>79.63</ele>
        <time>2018-04-08T10:23:34Z</time>
      </trkpt>
      <trkpt lat="49.04017" lon="1.95524">
        <ele>79.26</ele>
        <time>2018-04-08T10:24:01Z</time>
      </trkpt>
      <trkpt lat="49.04019" lon="1.95525">
        <ele>79.73</ele>
        <time>2018-04-08T10:24:21Z</time>
      </trkpt>
      <trkpt lat="49.04017" lon="1.95524">
        <ele>79.87</ele>
        <time>2018-04-08T10:24:49Z</time>
      </trkpt>
      <trkpt lat="49.04019" lon="1.95522">
        <ele>80.12</ele>
        <time>2018-04-08T10:25:12Z</time>
      </trkpt>
      <trkpt lat="49.04019" lon="1.95523">
        <ele>79.53</ele>
        <time>2018-04-08T10:25:37Z</time>
      </trkpt>
      <trkpt lat="49.04017" lon="1.95524">
        <ele>79.93</ele>
        <time>2018-04-08T10:26:09Z</time>
      </trkpt>
      <trkpt lat="49.04017" lon="1.95525">
        <ele>80.02</ele>
        <time>2018-04-08T10:26:32Z</time>
      </trkpt>
      <trkpt lat="49.04017" lon="1.95525">
        <ele>80.3</ele>
        <time>2018-04-08T10:26:57Z</time>
      </trkpt>
      <trkpt lat="49.04018" lon="1.95525">
        <ele>79.89</ele>
        <time>2018-04-08T10:27:23Z</time>
      </trkpt>
      <trkpt lat="49.04019" lon="1.95518">
        <ele>79.4</ele>
        <time>2018-04-08T10:27:46Z</time>
      </trkpt>
      <trkpt lat="49.04023" lon="1.95499">
        <ele>79.44</ele>
        <time>2018-04-08T10:28:05Z</time>
      </trkpt>
      <trkpt lat="49.04031" lon="1.95468">
        <ele>78.65</ele>
        <time>2018-04-08T10:28:24Z</time>
      </trkpt>
      <trkpt lat="49.04036" lon="1.95438">
        <ele>77.21</ele>
        <time>2018-04-08T10:28:42Z</time>
      </trkpt>
      <trkpt lat="49.0404" lon="1.95404">
        <ele>76.97</ele>
        <time>2018-04-08T10:29:00Z</time>
      </trkpt>
      <trkpt lat="49.04045" lon="1.95369">
        <ele>76.2</ele>
        <time>2018-04-08T10:29:19Z</time>
      </trkpt>
      <trkpt lat="49.04048" lon="1.95352">
        <ele>75.49</ele>
        <time>2018-04-08T10:29:28Z</time>
      </trkpt>
      <trkpt lat="49.04048" lon="1.95346">
        <ele>74.53</ele>
        <time>2018-04-08T10:29:30Z</time>
      </trkpt>
      <trkpt lat="49.04046" lon="1.95336">
        <ele>75.11</ele>
        <time>2018-04-08T10:29:35Z</time>
      </trkpt>
      <trkpt lat="49.04045" lon="1.95329">
        <ele>75.13</ele>
        <time>2018-04-08T10:29:39Z</time>
      </trkpt>
      <trkpt lat="49.04046" lon="1.95324">
        <ele>74.94</ele>
        <time>2018-04-08T10:29:42Z</time>
      </trkpt>
      <trkpt lat="49.04045" lon="1.95296">
        <ele>73.52</ele>
        <time>2018-04-08T10:29:56Z</time>
      </trkpt>
      <trkpt lat="49.04045" lon="1.95292">
        <ele>73.56</ele>
        <time>2018-04-08T10:29:58Z</time>
      </trkpt>
      <trkpt lat="49.04049" lon="1.95269">
        <ele>71.89</ele>
        <time>2018-04-08T10:30:08Z</time>
      </trkpt>
      <trkpt lat="49.0405" lon="1.95259">
        <ele>72.24</ele>
        <time>2018-04-08T10:30:13Z</time>
      </trkpt>
      <trkpt lat="49.04051" lon="1.95248">
        <ele>72.2</ele>
        <time>2018-04-08T10:30:19Z</time>
      </trkpt>
      <trkpt lat="49.04046" lon="1.9521">
        <ele>72.12</ele>
        <time>2018-04-08T10:30:41Z</time>
      </trkpt>
      <trkpt lat="49.04041" lon="1.95197">
        <ele>71.22</ele>
        <time>2018-04-08T10:30:56Z</time>
      </trkpt>
      <trkpt lat="49.04037" lon="1.95167">
        <ele>70.16</ele>
        <time>2018-04-08T10:31:15Z</time>
      </trkpt>
      <trkpt lat="49.04034" lon="1.95132">
        <ele>68</ele>
        <time>2018-04-08T10:31:33Z</time>
      </trkpt>
      <trkpt lat="49.04032" lon="1.95113">
        <ele>66.72</ele>
        <time>2018-04-08T10:31:44Z</time>
      </trkpt>
      <trkpt lat="49.04035" lon="1.95083">
        <ele>64.49</ele>
        <time>2018-04-08T10:32:04Z</time>
      </trkpt>
      <trkpt lat="49.04039" lon="1.95054">
        <ele>62.33</ele>
        <time>2018-04-08T10:32:25Z</time>
      </trkpt>
      <trkpt lat="49.04036" lon="1.95011">
        <ele>60.49</ele>
        <time>2018-04-08T10:32:45Z</time>
      </trkpt>
      <trkpt lat="49.04041" lon="1.94974">
        <ele>58.49</ele>
        <time>2018-04-08T10:33:08Z</time>
      </trkpt>
      <trkpt lat="49.04041" lon="1.94943">
        <ele>57.77</ele>
        <time>2018-04-08T10:33:29Z</time>
      </trkpt>
      <trkpt lat="49.04036" lon="1.94905">
        <ele>56.53</ele>
        <time>2018-04-08T10:33:47Z</time>
      </trkpt>
      <trkpt lat="49.04028" lon="1.94884">
        <ele>55.56</ele>
        <time>2018-04-08T10:34:06Z</time>
      </trkpt>
      <trkpt lat="49.0401" lon="1.94847">
        <ele>54.83</ele>
        <time>2018-04-08T10:34:29Z</time>
      </trkpt>
      <trkpt lat="49.03992" lon="1.94806">
        <ele>53.55</ele>
        <time>2018-04-08T10:34:49Z</time>
      </trkpt>
      <trkpt lat="49.03986" lon="1.94791">
        <ele>53.15</ele>
        <time>2018-04-08T10:35:05Z</time>
      </trkpt>
      <trkpt lat="49.03983" lon="1.94785">
        <ele>53.19</ele>
        <time>2018-04-08T10:35:31Z</time>
      </trkpt>
      <trkpt lat="49.0398" lon="1.94782">
        <ele>52.7</ele>
        <time>2018-04-08T10:35:59Z</time>
      </trkpt>
      <trkpt lat="49.03979" lon="1.94784">
        <ele>53.49</ele>
        <time>2018-04-08T10:36:25Z</time>
      </trkpt>
      <trkpt lat="49.03977" lon="1.94787">
        <ele>53.23</ele>
        <time>2018-04-08T10:36:45Z</time>
      </trkpt>
      <trkpt lat="49.03976" lon="1.94792">
        <ele>53.13</ele>
        <time>2018-04-08T10:36:57Z</time>
      </trkpt>
      <trkpt lat="49.03975" lon="1.94795">
        <ele>53.88</ele>
        <time>2018-04-08T10:36:59Z</time>
      </trkpt>
      <trkpt lat="49.03971" lon="1.94802">
        <ele>54.05</ele>
        <time>2018-04-08T10:37:07Z</time>
      </trkpt>
      <trkpt lat="49.0396" lon="1.94816">
        <ele>55.7</ele>
        <time>2018-04-08T10:37:26Z</time>
      </trkpt>
      <trkpt lat="49.03955" lon="1.94818">
        <ele>56.56</ele>
        <time>2018-04-08T10:37:32Z</time>
      </trkpt>
      <trkpt lat="49.03938" lon="1.9483">
        <ele>58.13</ele>
        <time>2018-04-08T10:37:48Z</time>
      </trkpt>
      <trkpt lat="49.03921" lon="1.94833">
        <ele>59.39</ele>
        <time>2018-04-08T10:38:08Z</time>
      </trkpt>
      <trkpt lat="49.039" lon="1.94836">
        <ele>60.79</ele>
        <time>2018-04-08T10:38:25Z</time>
      </trkpt>
      <trkpt lat="49.03881" lon="1.94836">
        <ele>62.87</ele>
        <time>2018-04-08T10:38:41Z</time>
      </trkpt>
      <trkpt lat="49.03866" lon="1.94841">
        <ele>64.6</ele>
        <time>2018-04-08T10:38:58Z</time>
      </trkpt>
      <trkpt lat="49.03856" lon="1.94851">
        <ele>66.46</ele>
        <time>2018-04-08T10:39:10Z</time>
      </trkpt>
      <trkpt lat="49.03842" lon="1.94869">
        <ele>68.59</ele>
        <time>2018-04-08T10:39:27Z</time>
      </trkpt>
      <trkpt lat="49.03827" lon="1.94883">
        <ele>70.59</ele>
        <time>2018-04-08T10:39:43Z</time>
      </trkpt>
      <trkpt lat="49.03816" lon="1.949">
        <ele>72.37</ele>
        <time>2018-04-08T10:39:59Z</time>
      </trkpt>
      <trkpt lat="49.03813" lon="1.94906">
        <ele>72.62</ele>
        <time>2018-04-08T10:40:04Z</time>
      </trkpt>
      <trkpt lat="49.03799" lon="1.94927">
        <ele>75.31</ele>
        <time>2018-04-08T10:40:22Z</time>
      </trkpt>
      <trkpt lat="49.03791" lon="1.94937">
        <ele>76.19</ele>
        <time>2018-04-08T10:40:39Z</time>
      </trkpt>
      <trkpt lat="49.03789" lon="1.94935">
        <ele>76.47</ele>
        <time>2018-04-08T10:41:01Z</time>
      </trkpt>
      <trkpt lat="49.03788" lon="1.94939">
        <ele>76.78</ele>
        <time>2018-04-08T10:41:23Z</time>
      </trkpt>
      <trkpt lat="49.03779" lon="1.94949">
        <ele>77.77</ele>
        <time>2018-04-08T10:41:36Z</time>
      </trkpt>
      <trkpt lat="49.03774" lon="1.94953">
        <ele>77.47</ele>
        <time>2018-04-08T10:41:43Z</time>
      </trkpt>
      <trkpt lat="49.0376" lon="1.94966">
        <ele>78.77</ele>
        <time>2018-04-08T10:42:00Z</time>
      </trkpt>
      <trkpt lat="49.03756" lon="1.9497">
        <ele>78.67</ele>
        <time>2018-04-08T10:42:05Z</time>
      </trkpt>
      <trkpt lat="49.03752" lon="1.94976">
        <ele>78.93</ele>
        <time>2018-04-08T10:42:10Z</time>
      </trkpt>
      <trkpt lat="49.0374" lon="1.94989">
        <ele>79.28</ele>
        <time>2018-04-08T10:42:24Z</time>
      </trkpt>
      <trkpt lat="49.03731" lon="1.94999">
        <ele>80.22</ele>
        <time>2018-04-08T10:42:39Z</time>
      </trkpt>
      <trkpt lat="49.03728" lon="1.95001">
        <ele>80.11</ele>
        <time>2018-04-08T10:42:51Z</time>
      </trkpt>
      <trkpt lat="49.03713" lon="1.95017">
        <ele>80.93</ele>
        <time>2018-04-08T10:43:08Z</time>
      </trkpt>
      <trkpt lat="49.03698" lon="1.95031">
        <ele>81.04</ele>
        <time>2018-04-08T10:43:22Z</time>
      </trkpt>
      <trkpt lat="49.03685" lon="1.95046">
        <ele>82.51</ele>
        <time>2018-04-08T10:43:36Z</time>
      </trkpt>
      <trkpt lat="49.03668" lon="1.95063">
        <ele>83.32</ele>
        <time>2018-04-08T10:43:53Z</time>
      </trkpt>
      <trkpt lat="49.03655" lon="1.9508">
        <ele>83.94</ele>
        <time>2018-04-08T10:44:09Z</time>
      </trkpt>
      <trkpt lat="49.03642" lon="1.95095">
        <ele>85.11</ele>
        <time>2018-04-08T10:44:24Z</time>
      </trkpt>
      <trkpt lat="49.03632" lon="1.9511">
        <ele>84.98</ele>
        <time>2018-04-08T10:44:37Z</time>
      </trkpt>
      <trkpt lat="49.03621" lon="1.9513">
        <ele>85.77</ele>
        <time>2018-04-08T10:44:53Z</time>
      </trkpt>
      <trkpt lat="49.03612" lon="1.95151">
        <ele>86.35</ele>
        <time>2018-04-08T10:45:06Z</time>
      </trkpt>
      <trkpt lat="49.03601" lon="1.95172">
        <ele>87.01</ele>
        <time>2018-04-08T10:45:20Z</time>
      </trkpt>
      <trkpt lat="49.03588" lon="1.95192">
        <ele>87.9</ele>
        <time>2018-04-08T10:45:35Z</time>
      </trkpt>
      <trkpt lat="49.03573" lon="1.95212">
        <ele>88.07</ele>
        <time>2018-04-08T10:45:51Z</time>
      </trkpt>
      <trkpt lat="49.03568" lon="1.9522">
        <ele>89.16</ele>
        <time>2018-04-08T10:46:07Z</time>
      </trkpt>
      <trkpt lat="49.03567" lon="1.95221">
        <ele>88.71</ele>
        <time>2018-04-08T10:46:31Z</time>
      </trkpt>
      <trkpt lat="49.03556" lon="1.95213">
        <ele>88.48</ele>
        <time>2018-04-08T10:46:47Z</time>
      </trkpt>
      <trkpt lat="49.03543" lon="1.95198">
        <ele>88.02</ele>
        <time>2018-04-08T10:47:07Z</time>
      </trkpt>
      <trkpt lat="49.03531" lon="1.95181">
        <ele>88.08</ele>
        <time>2018-04-08T10:47:18Z</time>
      </trkpt>
      <trkpt lat="49.03513" lon="1.95159">
        <ele>87.25</ele>
        <time>2018-04-08T10:47:35Z</time>
      </trkpt>
      <trkpt lat="49.03499" lon="1.95135">
        <ele>86.78</ele>
        <time>2018-04-08T10:47:54Z</time>
      </trkpt>
      <trkpt lat="49.03476" lon="1.95101">
        <ele>84.95</ele>
        <time>2018-04-08T10:48:16Z</time>
      </trkpt>
      <trkpt lat="49.03458" lon="1.95069">
        <ele>84.15</ele>
        <time>2018-04-08T10:48:36Z</time>
      </trkpt>
      <trkpt lat="49.03438" lon="1.95045">
        <ele>83.04</ele>
        <time>2018-04-08T10:48:57Z</time>
      </trkpt>
      <trkpt lat="49.03418" lon="1.95023">
        <ele>81.78</ele>
        <time>2018-04-08T10:49:18Z</time>
      </trkpt>
      <trkpt lat="49.03402" lon="1.95008">
        <ele>81.17</ele>
        <time>2018-04-08T10:49:33Z</time>
      </trkpt>
      <trkpt lat="49.03387" lon="1.94996">
        <ele>80.68</ele>
        <time>2018-04-08T10:49:48Z</time>
      </trkpt>
      <trkpt lat="49.03372" lon="1.94984">
        <ele>79.79</ele>
        <time>2018-04-08T10:50:02Z</time>
      </trkpt>
      <trkpt lat="49.03354" lon="1.94966">
        <ele>78.5</ele>
        <time>2018-04-08T10:50:20Z</time>
      </trkpt>
      <trkpt lat="49.03347" lon="1.9496">
        <ele>78.44</ele>
        <time>2018-04-08T10:50:32Z</time>
      </trkpt>
      <trkpt lat="49.03345" lon="1.94957">
        <ele>78.25</ele>
        <time>2018-04-08T10:50:35Z</time>
      </trkpt>
      <trkpt lat="49.0334" lon="1.94951">
        <ele>77.78</ele>
        <time>2018-04-08T10:50:44Z</time>
      </trkpt>
      <trkpt lat="49.03326" lon="1.94935">
        <ele>76.45</ele>
        <time>2018-04-08T10:51:00Z</time>
      </trkpt>
      <trkpt lat="49.03322" lon="1.94929">
        <ele>76.3</ele>
        <time>2018-04-08T10:51:05Z</time>
      </trkpt>
      <trkpt lat="49.03305" lon="1.94908">
        <ele>74.5</ele>
        <time>2018-04-08T10:51:23Z</time>
      </trkpt>
      <trkpt lat="49.03294" lon="1.94891">
        <ele>73.27</ele>
        <time>2018-04-08T10:51:39Z</time>
      </trkpt>
      <trkpt lat="49.0328" lon="1.94871">
        <ele>72.7</ele>
        <time>2018-04-08T10:51:56Z</time>
      </trkpt>
      <trkpt lat="49.03276" lon="1.94864">
        <ele>72.04</ele>
        <time>2018-04-08T10:52:02Z</time>
      </trkpt>
      <trkpt lat="49.03269" lon="1.9486">
        <ele>72.13</ele>
        <time>2018-04-08T10:52:14Z</time>
      </trkpt>
      <trkpt lat="49.03266" lon="1.94864">
        <ele>72.2</ele>
        <time>2018-04-08T10:52:37Z</time>
      </trkpt>
      <trkpt lat="49.03259" lon="1.94878">
        <ele>72.39</ele>
        <time>2018-04-08T10:52:51Z</time>
      </trkpt>
      <trkpt lat="49.03246" lon="1.94901">
        <ele>72.29</ele>
        <time>2018-04-08T10:53:08Z</time>
      </trkpt>
      <trkpt lat="49.03236" lon="1.94921">
        <ele>73.02</ele>
        <time>2018-04-08T10:53:22Z</time>
      </trkpt>
      <trkpt lat="49.03222" lon="1.94943">
        <ele>72.83</ele>
        <time>2018-04-08T10:53:39Z</time>
      </trkpt>
      <trkpt lat="49.03211" lon="1.94959">
        <ele>72.88</ele>
        <time>2018-04-08T10:53:51Z</time>
      </trkpt>
      <trkpt lat="49.03199" lon="1.94979">
        <ele>73.15</ele>
        <time>2018-04-08T10:54:07Z</time>
      </trkpt>
      <trkpt lat="49.03187" lon="1.94999">
        <ele>73.18</ele>
        <time>2018-04-08T10:54:21Z</time>
      </trkpt>
      <trkpt lat="49.03173" lon="1.9502">
        <ele>72.78</ele>
        <time>2018-04-08T10:54:37Z</time>
      </trkpt>
      <trkpt lat="49.03159" lon="1.95036">
        <ele>72.51</ele>
        <time>2018-04-08T10:54:52Z</time>
      </trkpt>
      <trkpt lat="49.03144" lon="1.95052">
        <ele>72.6</ele>
        <time>2018-04-08T10:55:07Z</time>
      </trkpt>
      <trkpt lat="49.0313" lon="1.95065">
        <ele>71.99</ele>
        <time>2018-04-08T10:55:20Z</time>
      </trkpt>
      <trkpt lat="49.0311" lon="1.95081">
        <ele>71.48</ele>
        <time>2018-04-08T10:55:37Z</time>
      </trkpt>
      <trkpt lat="49.031" lon="1.9509">
        <ele>71.51</ele>
        <time>2018-04-08T10:55:47Z</time>
      </trkpt>
      <trkpt lat="49.03081" lon="1.95101">
        <ele>71.14</ele>
        <time>2018-04-08T10:56:03Z</time>
      </trkpt>
      <trkpt lat="49.03065" lon="1.95104">
        <ele>70.03</ele>
        <time>2018-04-08T10:56:18Z</time>
      </trkpt>
      <trkpt lat="49.03064" lon="1.95107">
        <ele>70.3</ele>
        <time>2018-04-08T10:56:45Z</time>
      </trkpt>
      <trkpt lat="49.03062" lon="1.95108">
        <ele>70.01</ele>
        <time>2018-04-08T10:57:07Z</time>
      </trkpt>
      <trkpt lat="49.03059" lon="1.95109">
        <ele>69.95</ele>
        <time>2018-04-08T10:57:18Z</time>
      </trkpt>
      <trkpt lat="49.03043" lon="1.9511">
        <ele>69.7</ele>
        <time>2018-04-08T10:57:32Z</time>
      </trkpt>
      <trkpt lat="49.03024" lon="1.95106">
        <ele>70.17</ele>
        <time>2018-04-08T10:57:48Z</time>
      </trkpt>
      <trkpt lat="49.03002" lon="1.95099">
        <ele>70.02</ele>
        <time>2018-04-08T10:58:06Z</time>
      </trkpt>
      <trkpt lat="49.02982" lon="1.95095">
        <ele>71.34</ele>
        <time>2018-04-08T10:58:22Z</time>
      </trkpt>
      <trkpt lat="49.0296" lon="1.95088">
        <ele>72.99</ele>
        <time>2018-04-08T10:58:40Z</time>
      </trkpt>
      <trkpt lat="49.02941" lon="1.95082">
        <ele>74.57</ele>
        <time>2018-04-08T10:58:57Z</time>
      </trkpt>
      <trkpt lat="49.02925" lon="1.95073">
        <ele>77.1</ele>
        <time>2018-04-08T10:59:12Z</time>
      </trkpt>
      <trkpt lat="49.02911" lon="1.95065">
        <ele>78.48</ele>
        <time>2018-04-08T10:59:25Z</time>
      </trkpt>
      <trkpt lat="49.0289" lon="1.95048">
        <ele>80.72</ele>
        <time>2018-04-08T10:59:46Z</time>
      </trkpt>
      <trkpt lat="49.02872" lon="1.95037">
        <ele>82.59</ele>
        <time>2018-04-08T11:00:03Z</time>
      </trkpt>
      <trkpt lat="49.02867" lon="1.95032">
        <ele>82.96</ele>
        <time>2018-04-08T11:00:15Z</time>
      </trkpt>
      <trkpt lat="49.02864" lon="1.95028">
        <ele>83.46</ele>
        <time>2018-04-08T11:00:19Z</time>
      </trkpt>
      <trkpt lat="49.02846" lon="1.95014">
        <ele>84.91</ele>
        <time>2018-04-08T11:00:36Z</time>
      </trkpt>
      <trkpt lat="49.02831" lon="1.95003">
        <ele>85.68</ele>
        <time>2018-04-08T11:00:51Z</time>
      </trkpt>
      <trkpt lat="49.02811" lon="1.94993">
        <ele>86.56</ele>
        <time>2018-04-08T11:01:09Z</time>
      </trkpt>
      <trkpt lat="49.02799" lon="1.94978">
        <ele>87.51</ele>
        <time>2018-04-08T11:01:23Z</time>
      </trkpt>
      <trkpt lat="49.02798" lon="1.94969">
        <ele>88.19</ele>
        <time>2018-04-08T11:01:29Z</time>
      </trkpt>
      <trkpt lat="49.02799" lon="1.94963">
        <ele>88.59</ele>
        <time>2018-04-08T11:01:47Z</time>
      </trkpt>
      <trkpt lat="49.02799" lon="1.94958">
        <ele>88.94</ele>
        <time>2018-04-08T11:02:02Z</time>
      </trkpt>
      <trkpt lat="49.02798" lon="1.94956">
        <ele>88.43</ele>
        <time>2018-04-08T11:02:13Z</time>
      </trkpt>
      <trkpt lat="49.02799" lon="1.94949">
        <ele>88.5</ele>
        <time>2018-04-08T11:02:17Z</time>
      </trkpt>
      <trkpt lat="49.02803" lon="1.9492">
        <ele>88.29</ele>
        <time>2018-04-08T11:02:33Z</time>
      </trkpt>
      <trkpt lat="49.02806" lon="1.9489">
        <ele>87.28</ele>
        <time>2018-04-08T11:02:51Z</time>
      </trkpt>
      <trkpt lat="49.0281" lon="1.9487">
        <ele>86.12</ele>
        <time>2018-04-08T11:03:03Z</time>
      </trkpt>
      <trkpt lat="49.02815" lon="1.94839">
        <ele>85.45</ele>
        <time>2018-04-08T11:03:19Z</time>
      </trkpt>
      <trkpt lat="49.02819" lon="1.94798">
        <ele>83.21</ele>
        <time>2018-04-08T11:03:41Z</time>
      </trkpt>
      <trkpt lat="49.02822" lon="1.94752">
        <ele>80.62</ele>
        <time>2018-04-08T11:04:05Z</time>
      </trkpt>
      <trkpt lat="49.02828" lon="1.94716">
        <ele>80.66</ele>
        <time>2018-04-08T11:04:27Z</time>
      </trkpt>
      <trkpt lat="49.02835" lon="1.94683">
        <ele>81.25</ele>
        <time>2018-04-08T11:04:45Z</time>
      </trkpt>
      <trkpt lat="49.02838" lon="1.94666">
        <ele>81.52</ele>
        <time>2018-04-08T11:04:55Z</time>
      </trkpt>
      <trkpt lat="49.02838" lon="1.94658">
        <ele>82.21</ele>
        <time>2018-04-08T11:05:00Z</time>
      </trkpt>
      <trkpt lat="49.0284" lon="1.9465">
        <ele>82.6</ele>
        <time>2018-04-08T11:05:06Z</time>
      </trkpt>
      <trkpt lat="49.02844" lon="1.94627">
        <ele>84.17</ele>
        <time>2018-04-08T11:05:21Z</time>
      </trkpt>
      <trkpt lat="49.02848" lon="1.94601">
        <ele>84.57</ele>
        <time>2018-04-08T11:05:35Z</time>
      </trkpt>
      <trkpt lat="49.02852" lon="1.94581">
        <ele>85.12</ele>
        <time>2018-04-08T11:05:46Z</time>
      </trkpt>
      <trkpt lat="49.02857" lon="1.94546">
        <ele>85.67</ele>
        <time>2018-04-08T11:06:05Z</time>
      </trkpt>
      <trkpt lat="49.02862" lon="1.94529">
        <ele>85.79</ele>
        <time>2018-04-08T11:06:17Z</time>
      </trkpt>
      <trkpt lat="49.02871" lon="1.94513">
        <ele>84.49</ele>
        <time>2018-04-08T11:06:31Z</time>
      </trkpt>
      <trkpt lat="49.02881" lon="1.945">
        <ele>84.32</ele>
        <time>2018-04-08T11:06:45Z</time>
      </trkpt>
      <trkpt lat="49.02885" lon="1.94493">
        <ele>84.2</ele>
        <time>2018-04-08T11:07:02Z</time>
      </trkpt>
      <trkpt lat="49.02887" lon="1.94491">
        <ele>83.99</ele>
        <time>2018-04-08T11:07:20Z</time>
      </trkpt>
      <trkpt lat="49.02888" lon="1.94494">
        <ele>84.01</ele>
        <time>2018-04-08T11:07:28Z</time>
      </trkpt>
      <trkpt lat="49.02891" lon="1.94497">
        <ele>83.44</ele>
        <time>2018-04-08T11:07:32Z</time>
      </trkpt>
      <trkpt lat="49.02897" lon="1.94498">
        <ele>83.25</ele>
        <time>2018-04-08T11:07:38Z</time>
      </trkpt>
      <trkpt lat="49.02902" lon="1.94498">
        <ele>83.04</ele>
        <time>2018-04-08T11:07:43Z</time>
      </trkpt>
      <trkpt lat="49.02918" lon="1.94498">
        <ele>82.55</ele>
        <time>2018-04-08T11:07:57Z</time>
      </trkpt>
      <trkpt lat="49.02934" lon="1.94498">
        <ele>81.83</ele>
        <time>2018-04-08T11:08:14Z</time>
      </trkpt>
      <trkpt lat="49.02952" lon="1.94499">
        <ele>81.6</ele>
        <time>2018-04-08T11:08:31Z</time>
      </trkpt>
      <trkpt lat="49.02957" lon="1.94501">
        <ele>80.97</ele>
        <time>2018-04-08T11:08:34Z</time>
      </trkpt>
      <trkpt lat="49.02976" lon="1.94492">
        <ele>80.8</ele>
        <time>2018-04-08T11:08:53Z</time>
      </trkpt>
      <trkpt lat="49.02978" lon="1.9449">
        <ele>80.89</ele>
        <time>2018-04-08T11:09:15Z</time>
      </trkpt>
      <trkpt lat="49.02984" lon="1.9449">
        <ele>80.83</ele>
        <time>2018-04-08T11:09:34Z</time>
      </trkpt>
      <trkpt lat="49.02998" lon="1.9448">
        <ele>79.77</ele>
        <time>2018-04-08T11:09:50Z</time>
      </trkpt>
      <trkpt lat="49.03011" lon="1.94463">
        <ele>78.21</ele>
        <time>2018-04-08T11:10:04Z</time>
      </trkpt>
      <trkpt lat="49.03015" lon="1.94443">
        <ele>76.16</ele>
        <time>2018-04-08T11:10:20Z</time>
      </trkpt>
      <trkpt lat="49.03013" lon="1.94419">
        <ele>73.38</ele>
        <time>2018-04-08T11:10:39Z</time>
      </trkpt>
      <trkpt lat="49.03008" lon="1.94412">
        <ele>73.39</ele>
        <time>2018-04-08T11:10:44Z</time>
      </trkpt>
      <trkpt lat="49.02993" lon="1.94392">
        <ele>71.69</ele>
        <time>2018-04-08T11:10:59Z</time>
      </trkpt>
      <trkpt lat="49.02987" lon="1.94368">
        <ele>71.34</ele>
        <time>2018-04-08T11:11:16Z</time>
      </trkpt>
      <trkpt lat="49.02989" lon="1.9436">
        <ele>70.89</ele>
        <time>2018-04-08T11:11:31Z</time>
      </trkpt>
      <trkpt lat="49.02986" lon="1.94357">
        <ele>75.11</ele>
        <time>2018-04-08T11:54:12Z</time>
      </trkpt>
      <trkpt lat="49.02982" lon="1.94355">
        <ele>74.84</ele>
        <time>2018-04-08T11:54:18Z</time>
      </trkpt>
      <trkpt lat="49.02968" lon="1.94345">
        <ele>74.51</ele>
        <time>2018-04-08T11:54:35Z</time>
      </trkpt>
      <trkpt lat="49.02957" lon="1.94319">
        <ele>73.44</ele>
        <time>2018-04-08T11:54:54Z</time>
      </trkpt>
      <trkpt lat="49.02956" lon="1.94311">
        <ele>71.98</ele>
        <time>2018-04-08T11:55:00Z</time>
      </trkpt>
      <trkpt lat="49.02953" lon="1.94297">
        <ele>70.48</ele>
        <time>2018-04-08T11:55:09Z</time>
      </trkpt>
      <trkpt lat="49.02951" lon="1.9429">
        <ele>69.29</ele>
        <time>2018-04-08T11:55:13Z</time>
      </trkpt>
      <trkpt lat="49.02948" lon="1.9427">
        <ele>67.67</ele>
        <time>2018-04-08T11:55:27Z</time>
      </trkpt>
      <trkpt lat="49.02947" lon="1.94253">
        <ele>64.95</ele>
        <time>2018-04-08T11:55:45Z</time>
      </trkpt>
      <trkpt lat="49.02946" lon="1.9425">
        <ele>64.79</ele>
        <time>2018-04-08T11:55:48Z</time>
      </trkpt>
      <trkpt lat="49.02939" lon="1.94226">
        <ele>62.1</ele>
        <time>2018-04-08T11:56:07Z</time>
      </trkpt>
      <trkpt lat="49.02941" lon="1.94191">
        <ele>59.1</ele>
        <time>2018-04-08T11:56:28Z</time>
      </trkpt>
      <trkpt lat="49.02942" lon="1.94165">
        <ele>56.9</ele>
        <time>2018-04-08T11:56:45Z</time>
      </trkpt>
      <trkpt lat="49.02943" lon="1.94157">
        <ele>56.43</ele>
        <time>2018-04-08T11:56:48Z</time>
      </trkpt>
      <trkpt lat="49.02943" lon="1.94132">
        <ele>55.28</ele>
        <time>2018-04-08T11:56:59Z</time>
      </trkpt>
      <trkpt lat="49.02942" lon="1.94094">
        <ele>54.09</ele>
        <time>2018-04-08T11:57:16Z</time>
      </trkpt>
      <trkpt lat="49.02942" lon="1.94087">
        <ele>53.78</ele>
        <time>2018-04-08T11:57:29Z</time>
      </trkpt>
      <trkpt lat="49.02942" lon="1.94084">
        <ele>53.23</ele>
        <time>2018-04-08T11:57:31Z</time>
      </trkpt>
      <trkpt lat="49.02944" lon="1.94077">
        <ele>53.59</ele>
        <time>2018-04-08T11:57:35Z</time>
      </trkpt>
      <trkpt lat="49.02946" lon="1.94044">
        <ele>51.73</ele>
        <time>2018-04-08T11:57:54Z</time>
      </trkpt>
      <trkpt lat="49.02948" lon="1.9402">
        <ele>50.25</ele>
        <time>2018-04-08T11:58:08Z</time>
      </trkpt>
      <trkpt lat="49.02952" lon="1.93991">
        <ele>48.92</ele>
        <time>2018-04-08T11:58:24Z</time>
      </trkpt>
      <trkpt lat="49.02954" lon="1.93964">
        <ele>48.02</ele>
        <time>2018-04-08T11:58:40Z</time>
      </trkpt>
      <trkpt lat="49.02955" lon="1.93956">
        <ele>47.31</ele>
        <time>2018-04-08T11:58:50Z</time>
      </trkpt>
      <trkpt lat="49.02956" lon="1.93946">
        <ele>47.13</ele>
        <time>2018-04-08T11:58:59Z</time>
      </trkpt>
      <trkpt lat="49.02957" lon="1.9394">
        <ele>47.25</ele>
        <time>2018-04-08T11:59:03Z</time>
      </trkpt>
      <trkpt lat="49.02959" lon="1.93917">
        <ele>45.87</ele>
        <time>2018-04-08T11:59:17Z</time>
      </trkpt>
      <trkpt lat="49.02961" lon="1.93892">
        <ele>44.69</ele>
        <time>2018-04-08T11:59:32Z</time>
      </trkpt>
      <trkpt lat="49.02962" lon="1.9388">
        <ele>44.27</ele>
        <time>2018-04-08T11:59:41Z</time>
      </trkpt>
      <trkpt lat="49.02959" lon="1.93852">
        <ele>43.53</ele>
        <time>2018-04-08T11:59:57Z</time>
      </trkpt>
      <trkpt lat="49.02958" lon="1.93847">
        <ele>43.16</ele>
        <time>2018-04-08T12:00:01Z</time>
      </trkpt>
      <trkpt lat="49.02953" lon="1.93833">
        <ele>42.84</ele>
        <time>2018-04-08T12:00:16Z</time>
      </trkpt>
      <trkpt lat="49.02948" lon="1.93809">
        <ele>40.21</ele>
        <time>2018-04-08T12:00:36Z</time>
      </trkpt>
      <trkpt lat="49.02955" lon="1.93784">
        <ele>38.63</ele>
        <time>2018-04-08T12:00:54Z</time>
      </trkpt>
      <trkpt lat="49.02965" lon="1.93767">
        <ele>36.97</ele>
        <time>2018-04-08T12:01:13Z</time>
      </trkpt>
      <trkpt lat="49.02982" lon="1.93773">
        <ele>35.52</ele>
        <time>2018-04-08T12:01:31Z</time>
      </trkpt>
      <trkpt lat="49.02989" lon="1.9378">
        <ele>35</ele>
        <time>2018-04-08T12:01:45Z</time>
      </trkpt>
      <trkpt lat="49.02999" lon="1.93765">
        <ele>34.78</ele>
        <time>2018-04-08T12:02:02Z</time>
      </trkpt>
      <trkpt lat="49.03006" lon="1.93751">
        <ele>34.16</ele>
        <time>2018-04-08T12:02:14Z</time>
      </trkpt>
      <trkpt lat="49.03015" lon="1.9374">
        <ele>33.7</ele>
        <time>2018-04-08T12:02:28Z</time>
      </trkpt>
      <trkpt lat="49.03027" lon="1.93725">
        <ele>32.88</ele>
        <time>2018-04-08T12:02:43Z</time>
      </trkpt>
      <trkpt lat="49.03036" lon="1.93714">
        <ele>32.97</ele>
        <time>2018-04-08T12:02:58Z</time>
      </trkpt>
      <trkpt lat="49.03044" lon="1.93707">
        <ele>33.05</ele>
        <time>2018-04-08T12:03:14Z</time>
      </trkpt>
      <trkpt lat="49.03045" lon="1.93701">
        <ele>32.93</ele>
        <time>2018-04-08T12:03:17Z</time>
      </trkpt>
      <trkpt lat="49.03049" lon="1.93693">
        <ele>32.26</ele>
        <time>2018-04-08T12:03:32Z</time>
      </trkpt>
      <trkpt lat="49.0306" lon="1.93682">
        <ele>32.7</ele>
        <time>2018-04-08T12:03:46Z</time>
      </trkpt>
      <trkpt lat="49.03066" lon="1.93672">
        <ele>33.06</ele>
        <time>2018-04-08T12:03:53Z</time>
      </trkpt>
      <trkpt lat="49.03069" lon="1.93658">
        <ele>32.98</ele>
        <time>2018-04-08T12:04:10Z</time>
      </trkpt>
      <trkpt lat="49.03072" lon="1.93658">
        <ele>32.73</ele>
        <time>2018-04-08T12:04:27Z</time>
      </trkpt>
      <trkpt lat="49.03084" lon="1.9364">
        <ele>32.85</ele>
        <time>2018-04-08T12:04:45Z</time>
      </trkpt>
      <trkpt lat="49.03089" lon="1.93628">
        <ele>33.72</ele>
        <time>2018-04-08T12:04:59Z</time>
      </trkpt>
      <trkpt lat="49.03093" lon="1.93623">
        <ele>34.2</ele>
        <time>2018-04-08T12:05:12Z</time>
      </trkpt>
      <trkpt lat="49.03094" lon="1.93612">
        <ele>33.96</ele>
        <time>2018-04-08T12:05:20Z</time>
      </trkpt>
      <trkpt lat="49.0309" lon="1.936">
        <ele>33.96</ele>
        <time>2018-04-08T12:05:39Z</time>
      </trkpt>
      <trkpt lat="49.03095" lon="1.93603">
        <ele>34.36</ele>
        <time>2018-04-08T12:05:56Z</time>
      </trkpt>
      <trkpt lat="49.03095" lon="1.93609">
        <ele>34.6</ele>
        <time>2018-04-08T12:06:14Z</time>
      </trkpt>
      <trkpt lat="49.03089" lon="1.93601">
        <ele>34.31</ele>
        <time>2018-04-08T12:06:25Z</time>
      </trkpt>
      <trkpt lat="49.03088" lon="1.936">
        <ele>33.89</ele>
        <time>2018-04-08T12:06:27Z</time>
      </trkpt>
      <trkpt lat="49.03084" lon="1.93592">
        <ele>33.71</ele>
        <time>2018-04-08T12:06:33Z</time>
      </trkpt>
      <trkpt lat="49.03079" lon="1.93584">
        <ele>34.21</ele>
        <time>2018-04-08T12:06:42Z</time>
      </trkpt>
      <trkpt lat="49.03079" lon="1.93573">
        <ele>34.41</ele>
        <time>2018-04-08T12:06:47Z</time>
      </trkpt>
      <trkpt lat="49.0308" lon="1.93542">
        <ele>35.46</ele>
        <time>2018-04-08T12:07:03Z</time>
      </trkpt>
      <trkpt lat="49.03086" lon="1.93522">
        <ele>36.71</ele>
        <time>2018-04-08T12:07:15Z</time>
      </trkpt>
      <trkpt lat="49.03093" lon="1.93502">
        <ele>37.59</ele>
        <time>2018-04-08T12:07:27Z</time>
      </trkpt>
      <trkpt lat="49.03097" lon="1.93474">
        <ele>39.18</ele>
        <time>2018-04-08T12:07:44Z</time>
      </trkpt>
      <trkpt lat="49.03091" lon="1.93442">
        <ele>41.95</ele>
        <time>2018-04-08T12:08:04Z</time>
      </trkpt>
      <trkpt lat="49.03089" lon="1.93408">
        <ele>43.41</ele>
        <time>2018-04-08T12:08:25Z</time>
      </trkpt>
      <trkpt lat="49.0309" lon="1.93399">
        <ele>43.55</ele>
        <time>2018-04-08T12:08:42Z</time>
      </trkpt>
      <trkpt lat="49.03089" lon="1.93399">
        <ele>43.51</ele>
        <time>2018-04-08T12:09:09Z</time>
      </trkpt>
      <trkpt lat="49.03089" lon="1.93403">
        <ele>43.17</ele>
        <time>2018-04-08T12:09:41Z</time>
      </trkpt>
      <trkpt lat="49.0309" lon="1.93402">
        <ele>43.48</ele>
        <time>2018-04-08T12:09:42Z</time>
      </trkpt>
      <trkpt lat="49.03096" lon="1.93386">
        <ele>43.61</ele>
        <time>2018-04-08T12:09:52Z</time>
      </trkpt>
      <trkpt lat="49.03095" lon="1.93377">
        <ele>43.87</ele>
        <time>2018-04-08T12:09:57Z</time>
      </trkpt>
      <trkpt lat="49.03096" lon="1.93371">
        <ele>44.02</ele>
        <time>2018-04-08T12:10:01Z</time>
      </trkpt>
      <trkpt lat="49.03107" lon="1.93347">
        <ele>45.14</ele>
        <time>2018-04-08T12:10:16Z</time>
      </trkpt>
      <trkpt lat="49.03123" lon="1.93333">
        <ele>46.52</ele>
        <time>2018-04-08T12:10:34Z</time>
      </trkpt>
      <trkpt lat="49.03138" lon="1.93318">
        <ele>48.07</ele>
        <time>2018-04-08T12:10:50Z</time>
      </trkpt>
      <trkpt lat="49.03152" lon="1.9331">
        <ele>49.22</ele>
        <time>2018-04-08T12:11:04Z</time>
      </trkpt>
      <trkpt lat="49.03165" lon="1.9331">
        <ele>50.4</ele>
        <time>2018-04-08T12:11:18Z</time>
      </trkpt>
      <trkpt lat="49.03173" lon="1.93315">
        <ele>50.56</ele>
        <time>2018-04-08T12:11:27Z</time>
      </trkpt>
      <trkpt lat="49.03176" lon="1.93317">
        <ele>51.57</ele>
        <time>2018-04-08T12:11:30Z</time>
      </trkpt>
      <trkpt lat="49.03188" lon="1.93329">
        <ele>52.13</ele>
        <time>2018-04-08T12:11:43Z</time>
      </trkpt>
      <trkpt lat="49.03202" lon="1.93344">
        <ele>53.16</ele>
        <time>2018-04-08T12:11:58Z</time>
      </trkpt>
      <trkpt lat="49.03216" lon="1.93359">
        <ele>55.31</ele>
        <time>2018-04-08T12:12:13Z</time>
      </trkpt>
      <trkpt lat="49.03227" lon="1.9337">
        <ele>56.19</ele>
        <time>2018-04-08T12:12:26Z</time>
      </trkpt>
      <trkpt lat="49.03241" lon="1.93386">
        <ele>57.51</ele>
        <time>2018-04-08T12:12:42Z</time>
      </trkpt>
      <trkpt lat="49.0325" lon="1.93395">
        <ele>58.07</ele>
        <time>2018-04-08T12:12:56Z</time>
      </trkpt>
      <trkpt lat="49.03254" lon="1.93398">
        <ele>58.85</ele>
        <time>2018-04-08T12:13:00Z</time>
      </trkpt>
      <trkpt lat="49.03271" lon="1.93416">
        <ele>60.04</ele>
        <time>2018-04-08T12:13:17Z</time>
      </trkpt>
      <trkpt lat="49.03285" lon="1.93418">
        <ele>60.75</ele>
        <time>2018-04-08T12:13:31Z</time>
      </trkpt>
      <trkpt lat="49.03295" lon="1.93417">
        <ele>61.7</ele>
        <time>2018-04-08T12:13:39Z</time>
      </trkpt>
      <trkpt lat="49.03309" lon="1.93409">
        <ele>62.73</ele>
        <time>2018-04-08T12:13:51Z</time>
      </trkpt>
      <trkpt lat="49.03321" lon="1.93396">
        <ele>63.37</ele>
        <time>2018-04-08T12:14:04Z</time>
      </trkpt>
      <trkpt lat="49.03333" lon="1.93383">
        <ele>64.47</ele>
        <time>2018-04-08T12:14:17Z</time>
      </trkpt>
      <trkpt lat="49.03341" lon="1.93375">
        <ele>65.11</ele>
        <time>2018-04-08T12:14:30Z</time>
      </trkpt>
      <trkpt lat="49.03343" lon="1.93374">
        <ele>65.61</ele>
        <time>2018-04-08T12:14:32Z</time>
      </trkpt>
      <trkpt lat="49.03357" lon="1.93358">
        <ele>66.49</ele>
        <time>2018-04-08T12:14:46Z</time>
      </trkpt>
      <trkpt lat="49.03372" lon="1.93342">
        <ele>67.17</ele>
        <time>2018-04-08T12:15:01Z</time>
      </trkpt>
      <trkpt lat="49.03386" lon="1.93329">
        <ele>68.42</ele>
        <time>2018-04-08T12:15:15Z</time>
      </trkpt>
      <trkpt lat="49.034" lon="1.93313">
        <ele>69.13</ele>
        <time>2018-04-08T12:15:29Z</time>
      </trkpt>
      <trkpt lat="49.03416" lon="1.93298">
        <ele>69.54</ele>
        <time>2018-04-08T12:15:45Z</time>
      </trkpt>
      <trkpt lat="49.03433" lon="1.93288">
        <ele>69.88</ele>
        <time>2018-04-08T12:16:01Z</time>
      </trkpt>
      <trkpt lat="49.03452" lon="1.93277">
        <ele>70.77</ele>
        <time>2018-04-08T12:16:17Z</time>
      </trkpt>
      <trkpt lat="49.03472" lon="1.93265">
        <ele>70.71</ele>
        <time>2018-04-08T12:16:33Z</time>
      </trkpt>
      <trkpt lat="49.03491" lon="1.93252">
        <ele>71.35</ele>
        <time>2018-04-08T12:16:49Z</time>
      </trkpt>
      <trkpt lat="49.03494" lon="1.93251">
        <ele>71.13</ele>
        <time>2018-04-08T12:16:51Z</time>
      </trkpt>
      <trkpt lat="49.03517" lon="1.93234">
        <ele>70.17</ele>
        <time>2018-04-08T12:17:11Z</time>
      </trkpt>
      <trkpt lat="49.03528" lon="1.93224">
        <ele>70.22</ele>
        <time>2018-04-08T12:17:25Z</time>
      </trkpt>
      <trkpt lat="49.0353" lon="1.93223">
        <ele>69.63</ele>
        <time>2018-04-08T12:17:31Z</time>
      </trkpt>
      <trkpt lat="49.03532" lon="1.93221">
        <ele>69.9</ele>
        <time>2018-04-08T12:17:33Z</time>
      </trkpt>
      <trkpt lat="49.03548" lon="1.93213">
        <ele>68.99</ele>
        <time>2018-04-08T12:17:49Z</time>
      </trkpt>
      <trkpt lat="49.03556" lon="1.93222">
        <ele>68.28</ele>
        <time>2018-04-08T12:17:59Z</time>
      </trkpt>
      <trkpt lat="49.03572" lon="1.93235">
        <ele>67.38</ele>
        <time>2018-04-08T12:18:15Z</time>
      </trkpt>
      <trkpt lat="49.03576" lon="1.93238">
        <ele>67.69</ele>
        <time>2018-04-08T12:18:19Z</time>
      </trkpt>
      <trkpt lat="49.03595" lon="1.93259">
        <ele>68.2</ele>
        <time>2018-04-08T12:18:39Z</time>
      </trkpt>
      <trkpt lat="49.03611" lon="1.93276">
        <ele>67.52</ele>
        <time>2018-04-08T12:18:54Z</time>
      </trkpt>
      <trkpt lat="49.03626" lon="1.93289">
        <ele>67.15</ele>
        <time>2018-04-08T12:19:08Z</time>
      </trkpt>
      <trkpt lat="49.03643" lon="1.93307">
        <ele>67.73</ele>
        <time>2018-04-08T12:19:24Z</time>
      </trkpt>
      <trkpt lat="49.0366" lon="1.93326">
        <ele>68.2</ele>
        <time>2018-04-08T12:19:41Z</time>
      </trkpt>
      <trkpt lat="49.03671" lon="1.93339">
        <ele>67.55</ele>
        <time>2018-04-08T12:19:52Z</time>
      </trkpt>
      <trkpt lat="49.03685" lon="1.93359">
        <ele>68.71</ele>
        <time>2018-04-08T12:20:07Z</time>
      </trkpt>
      <trkpt lat="49.03698" lon="1.93377">
        <ele>68.11</ele>
        <time>2018-04-08T12:20:22Z</time>
      </trkpt>
      <trkpt lat="49.0372" lon="1.93404">
        <ele>68.82</ele>
        <time>2018-04-08T12:20:44Z</time>
      </trkpt>
      <trkpt lat="49.03736" lon="1.93424">
        <ele>69.09</ele>
        <time>2018-04-08T12:21:00Z</time>
      </trkpt>
      <trkpt lat="49.03749" lon="1.93441">
        <ele>69.52</ele>
        <time>2018-04-08T12:21:14Z</time>
      </trkpt>
      <trkpt lat="49.03764" lon="1.93461">
        <ele>69.92</ele>
        <time>2018-04-08T12:21:30Z</time>
      </trkpt>
      <trkpt lat="49.03771" lon="1.93471">
        <ele>70.71</ele>
        <time>2018-04-08T12:21:42Z</time>
      </trkpt>
      <trkpt lat="49.03771" lon="1.93472">
        <ele>70.31</ele>
        <time>2018-04-08T12:22:07Z</time>
      </trkpt>
      <trkpt lat="49.03772" lon="1.93472">
        <ele>70.29</ele>
        <time>2018-04-08T12:22:35Z</time>
      </trkpt>
      <trkpt lat="49.03772" lon="1.9347">
        <ele>70.3</ele>
        <time>2018-04-08T12:23:07Z</time>
      </trkpt>
      <trkpt lat="49.03771" lon="1.93471">
        <ele>70.3</ele>
        <time>2018-04-08T12:23:38Z</time>
      </trkpt>
      <trkpt lat="49.03771" lon="1.9347">
        <ele>70.62</ele>
        <time>2018-04-08T12:24:03Z</time>
      </trkpt>
      <trkpt lat="49.03771" lon="1.93468">
        <ele>70.73</ele>
        <time>2018-04-08T12:24:23Z</time>
      </trkpt>
      <trkpt lat="49.03771" lon="1.93467">
        <ele>70.87</ele>
        <time>2018-04-08T12:24:57Z</time>
      </trkpt>
      <trkpt lat="49.03772" lon="1.93471">
        <ele>70.56</ele>
        <time>2018-04-08T12:25:21Z</time>
      </trkpt>
      <trkpt lat="49.03773" lon="1.93473">
        <ele>70.02</ele>
        <time>2018-04-08T12:25:25Z</time>
      </trkpt>
      <trkpt lat="49.03786" lon="1.9349">
        <ele>70.52</ele>
        <time>2018-04-08T12:25:42Z</time>
      </trkpt>
      <trkpt lat="49.03789" lon="1.93493">
        <ele>70.26</ele>
        <time>2018-04-08T12:25:45Z</time>
      </trkpt>
      <trkpt lat="49.038" lon="1.93514">
        <ele>70.53</ele>
        <time>2018-04-08T12:26:02Z</time>
      </trkpt>
      <trkpt lat="49.03808" lon="1.93535">
        <ele>69.53</ele>
        <time>2018-04-08T12:26:18Z</time>
      </trkpt>
      <trkpt lat="49.03817" lon="1.93554">
        <ele>70.17</ele>
        <time>2018-04-08T12:26:33Z</time>
      </trkpt>
      <trkpt lat="49.03818" lon="1.93556">
        <ele>70.27</ele>
        <time>2018-04-08T12:26:35Z</time>
      </trkpt>
      <trkpt lat="49.03821" lon="1.93562">
        <ele>69.75</ele>
        <time>2018-04-08T12:26:39Z</time>
      </trkpt>
      <trkpt lat="49.03824" lon="1.93567">
        <ele>69.45</ele>
        <time>2018-04-08T12:26:43Z</time>
      </trkpt>
      <trkpt lat="49.03829" lon="1.93572">
        <ele>69.49</ele>
        <time>2018-04-08T12:26:49Z</time>
      </trkpt>
      <trkpt lat="49.03837" lon="1.93584">
        <ele>69.6</ele>
        <time>2018-04-08T12:27:01Z</time>
      </trkpt>
      <trkpt lat="49.0384" lon="1.93588">
        <ele>69.63</ele>
        <time>2018-04-08T12:27:04Z</time>
      </trkpt>
      <trkpt lat="49.03841" lon="1.93589">
        <ele>69.6</ele>
        <time>2018-04-08T12:27:06Z</time>
      </trkpt>
      <trkpt lat="49.03855" lon="1.93611">
        <ele>69.31</ele>
        <time>2018-04-08T12:27:25Z</time>
      </trkpt>
      <trkpt lat="49.03861" lon="1.9362">
        <ele>69.26</ele>
        <time>2018-04-08T12:27:35Z</time>
      </trkpt>
      <trkpt lat="49.03865" lon="1.93625">
        <ele>69.38</ele>
        <time>2018-04-08T12:27:41Z</time>
      </trkpt>
      <trkpt lat="49.03872" lon="1.93635">
        <ele>68.71</ele>
        <time>2018-04-08T12:27:50Z</time>
      </trkpt>
      <trkpt lat="49.03884" lon="1.93647">
        <ele>68.39</ele>
        <time>2018-04-08T12:28:03Z</time>
      </trkpt>
      <trkpt lat="49.03898" lon="1.93661">
        <ele>68.65</ele>
        <time>2018-04-08T12:28:16Z</time>
      </trkpt>
      <trkpt lat="49.03911" lon="1.93672">
        <ele>67.57</ele>
        <time>2018-04-08T12:28:30Z</time>
      </trkpt>
      <trkpt lat="49.0393" lon="1.93682">
        <ele>67.6</ele>
        <time>2018-04-08T12:28:45Z</time>
      </trkpt>
      <trkpt lat="49.03938" lon="1.93688">
        <ele>66.55</ele>
        <time>2018-04-08T12:28:52Z</time>
      </trkpt>
      <trkpt lat="49.03955" lon="1.93702">
        <ele>66.37</ele>
        <time>2018-04-08T12:29:08Z</time>
      </trkpt>
      <trkpt lat="49.03964" lon="1.93711">
        <ele>65.24</ele>
        <time>2018-04-08T12:29:18Z</time>
      </trkpt>
      <trkpt lat="49.03968" lon="1.93716">
        <ele>65.09</ele>
        <time>2018-04-08T12:29:22Z</time>
      </trkpt>
      <trkpt lat="49.03981" lon="1.93736">
        <ele>62.93</ele>
        <time>2018-04-08T12:29:38Z</time>
      </trkpt>
      <trkpt lat="49.03982" lon="1.93738">
        <ele>62.42</ele>
        <time>2018-04-08T12:29:40Z</time>
      </trkpt>
      <trkpt lat="49.03988" lon="1.93747">
        <ele>62.11</ele>
        <time>2018-04-08T12:29:48Z</time>
      </trkpt>
      <trkpt lat="49.03989" lon="1.93758">
        <ele>61.45</ele>
        <time>2018-04-08T12:29:56Z</time>
      </trkpt>
      <trkpt lat="49.03985" lon="1.93782">
        <ele>59.71</ele>
        <time>2018-04-08T12:30:13Z</time>
      </trkpt>
      <trkpt lat="49.03984" lon="1.9381">
        <ele>58.33</ele>
        <time>2018-04-08T12:30:31Z</time>
      </trkpt>
      <trkpt lat="49.03988" lon="1.93826">
        <ele>57.65</ele>
        <time>2018-04-08T12:30:40Z</time>
      </trkpt>
      <trkpt lat="49.03989" lon="1.93828">
        <ele>57.72</ele>
        <time>2018-04-08T12:30:42Z</time>
      </trkpt>
      <trkpt lat="49.03998" lon="1.93841">
        <ele>56.44</ele>
        <time>2018-04-08T12:30:52Z</time>
      </trkpt>
      <trkpt lat="49.04011" lon="1.93861">
        <ele>55.21</ele>
        <time>2018-04-08T12:31:09Z</time>
      </trkpt>
      <trkpt lat="49.04018" lon="1.9387">
        <ele>54.62</ele>
        <time>2018-04-08T12:31:17Z</time>
      </trkpt>
      <trkpt lat="49.04027" lon="1.93885">
        <ele>52.99</ele>
        <time>2018-04-08T12:31:31Z</time>
      </trkpt>
      <trkpt lat="49.04037" lon="1.93897">
        <ele>52.06</ele>
        <time>2018-04-08T12:31:45Z</time>
      </trkpt>
      <trkpt lat="49.04047" lon="1.93913">
        <ele>51.05</ele>
        <time>2018-04-08T12:31:59Z</time>
      </trkpt>
      <trkpt lat="49.0406" lon="1.93932">
        <ele>49.18</ele>
        <time>2018-04-08T12:32:18Z</time>
      </trkpt>
      <trkpt lat="49.04071" lon="1.93957">
        <ele>46.88</ele>
        <time>2018-04-08T12:32:42Z</time>
      </trkpt>
      <trkpt lat="49.04072" lon="1.93971">
        <ele>46.44</ele>
        <time>2018-04-08T12:32:53Z</time>
      </trkpt>
      <trkpt lat="49.04071" lon="1.93997">
        <ele>44.71</ele>
        <time>2018-04-08T12:33:08Z</time>
      </trkpt>
      <trkpt lat="49.04068" lon="1.94013">
        <ele>43.9</ele>
        <time>2018-04-08T12:33:20Z</time>
      </trkpt>
      <trkpt lat="49.04066" lon="1.94029">
        <ele>43.3</ele>
        <time>2018-04-08T12:33:30Z</time>
      </trkpt>
      <trkpt lat="49.04067" lon="1.94056">
        <ele>42.56</ele>
        <time>2018-04-08T12:33:45Z</time>
      </trkpt>
      <trkpt lat="49.04064" lon="1.94086">
        <ele>41.42</ele>
        <time>2018-04-08T12:34:02Z</time>
      </trkpt>
      <trkpt lat="49.04066" lon="1.94102">
        <ele>40.37</ele>
        <time>2018-04-08T12:34:15Z</time>
      </trkpt>
      <trkpt lat="49.04059" lon="1.94134">
        <ele>39.42</ele>
        <time>2018-04-08T12:34:30Z</time>
      </trkpt>
      <trkpt lat="49.04069" lon="1.94149">
        <ele>38.41</ele>
        <time>2018-04-08T12:34:46Z</time>
      </trkpt>
      <trkpt lat="49.04071" lon="1.94152">
        <ele>38.32</ele>
        <time>2018-04-08T12:34:49Z</time>
      </trkpt>
      <trkpt lat="49.04077" lon="1.94162">
        <ele>36.92</ele>
        <time>2018-04-08T12:35:00Z</time>
      </trkpt>
      <trkpt lat="49.04079" lon="1.94181">
        <ele>36.85</ele>
        <time>2018-04-08T12:35:15Z</time>
      </trkpt>
      <trkpt lat="49.04083" lon="1.94191">
        <ele>36.74</ele>
        <time>2018-04-08T12:35:21Z</time>
      </trkpt>
      <trkpt lat="49.04084" lon="1.94198">
        <ele>36.74</ele>
        <time>2018-04-08T12:35:25Z</time>
      </trkpt>
      <trkpt lat="49.0409" lon="1.94213">
        <ele>35.97</ele>
        <time>2018-04-08T12:35:35Z</time>
      </trkpt>
      <trkpt lat="49.04093" lon="1.94219">
        <ele>35.77</ele>
        <time>2018-04-08T12:35:39Z</time>
      </trkpt>
      <trkpt lat="49.04098" lon="1.94238">
        <ele>34.72</ele>
        <time>2018-04-08T12:35:53Z</time>
      </trkpt>
      <trkpt lat="49.04113" lon="1.94255">
        <ele>34.55</ele>
        <time>2018-04-08T12:36:12Z</time>
      </trkpt>
      <trkpt lat="49.04117" lon="1.94259">
        <ele>34.54</ele>
        <time>2018-04-08T12:36:15Z</time>
      </trkpt>
      <trkpt lat="49.04119" lon="1.94263">
        <ele>33.15</ele>
        <time>2018-04-08T12:36:19Z</time>
      </trkpt>
      <trkpt lat="49.04121" lon="1.94265">
        <ele>33.14</ele>
        <time>2018-04-08T12:36:21Z</time>
      </trkpt>
      <trkpt lat="49.04129" lon="1.94273">
        <ele>34.87</ele>
        <time>2018-04-08T12:36:30Z</time>
      </trkpt>
      <trkpt lat="49.04149" lon="1.94295">
        <ele>34.94</ele>
        <time>2018-04-08T12:36:50Z</time>
      </trkpt>
      <trkpt lat="49.0416" lon="1.94304">
        <ele>34.41</ele>
        <time>2018-04-08T12:37:03Z</time>
      </trkpt>
      <trkpt lat="49.04167" lon="1.94308">
        <ele>33.94</ele>
        <time>2018-04-08T12:37:09Z</time>
      </trkpt>
      <trkpt lat="49.04185" lon="1.94312">
        <ele>34.91</ele>
        <time>2018-04-08T12:37:23Z</time>
      </trkpt>
      <trkpt lat="49.04199" lon="1.94306">
        <ele>34.96</ele>
        <time>2018-04-08T12:37:38Z</time>
      </trkpt>
      <trkpt lat="49.04213" lon="1.94295">
        <ele>35.65</ele>
        <time>2018-04-08T12:37:52Z</time>
      </trkpt>
      <trkpt lat="49.04231" lon="1.9429">
        <ele>35.22</ele>
        <time>2018-04-08T12:38:06Z</time>
      </trkpt>
      <trkpt lat="49.04247" lon="1.94286">
        <ele>34.72</ele>
        <time>2018-04-08T12:38:21Z</time>
      </trkpt>
      <trkpt lat="49.04263" lon="1.94287">
        <ele>34.22</ele>
        <time>2018-04-08T12:38:35Z</time>
      </trkpt>
      <trkpt lat="49.04277" lon="1.94283">
        <ele>34.14</ele>
        <time>2018-04-08T12:38:49Z</time>
      </trkpt>
      <trkpt lat="49.04281" lon="1.94284">
        <ele>34.26</ele>
        <time>2018-04-08T12:38:51Z</time>
      </trkpt>
      <trkpt lat="49.04297" lon="1.94281">
        <ele>34.54</ele>
        <time>2018-04-08T12:39:05Z</time>
      </trkpt>
      <trkpt lat="49.04314" lon="1.9428">
        <ele>33.61</ele>
        <time>2018-04-08T12:39:20Z</time>
      </trkpt>
      <trkpt lat="49.04331" lon="1.94282">
        <ele>33.81</ele>
        <time>2018-04-08T12:39:35Z</time>
      </trkpt>
      <trkpt lat="49.04336" lon="1.94282">
        <ele>33.17</ele>
        <time>2018-04-08T12:39:41Z</time>
      </trkpt>
      <trkpt lat="49.04339" lon="1.94279">
        <ele>34.05</ele>
        <time>2018-04-08T12:39:58Z</time>
      </trkpt>
      <trkpt lat="49.04341" lon="1.94275">
        <ele>33.93</ele>
        <time>2018-04-08T12:40:02Z</time>
      </trkpt>
      <trkpt lat="49.04343" lon="1.94275">
        <ele>33.7</ele>
        <time>2018-04-08T12:40:04Z</time>
      </trkpt>
      <trkpt lat="49.04348" lon="1.94275">
        <ele>34.1</ele>
        <time>2018-04-08T12:40:09Z</time>
      </trkpt>
      <trkpt lat="49.04357" lon="1.94275">
        <ele>33.85</ele>
        <time>2018-04-08T12:40:19Z</time>
      </trkpt>
      <trkpt lat="49.04369" lon="1.94276">
        <ele>33.84</ele>
        <time>2018-04-08T12:40:28Z</time>
      </trkpt>
      <trkpt lat="49.04376" lon="1.94282">
        <ele>34.17</ele>
        <time>2018-04-08T12:40:33Z</time>
      </trkpt>
      <trkpt lat="49.04396" lon="1.94292">
        <ele>35.15</ele>
        <time>2018-04-08T12:40:51Z</time>
      </trkpt>
      <trkpt lat="49.04401" lon="1.94296">
        <ele>35.14</ele>
        <time>2018-04-08T12:40:56Z</time>
      </trkpt>
      <trkpt lat="49.04407" lon="1.94298">
        <ele>35.62</ele>
        <time>2018-04-08T12:41:01Z</time>
      </trkpt>
      <trkpt lat="49.04412" lon="1.94299">
        <ele>35.52</ele>
        <time>2018-04-08T12:41:06Z</time>
      </trkpt>
      <trkpt lat="49.04426" lon="1.94311">
        <ele>36.73</ele>
        <time>2018-04-08T12:41:21Z</time>
      </trkpt>
      <trkpt lat="49.04434" lon="1.94314">
        <ele>36.69</ele>
        <time>2018-04-08T12:41:28Z</time>
      </trkpt>
      <trkpt lat="49.04453" lon="1.9432">
        <ele>37.35</ele>
        <time>2018-04-08T12:41:43Z</time>
      </trkpt>
      <trkpt lat="49.04463" lon="1.94322">
        <ele>37.68</ele>
        <time>2018-04-08T12:41:51Z</time>
      </trkpt>
      <trkpt lat="49.04484" lon="1.94325">
        <ele>37.86</ele>
        <time>2018-04-08T12:42:09Z</time>
      </trkpt>
      <trkpt lat="49.04489" lon="1.94327">
        <ele>37.99</ele>
        <time>2018-04-08T12:42:14Z</time>
      </trkpt>
      <trkpt lat="49.04506" lon="1.94329">
        <ele>37.87</ele>
        <time>2018-04-08T12:42:30Z</time>
      </trkpt>
      <trkpt lat="49.04516" lon="1.94328">
        <ele>37.87</ele>
        <time>2018-04-08T12:42:40Z</time>
      </trkpt>
      <trkpt lat="49.0452" lon="1.94328">
        <ele>38.18</ele>
        <time>2018-04-08T12:42:43Z</time>
      </trkpt>
      <trkpt lat="49.04537" lon="1.9433">
        <ele>37.61</ele>
        <time>2018-04-08T12:42:55Z</time>
      </trkpt>
      <trkpt lat="49.04546" lon="1.9433">
        <ele>38.51</ele>
        <time>2018-04-08T12:43:01Z</time>
      </trkpt>
      <trkpt lat="49.04563" lon="1.9433">
        <ele>37.77</ele>
        <time>2018-04-08T12:43:15Z</time>
      </trkpt>
      <trkpt lat="49.04579" lon="1.94326">
        <ele>38.31</ele>
        <time>2018-04-08T12:43:30Z</time>
      </trkpt>
      <trkpt lat="49.04592" lon="1.94324">
        <ele>38.16</ele>
        <time>2018-04-08T12:43:44Z</time>
      </trkpt>
      <trkpt lat="49.04595" lon="1.94325">
        <ele>38.63</ele>
        <time>2018-04-08T12:43:55Z</time>
      </trkpt>
      <trkpt lat="49.046" lon="1.94325">
        <ele>38.47</ele>
        <time>2018-04-08T12:44:00Z</time>
      </trkpt>
      <trkpt lat="49.04608" lon="1.94325">
        <ele>38.77</ele>
        <time>2018-04-08T12:44:14Z</time>
      </trkpt>
      <trkpt lat="49.04609" lon="1.94324">
        <ele>38.27</ele>
        <time>2018-04-08T12:44:22Z</time>
      </trkpt>
      <trkpt lat="49.04614" lon="1.94322">
        <ele>38.5</ele>
        <time>2018-04-08T12:44:26Z</time>
      </trkpt>
      <trkpt lat="49.04619" lon="1.94319">
        <ele>38.54</ele>
        <time>2018-04-08T12:44:31Z</time>
      </trkpt>
      <trkpt lat="49.04638" lon="1.94312">
        <ele>39.18</ele>
        <time>2018-04-08T12:44:48Z</time>
      </trkpt>
      <trkpt lat="49.04658" lon="1.94302">
        <ele>38.83</ele>
        <time>2018-04-08T12:45:06Z</time>
      </trkpt>
      <trkpt lat="49.04676" lon="1.94292">
        <ele>40.12</ele>
        <time>2018-04-08T12:45:23Z</time>
      </trkpt>
      <trkpt lat="49.04693" lon="1.94281">
        <ele>40.49</ele>
        <time>2018-04-08T12:45:40Z</time>
      </trkpt>
      <trkpt lat="49.04711" lon="1.9427">
        <ele>40.33</ele>
        <time>2018-04-08T12:45:57Z</time>
      </trkpt>
      <trkpt lat="49.04728" lon="1.94258">
        <ele>40.62</ele>
        <time>2018-04-08T12:46:15Z</time>
      </trkpt>
      <trkpt lat="49.04745" lon="1.94246">
        <ele>41.54</ele>
        <time>2018-04-08T12:46:32Z</time>
      </trkpt>
      <trkpt lat="49.04761" lon="1.94233">
        <ele>41.42</ele>
        <time>2018-04-08T12:46:48Z</time>
      </trkpt>
      <trkpt lat="49.04768" lon="1.94229">
        <ele>41.48</ele>
        <time>2018-04-08T12:47:01Z</time>
      </trkpt>
      <trkpt lat="49.04769" lon="1.94231">
        <ele>41.84</ele>
        <time>2018-04-08T12:47:03Z</time>
      </trkpt>
      <trkpt lat="49.04771" lon="1.94233">
        <ele>41.21</ele>
        <time>2018-04-08T12:47:05Z</time>
      </trkpt>
      <trkpt lat="49.04775" lon="1.94247">
        <ele>41.58</ele>
        <time>2018-04-08T12:47:17Z</time>
      </trkpt>
      <trkpt lat="49.04775" lon="1.94273">
        <ele>42.21</ele>
        <time>2018-04-08T12:47:33Z</time>
      </trkpt>
      <trkpt lat="49.04775" lon="1.94302">
        <ele>42.27</ele>
        <time>2018-04-08T12:47:50Z</time>
      </trkpt>
      <trkpt lat="49.04776" lon="1.94333">
        <ele>42.06</ele>
        <time>2018-04-08T12:48:08Z</time>
      </trkpt>
      <trkpt lat="49.04777" lon="1.94362">
        <ele>41.97</ele>
        <time>2018-04-08T12:48:26Z</time>
      </trkpt>
      <trkpt lat="49.04778" lon="1.94387">
        <ele>42.68</ele>
        <time>2018-04-08T12:48:42Z</time>
      </trkpt>
      <trkpt lat="49.04778" lon="1.94413">
        <ele>42.3</ele>
        <time>2018-04-08T12:48:57Z</time>
      </trkpt>
      <trkpt lat="49.0478" lon="1.9444">
        <ele>42.19</ele>
        <time>2018-04-08T12:49:13Z</time>
      </trkpt>
      <trkpt lat="49.0478" lon="1.94467">
        <ele>41.86</ele>
        <time>2018-04-08T12:49:29Z</time>
      </trkpt>
      <trkpt lat="49.0478" lon="1.94477">
        <ele>41.35</ele>
        <time>2018-04-08T12:49:35Z</time>
      </trkpt>
      <trkpt lat="49.04781" lon="1.94508">
        <ele>41.02</ele>
        <time>2018-04-08T12:49:52Z</time>
      </trkpt>
      <trkpt lat="49.04782" lon="1.94511">
        <ele>41.62</ele>
        <time>2018-04-08T12:49:54Z</time>
      </trkpt>
      <trkpt lat="49.04783" lon="1.9454">
        <ele>39.06</ele>
        <time>2018-04-08T12:50:11Z</time>
      </trkpt>
      <trkpt lat="49.04785" lon="1.94574">
        <ele>37.41</ele>
        <time>2018-04-08T12:50:29Z</time>
      </trkpt>
      <trkpt lat="49.04786" lon="1.94605">
        <ele>36.02</ele>
        <time>2018-04-08T12:50:45Z</time>
      </trkpt>
      <trkpt lat="49.04786" lon="1.94641">
        <ele>33.11</ele>
        <time>2018-04-08T12:51:04Z</time>
      </trkpt>
      <trkpt lat="49.04787" lon="1.94645">
        <ele>32.61</ele>
        <time>2018-04-08T12:51:07Z</time>
      </trkpt>
      <trkpt lat="49.04787" lon="1.94654">
        <ele>32.64</ele>
        <time>2018-04-08T12:51:13Z</time>
      </trkpt>
      <trkpt lat="49.04786" lon="1.94677">
        <ele>32.02</ele>
        <time>2018-04-08T12:51:29Z</time>
      </trkpt>
      <trkpt lat="49.04789" lon="1.94686">
        <ele>32.27</ele>
        <time>2018-04-08T12:51:34Z</time>
      </trkpt>
      <trkpt lat="49.04799" lon="1.94694">
        <ele>32.23</ele>
        <time>2018-04-08T12:51:45Z</time>
      </trkpt>
      <trkpt lat="49.04821" lon="1.94703">
        <ele>32.14</ele>
        <time>2018-04-08T12:52:01Z</time>
      </trkpt>
      <trkpt lat="49.04846" lon="1.94709">
        <ele>32.18</ele>
        <time>2018-04-08T12:52:21Z</time>
      </trkpt>
      <trkpt lat="49.04863" lon="1.94707">
        <ele>32.67</ele>
        <time>2018-04-08T12:52:37Z</time>
      </trkpt>
      <trkpt lat="49.04878" lon="1.94706">
        <ele>32.81</ele>
        <time>2018-04-08T12:52:52Z</time>
      </trkpt>
      <trkpt lat="49.04896" lon="1.94703">
        <ele>33.26</ele>
        <time>2018-04-08T12:53:07Z</time>
      </trkpt>
      <trkpt lat="49.04913" lon="1.947">
        <ele>33.09</ele>
        <time>2018-04-08T12:53:23Z</time>
      </trkpt>
      <trkpt lat="49.04934" lon="1.94693">
        <ele>32.9</ele>
        <time>2018-04-08T12:53:42Z</time>
      </trkpt>
      <trkpt lat="49.04945" lon="1.94691">
        <ele>33.07</ele>
        <time>2018-04-08T12:53:59Z</time>
      </trkpt>
      <trkpt lat="49.04954" lon="1.94695">
        <ele>32.8</ele>
        <time>2018-04-08T12:54:16Z</time>
      </trkpt>
      <trkpt lat="49.04974" lon="1.94709">
        <ele>33.33</ele>
        <time>2018-04-08T12:54:36Z</time>
      </trkpt>
      <trkpt lat="49.04978" lon="1.94716">
        <ele>33.02</ele>
        <time>2018-04-08T12:54:42Z</time>
      </trkpt>
      <trkpt lat="49.04991" lon="1.94738">
        <ele>33.11</ele>
        <time>2018-04-08T12:55:02Z</time>
      </trkpt>
      <trkpt lat="49.04999" lon="1.94754">
        <ele>33.33</ele>
        <time>2018-04-08T12:55:13Z</time>
      </trkpt>
      <trkpt lat="49.05002" lon="1.94758">
        <ele>33.3</ele>
        <time>2018-04-08T12:55:15Z</time>
      </trkpt>
      <trkpt lat="49.05008" lon="1.94768">
        <ele>33.3</ele>
        <time>2018-04-08T12:55:21Z</time>
      </trkpt>
      <trkpt lat="49.05012" lon="1.94777">
        <ele>33.68</ele>
        <time>2018-04-08T12:55:28Z</time>
      </trkpt>
      <trkpt lat="49.05019" lon="1.9479">
        <ele>33.41</ele>
        <time>2018-04-08T12:55:36Z</time>
      </trkpt>
      <trkpt lat="49.05031" lon="1.94815">
        <ele>33.27</ele>
        <time>2018-04-08T12:55:53Z</time>
      </trkpt>
      <trkpt lat="49.05042" lon="1.94836">
        <ele>33.15</ele>
        <time>2018-04-08T12:56:07Z</time>
      </trkpt>
      <trkpt lat="49.05058" lon="1.94847">
        <ele>33.25</ele>
        <time>2018-04-08T12:56:23Z</time>
      </trkpt>
      <trkpt lat="49.05061" lon="1.94853">
        <ele>33.22</ele>
        <time>2018-04-08T12:56:27Z</time>
      </trkpt>
      <trkpt lat="49.05083" lon="1.94878">
        <ele>34.39</ele>
        <time>2018-04-08T12:56:50Z</time>
      </trkpt>
      <trkpt lat="49.0509" lon="1.94878">
        <ele>34.89</ele>
        <time>2018-04-08T12:56:56Z</time>
      </trkpt>
      <trkpt lat="49.05106" lon="1.94853">
        <ele>34.69</ele>
        <time>2018-04-08T12:57:17Z</time>
      </trkpt>
      <trkpt lat="49.05119" lon="1.94831">
        <ele>34.84</ele>
        <time>2018-04-08T12:57:35Z</time>
      </trkpt>
      <trkpt lat="49.05128" lon="1.9481">
        <ele>34.92</ele>
        <time>2018-04-08T12:57:49Z</time>
      </trkpt>
      <trkpt lat="49.05131" lon="1.94804">
        <ele>35.14</ele>
        <time>2018-04-08T12:57:53Z</time>
      </trkpt>
      <trkpt lat="49.05139" lon="1.94788">
        <ele>35.11</ele>
        <time>2018-04-08T12:58:08Z</time>
      </trkpt>
      <trkpt lat="49.05152" lon="1.94774">
        <ele>35.57</ele>
        <time>2018-04-08T12:58:22Z</time>
      </trkpt>
      <trkpt lat="49.05157" lon="1.94771">
        <ele>35.7</ele>
        <time>2018-04-08T12:58:26Z</time>
      </trkpt>
      <trkpt lat="49.0517" lon="1.94756">
        <ele>36.34</ele>
        <time>2018-04-08T12:58:44Z</time>
      </trkpt>
      <trkpt lat="49.05182" lon="1.94741">
        <ele>36.69</ele>
        <time>2018-04-08T12:58:58Z</time>
      </trkpt>
      <trkpt lat="49.05196" lon="1.94719">
        <ele>37.06</ele>
        <time>2018-04-08T12:59:17Z</time>
      </trkpt>
      <trkpt lat="49.05206" lon="1.94702">
        <ele>37.21</ele>
        <time>2018-04-08T12:59:31Z</time>
      </trkpt>
      <trkpt lat="49.05217" lon="1.94682">
        <ele>37.04</ele>
        <time>2018-04-08T12:59:42Z</time>
      </trkpt>
      <trkpt lat="49.0523" lon="1.94659">
        <ele>36.84</ele>
        <time>2018-04-08T12:59:57Z</time>
      </trkpt>
      <trkpt lat="49.05232" lon="1.94656">
        <ele>37.02</ele>
        <time>2018-04-08T12:59:59Z</time>
      </trkpt>
      <trkpt lat="49.05239" lon="1.94638">
        <ele>36.31</ele>
        <time>2018-04-08T13:00:12Z</time>
      </trkpt>
      <trkpt lat="49.05251" lon="1.94614">
        <ele>36.69</ele>
        <time>2018-04-08T13:00:29Z</time>
      </trkpt>
      <trkpt lat="49.05254" lon="1.94605">
        <ele>36.61</ele>
        <time>2018-04-08T13:00:35Z</time>
      </trkpt>
      <trkpt lat="49.05264" lon="1.94591">
        <ele>36.62</ele>
        <time>2018-04-08T13:00:53Z</time>
      </trkpt>
      <trkpt lat="49.05265" lon="1.9459">
        <ele>36.3</ele>
        <time>2018-04-08T13:00:54Z</time>
      </trkpt>
      <trkpt lat="49.05267" lon="1.94587">
        <ele>36.56</ele>
        <time>2018-04-08T13:01:09Z</time>
      </trkpt>
      <trkpt lat="49.05267" lon="1.94587">
        <ele>36.05</ele>
        <time>2018-04-08T13:01:32Z</time>
      </trkpt>
      <trkpt lat="49.05269" lon="1.94585">
        <ele>36.69</ele>
        <time>2018-04-08T13:02:01Z</time>
      </trkpt>
      <trkpt lat="49.05283" lon="1.94564">
        <ele>36.18</ele>
        <time>2018-04-08T13:02:23Z</time>
      </trkpt>
      <trkpt lat="49.05289" lon="1.94545">
        <ele>37.05</ele>
        <time>2018-04-08T13:02:37Z</time>
      </trkpt>
      <trkpt lat="49.05299" lon="1.94518">
        <ele>36.12</ele>
        <time>2018-04-08T13:02:51Z</time>
      </trkpt>
      <trkpt lat="49.05313" lon="1.94494">
        <ele>36.13</ele>
        <time>2018-04-08T13:03:07Z</time>
      </trkpt>
      <trkpt lat="49.05316" lon="1.94485">
        <ele>36.3</ele>
        <time>2018-04-08T13:03:12Z</time>
      </trkpt>
      <trkpt lat="49.05329" lon="1.94459">
        <ele>36.06</ele>
        <time>2018-04-08T13:03:30Z</time>
      </trkpt>
      <trkpt lat="49.0534" lon="1.94438">
        <ele>36.15</ele>
        <time>2018-04-08T13:03:45Z</time>
      </trkpt>
      <trkpt lat="49.05347" lon="1.94414">
        <ele>36.24</ele>
        <time>2018-04-08T13:04:02Z</time>
      </trkpt>
      <trkpt lat="49.05354" lon="1.94397">
        <ele>35.61</ele>
        <time>2018-04-08T13:04:14Z</time>
      </trkpt>
      <trkpt lat="49.05359" lon="1.94388">
        <ele>35.44</ele>
        <time>2018-04-08T13:04:21Z</time>
      </trkpt>
      <trkpt lat="49.05364" lon="1.94368">
        <ele>35.88</ele>
        <time>2018-04-08T13:04:32Z</time>
      </trkpt>
      <trkpt lat="49.05368" lon="1.94357">
        <ele>35.99</ele>
        <time>2018-04-08T13:04:38Z</time>
      </trkpt>
      <trkpt lat="49.05371" lon="1.9435">
        <ele>35.59</ele>
        <time>2018-04-08T13:04:43Z</time>
      </trkpt>
      <trkpt lat="49.05373" lon="1.94343">
        <ele>35.25</ele>
        <time>2018-04-08T13:04:47Z</time>
      </trkpt>
      <trkpt lat="49.05375" lon="1.94337">
        <ele>36.17</ele>
        <time>2018-04-08T13:04:51Z</time>
      </trkpt>
      <trkpt lat="49.05376" lon="1.94326">
        <ele>35.46</ele>
        <time>2018-04-08T13:04:57Z</time>
      </trkpt>
      <trkpt lat="49.05382" lon="1.94308">
        <ele>35.85</ele>
        <time>2018-04-08T13:05:07Z</time>
      </trkpt>
      <trkpt lat="49.05384" lon="1.94301">
        <ele>35.68</ele>
        <time>2018-04-08T13:05:11Z</time>
      </trkpt>
      <trkpt lat="49.05389" lon="1.94272">
        <ele>35.84</ele>
        <time>2018-04-08T13:05:27Z</time>
      </trkpt>
      <trkpt lat="49.0539" lon="1.94268">
        <ele>35.86</ele>
        <time>2018-04-08T13:05:29Z</time>
      </trkpt>
      <trkpt lat="49.05391" lon="1.94263">
        <ele>35.82</ele>
        <time>2018-04-08T13:05:32Z</time>
      </trkpt>
      <trkpt lat="49.05393" lon="1.94252">
        <ele>35.68</ele>
        <time>2018-04-08T13:05:38Z</time>
      </trkpt>
      <trkpt lat="49.05393" lon="1.94231">
        <ele>35.89</ele>
        <time>2018-04-08T13:05:51Z</time>
      </trkpt>
      <trkpt lat="49.05397" lon="1.94209">
        <ele>36.11</ele>
        <time>2018-04-08T13:06:05Z</time>
      </trkpt>
      <trkpt lat="49.05402" lon="1.9419">
        <ele>36.38</ele>
        <time>2018-04-08T13:06:20Z</time>
      </trkpt>
      <trkpt lat="49.05404" lon="1.94186">
        <ele>36.36</ele>
        <time>2018-04-08T13:06:22Z</time>
      </trkpt>
      <trkpt lat="49.05408" lon="1.94165">
        <ele>36.41</ele>
        <time>2018-04-08T13:06:36Z</time>
      </trkpt>
      <trkpt lat="49.05409" lon="1.94158">
        <ele>36.12</ele>
        <time>2018-04-08T13:06:40Z</time>
      </trkpt>
      <trkpt lat="49.05414" lon="1.94129">
        <ele>36.02</ele>
        <time>2018-04-08T13:06:55Z</time>
      </trkpt>
      <trkpt lat="49.05418" lon="1.94099">
        <ele>35.92</ele>
        <time>2018-04-08T13:07:12Z</time>
      </trkpt>
      <trkpt lat="49.05424" lon="1.94073">
        <ele>35.45</ele>
        <time>2018-04-08T13:07:27Z</time>
      </trkpt>
      <trkpt lat="49.05426" lon="1.94066">
        <ele>35.33</ele>
        <time>2018-04-08T13:07:30Z</time>
      </trkpt>
      <trkpt lat="49.05442" lon="1.94043">
        <ele>35.34</ele>
        <time>2018-04-08T13:07:45Z</time>
      </trkpt>
      <trkpt lat="49.05445" lon="1.94039">
        <ele>34.9</ele>
        <time>2018-04-08T13:07:48Z</time>
      </trkpt>
      <trkpt lat="49.05449" lon="1.94032">
        <ele>35.19</ele>
        <time>2018-04-08T13:07:52Z</time>
      </trkpt>
      <trkpt lat="49.05455" lon="1.94019">
        <ele>35.03</ele>
        <time>2018-04-08T13:08:00Z</time>
      </trkpt>
      <trkpt lat="49.05458" lon="1.94005">
        <ele>35.47</ele>
        <time>2018-04-08T13:08:07Z</time>
      </trkpt>
      <trkpt lat="49.05467" lon="1.93975">
        <ele>34.99</ele>
        <time>2018-04-08T13:08:24Z</time>
      </trkpt>
      <trkpt lat="49.05476" lon="1.9395">
        <ele>35</ele>
        <time>2018-04-08T13:08:38Z</time>
      </trkpt>
      <trkpt lat="49.0549" lon="1.93923">
        <ele>35.31</ele>
        <time>2018-04-08T13:08:54Z</time>
      </trkpt>
      <trkpt lat="49.055" lon="1.93897">
        <ele>35.05</ele>
        <time>2018-04-08T13:09:11Z</time>
      </trkpt>
      <trkpt lat="49.05501" lon="1.93895">
        <ele>35.63</ele>
        <time>2018-04-08T13:09:13Z</time>
      </trkpt>
      <trkpt lat="49.05502" lon="1.93885">
        <ele>34.71</ele>
        <time>2018-04-08T13:09:19Z</time>
      </trkpt>
      <trkpt lat="49.05503" lon="1.93882">
        <ele>35.42</ele>
        <time>2018-04-08T13:09:21Z</time>
      </trkpt>
      <trkpt lat="49.05504" lon="1.93879">
        <ele>35.4</ele>
        <time>2018-04-08T13:09:23Z</time>
      </trkpt>
      <trkpt lat="49.05513" lon="1.93857">
        <ele>35.26</ele>
        <time>2018-04-08T13:09:38Z</time>
      </trkpt>
      <trkpt lat="49.0552" lon="1.93845">
        <ele>35.12</ele>
        <time>2018-04-08T13:09:47Z</time>
      </trkpt>
      <trkpt lat="49.05525" lon="1.9383">
        <ele>35.45</ele>
        <time>2018-04-08T13:09:56Z</time>
      </trkpt>
      <trkpt lat="49.05536" lon="1.93813">
        <ele>35.19</ele>
        <time>2018-04-08T13:10:09Z</time>
      </trkpt>
      <trkpt lat="49.05545" lon="1.93796">
        <ele>35.01</ele>
        <time>2018-04-08T13:10:23Z</time>
      </trkpt>
      <trkpt lat="49.05555" lon="1.93784">
        <ele>35.32</ele>
        <time>2018-04-08T13:10:35Z</time>
      </trkpt>
      <trkpt lat="49.05568" lon="1.93764">
        <ele>35.75</ele>
        <time>2018-04-08T13:10:50Z</time>
      </trkpt>
      <trkpt lat="49.05582" lon="1.93744">
        <ele>35.51</ele>
        <time>2018-04-08T13:11:06Z</time>
      </trkpt>
      <trkpt lat="49.05584" lon="1.93741">
        <ele>35.41</ele>
        <time>2018-04-08T13:11:08Z</time>
      </trkpt>
      <trkpt lat="49.05599" lon="1.93722">
        <ele>35.73</ele>
        <time>2018-04-08T13:11:24Z</time>
      </trkpt>
      <trkpt lat="49.05609" lon="1.93708">
        <ele>35.76</ele>
        <time>2018-04-08T13:11:38Z</time>
      </trkpt>
      <trkpt lat="49.05625" lon="1.93683">
        <ele>36.25</ele>
        <time>2018-04-08T13:11:57Z</time>
      </trkpt>
      <trkpt lat="49.05627" lon="1.9368">
        <ele>35.82</ele>
        <time>2018-04-08T13:11:59Z</time>
      </trkpt>
      <trkpt lat="49.05639" lon="1.93657">
        <ele>35.8</ele>
        <time>2018-04-08T13:12:13Z</time>
      </trkpt>
      <trkpt lat="49.05651" lon="1.93646">
        <ele>35.53</ele>
        <time>2018-04-08T13:12:26Z</time>
      </trkpt>
      <trkpt lat="49.05657" lon="1.93639">
        <ele>35.58</ele>
        <time>2018-04-08T13:12:33Z</time>
      </trkpt>
      <trkpt lat="49.05658" lon="1.93637">
        <ele>35.27</ele>
        <time>2018-04-08T13:12:35Z</time>
      </trkpt>
      <trkpt lat="49.05668" lon="1.93618">
        <ele>35.01</ele>
        <time>2018-04-08T13:12:50Z</time>
      </trkpt>
      <trkpt lat="49.05672" lon="1.9361">
        <ele>35.57</ele>
        <time>2018-04-08T13:13:00Z</time>
      </trkpt>
      <trkpt lat="49.05676" lon="1.93604">
        <ele>35.26</ele>
        <time>2018-04-08T13:13:05Z</time>
      </trkpt>
      <trkpt lat="49.05694" lon="1.93591">
        <ele>35.62</ele>
        <time>2018-04-08T13:13:20Z</time>
      </trkpt>
      <trkpt lat="49.05713" lon="1.93584">
        <ele>35.91</ele>
        <time>2018-04-08T13:13:38Z</time>
      </trkpt>
      <trkpt lat="49.0573" lon="1.93573">
        <ele>35.69</ele>
        <time>2018-04-08T13:13:53Z</time>
      </trkpt>
      <trkpt lat="49.05733" lon="1.93572">
        <ele>35.54</ele>
        <time>2018-04-08T13:13:55Z</time>
      </trkpt>
      <trkpt lat="49.05746" lon="1.9356">
        <ele>35.64</ele>
        <time>2018-04-08T13:14:10Z</time>
      </trkpt>
      <trkpt lat="49.0576" lon="1.93547">
        <ele>35.44</ele>
        <time>2018-04-08T13:14:25Z</time>
      </trkpt>
      <trkpt lat="49.05781" lon="1.9353">
        <ele>35.53</ele>
        <time>2018-04-08T13:14:44Z</time>
      </trkpt>
      <trkpt lat="49.05786" lon="1.93505">
        <ele>36.12</ele>
        <time>2018-04-08T13:15:02Z</time>
      </trkpt>
      <trkpt lat="49.05789" lon="1.93502">
        <ele>35.44</ele>
        <time>2018-04-08T13:15:05Z</time>
      </trkpt>
      <trkpt lat="49.05803" lon="1.93496">
        <ele>35.46</ele>
        <time>2018-04-08T13:15:17Z</time>
      </trkpt>
      <trkpt lat="49.05815" lon="1.93491">
        <ele>36.3</ele>
        <time>2018-04-08T13:15:32Z</time>
      </trkpt>
      <trkpt lat="49.05826" lon="1.9348">
        <ele>35.47</ele>
        <time>2018-04-08T13:15:43Z</time>
      </trkpt>
      <trkpt lat="49.05845" lon="1.93465">
        <ele>34.76</ele>
        <time>2018-04-08T13:16:00Z</time>
      </trkpt>
      <trkpt lat="49.05849" lon="1.93461">
        <ele>35.92</ele>
        <time>2018-04-08T13:16:05Z</time>
      </trkpt>
      <trkpt lat="49.05872" lon="1.93448">
        <ele>35.78</ele>
        <time>2018-04-08T13:16:26Z</time>
      </trkpt>
      <trkpt lat="49.05893" lon="1.93441">
        <ele>35.62</ele>
        <time>2018-04-08T13:16:42Z</time>
      </trkpt>
      <trkpt lat="49.059" lon="1.93437">
        <ele>35.83</ele>
        <time>2018-04-08T13:16:47Z</time>
      </trkpt>
      <trkpt lat="49.05919" lon="1.93433">
        <ele>35.26</ele>
        <time>2018-04-08T13:17:02Z</time>
      </trkpt>
      <trkpt lat="49.05929" lon="1.93423">
        <ele>35.89</ele>
        <time>2018-04-08T13:17:15Z</time>
      </trkpt>
      <trkpt lat="49.05936" lon="1.93415">
        <ele>35.54</ele>
        <time>2018-04-08T13:17:35Z</time>
      </trkpt>
      <trkpt lat="49.05951" lon="1.93406">
        <ele>35.1</ele>
        <time>2018-04-08T13:17:52Z</time>
      </trkpt>
      <trkpt lat="49.05957" lon="1.93405">
        <ele>35.38</ele>
        <time>2018-04-08T13:18:13Z</time>
      </trkpt>
      <trkpt lat="49.05957" lon="1.93405">
        <ele>35.07</ele>
        <time>2018-04-08T13:18:42Z</time>
      </trkpt>
      <trkpt lat="49.05958" lon="1.93404">
        <ele>35.76</ele>
        <time>2018-04-08T13:19:11Z</time>
      </trkpt>
      <trkpt lat="49.05959" lon="1.93403">
        <ele>35.07</ele>
        <time>2018-04-08T13:19:37Z</time>
      </trkpt>
      <trkpt lat="49.05959" lon="1.93401">
        <ele>35.8</ele>
        <time>2018-04-08T13:19:59Z</time>
      </trkpt>
      <trkpt lat="49.05963" lon="1.93398">
        <ele>35.79</ele>
        <time>2018-04-08T13:20:15Z</time>
      </trkpt>
      <trkpt lat="49.05965" lon="1.93394">
        <ele>35.72</ele>
        <time>2018-04-08T13:20:28Z</time>
      </trkpt>
      <trkpt lat="49.05961" lon="1.93396">
        <ele>35.8</ele>
        <time>2018-04-08T13:20:44Z</time>
      </trkpt>
      <trkpt lat="49.05964" lon="1.93393">
        <ele>36.05</ele>
        <time>2018-04-08T13:21:10Z</time>
      </trkpt>
      <trkpt lat="49.05965" lon="1.93392">
        <ele>35.83</ele>
        <time>2018-04-08T13:21:11Z</time>
      </trkpt>
      <trkpt lat="49.0597" lon="1.93367">
        <ele>35.14</ele>
        <time>2018-04-08T13:21:27Z</time>
      </trkpt>
      <trkpt lat="49.0597" lon="1.93358">
        <ele>35.11</ele>
        <time>2018-04-08T13:21:33Z</time>
      </trkpt>
      <trkpt lat="49.05972" lon="1.93343">
        <ele>34.69</ele>
        <time>2018-04-08T13:21:44Z</time>
      </trkpt>
      <trkpt lat="49.05973" lon="1.93336">
        <ele>34.89</ele>
        <time>2018-04-08T13:21:48Z</time>
      </trkpt>
      <trkpt lat="49.05974" lon="1.93321">
        <ele>34.81</ele>
        <time>2018-04-08T13:21:59Z</time>
      </trkpt>
      <trkpt lat="49.05975" lon="1.93316">
        <ele>34.85</ele>
        <time>2018-04-08T13:22:02Z</time>
      </trkpt>
      <trkpt lat="49.05976" lon="1.93309">
        <ele>35.12</ele>
        <time>2018-04-08T13:22:06Z</time>
      </trkpt>
      <trkpt lat="49.0598" lon="1.93284">
        <ele>35.74</ele>
        <time>2018-04-08T13:22:23Z</time>
      </trkpt>
      <trkpt lat="49.05976" lon="1.93255">
        <ele>36.37</ele>
        <time>2018-04-08T13:22:39Z</time>
      </trkpt>
      <trkpt lat="49.05976" lon="1.93251">
        <ele>36.71</ele>
        <time>2018-04-08T13:22:42Z</time>
      </trkpt>
      <trkpt lat="49.05975" lon="1.93238">
        <ele>36.9</ele>
        <time>2018-04-08T13:22:51Z</time>
      </trkpt>
      <trkpt lat="49.05977" lon="1.93217">
        <ele>37.39</ele>
        <time>2018-04-08T13:23:07Z</time>
      </trkpt>
      <trkpt lat="49.05982" lon="1.9319">
        <ele>38.51</ele>
        <time>2018-04-08T13:23:26Z</time>
      </trkpt>
      <trkpt lat="49.05986" lon="1.93147">
        <ele>39.74</ele>
        <time>2018-04-08T13:23:48Z</time>
      </trkpt>
      <trkpt lat="49.05992" lon="1.93137">
        <ele>40.2</ele>
        <time>2018-04-08T13:24:05Z</time>
      </trkpt>
      <trkpt lat="49.05996" lon="1.93134">
        <ele>39.93</ele>
        <time>2018-04-08T13:24:12Z</time>
      </trkpt>
      <trkpt lat="49.06" lon="1.93134">
        <ele>39.82</ele>
        <time>2018-04-08T13:24:16Z</time>
      </trkpt>
      <trkpt lat="49.06022" lon="1.93132">
        <ele>39.28</ele>
        <time>2018-04-08T13:24:36Z</time>
      </trkpt>
      <trkpt lat="49.06028" lon="1.93132">
        <ele>39.33</ele>
        <time>2018-04-08T13:24:42Z</time>
      </trkpt>
      <trkpt lat="49.06044" lon="1.93128">
        <ele>38.81</ele>
        <time>2018-04-08T13:24:56Z</time>
      </trkpt>
      <trkpt lat="49.0605" lon="1.93128">
        <ele>38.58</ele>
        <time>2018-04-08T13:25:10Z</time>
      </trkpt>
      <trkpt lat="49.06044" lon="1.93126">
        <ele>38.9</ele>
        <time>2018-04-08T13:25:39Z</time>
      </trkpt>
      <trkpt lat="49.06051" lon="1.93128">
        <ele>37.93</ele>
        <time>2018-04-08T13:25:59Z</time>
      </trkpt>
      <trkpt lat="49.06055" lon="1.93126">
        <ele>38.2</ele>
        <time>2018-04-08T13:26:06Z</time>
      </trkpt>
      <trkpt lat="49.06068" lon="1.93125">
        <ele>38.05</ele>
        <time>2018-04-08T13:26:21Z</time>
      </trkpt>
      <trkpt lat="49.06082" lon="1.93126">
        <ele>38.43</ele>
        <time>2018-04-08T13:26:37Z</time>
      </trkpt>
      <trkpt lat="49.06087" lon="1.93127">
        <ele>38.64</ele>
        <time>2018-04-08T13:26:41Z</time>
      </trkpt>
      <trkpt lat="49.06105" lon="1.93131">
        <ele>38.58</ele>
        <time>2018-04-08T13:26:57Z</time>
      </trkpt>
      <trkpt lat="49.06123" lon="1.93135">
        <ele>39</ele>
        <time>2018-04-08T13:27:15Z</time>
      </trkpt>
      <trkpt lat="49.06128" lon="1.93137">
        <ele>39</ele>
        <time>2018-04-08T13:27:22Z</time>
      </trkpt>
      <trkpt lat="49.06131" lon="1.93138">
        <ele>38.89</ele>
        <time>2018-04-08T13:27:25Z</time>
      </trkpt>
      <trkpt lat="49.06155" lon="1.93143">
        <ele>38.36</ele>
        <time>2018-04-08T13:27:44Z</time>
      </trkpt>
      <trkpt lat="49.06172" lon="1.93147">
        <ele>38.71</ele>
        <time>2018-04-08T13:27:57Z</time>
      </trkpt>
      <trkpt lat="49.06175" lon="1.93147">
        <ele>38.71</ele>
        <time>2018-04-08T13:28:00Z</time>
      </trkpt>
      <trkpt lat="49.06179" lon="1.93147">
        <ele>38.75</ele>
        <time>2018-04-08T13:28:04Z</time>
      </trkpt>
      <trkpt lat="49.06192" lon="1.93149">
        <ele>39.28</ele>
        <time>2018-04-08T13:28:19Z</time>
      </trkpt>
      <trkpt lat="49.06197" lon="1.93147">
        <ele>39.76</ele>
        <time>2018-04-08T13:28:41Z</time>
      </trkpt>
      <trkpt lat="49.06203" lon="1.93139">
        <ele>39.77</ele>
        <time>2018-04-08T13:28:59Z</time>
      </trkpt>
      <trkpt lat="49.06209" lon="1.93136">
        <ele>39.54</ele>
        <time>2018-04-08T13:29:17Z</time>
      </trkpt>
      <trkpt lat="49.06218" lon="1.9314">
        <ele>40.65</ele>
        <time>2018-04-08T13:29:33Z</time>
      </trkpt>
      <trkpt lat="49.06238" lon="1.9314">
        <ele>40.59</ele>
        <time>2018-04-08T13:29:50Z</time>
      </trkpt>
      <trkpt lat="49.06256" lon="1.93128">
        <ele>40.44</ele>
        <time>2018-04-08T13:30:07Z</time>
      </trkpt>
      <trkpt lat="49.06273" lon="1.93109">
        <ele>40.84</ele>
        <time>2018-04-08T13:30:27Z</time>
      </trkpt>
      <trkpt lat="49.06279" lon="1.93088">
        <ele>40.9</ele>
        <time>2018-04-08T13:30:43Z</time>
      </trkpt>
      <trkpt lat="49.06276" lon="1.9307">
        <ele>40.99</ele>
        <time>2018-04-08T13:30:54Z</time>
      </trkpt>
      <trkpt lat="49.06274" lon="1.93058">
        <ele>40.79</ele>
        <time>2018-04-08T13:31:01Z</time>
      </trkpt>
      <trkpt lat="49.06271" lon="1.93049">
        <ele>41.3</ele>
        <time>2018-04-08T13:31:08Z</time>
      </trkpt>
      <trkpt lat="49.06263" lon="1.93028">
        <ele>41.55</ele>
        <time>2018-04-08T13:31:25Z</time>
      </trkpt>
      <trkpt lat="49.06261" lon="1.93018">
        <ele>41.87</ele>
        <time>2018-04-08T13:31:32Z</time>
      </trkpt>
      <trkpt lat="49.06261" lon="1.93007">
        <ele>42.47</ele>
        <time>2018-04-08T13:31:38Z</time>
      </trkpt>
      <trkpt lat="49.06257" lon="1.92976">
        <ele>43.23</ele>
        <time>2018-04-08T13:31:55Z</time>
      </trkpt>
      <trkpt lat="49.06254" lon="1.92966">
        <ele>43.29</ele>
        <time>2018-04-08T13:32:02Z</time>
      </trkpt>
      <trkpt lat="49.06249" lon="1.92942">
        <ele>43.16</ele>
        <time>2018-04-08T13:32:16Z</time>
      </trkpt>
      <trkpt lat="49.0625" lon="1.92916">
        <ele>43.73</ele>
        <time>2018-04-08T13:32:31Z</time>
      </trkpt>
      <trkpt lat="49.06247" lon="1.92898">
        <ele>44.83</ele>
        <time>2018-04-08T13:32:45Z</time>
      </trkpt>
      <trkpt lat="49.06245" lon="1.92893">
        <ele>44.89</ele>
        <time>2018-04-08T13:32:49Z</time>
      </trkpt>
      <trkpt lat="49.06244" lon="1.92875">
        <ele>45.35</ele>
        <time>2018-04-08T13:32:59Z</time>
      </trkpt>
      <trkpt lat="49.06243" lon="1.92871">
        <ele>44.82</ele>
        <time>2018-04-08T13:33:01Z</time>
      </trkpt>
      <trkpt lat="49.06241" lon="1.92839">
        <ele>45.51</ele>
        <time>2018-04-08T13:33:17Z</time>
      </trkpt>
      <trkpt lat="49.06238" lon="1.92818">
        <ele>45.98</ele>
        <time>2018-04-08T13:33:30Z</time>
      </trkpt>
      <trkpt lat="49.06236" lon="1.92797">
        <ele>46.57</ele>
        <time>2018-04-08T13:33:43Z</time>
      </trkpt>
      <trkpt lat="49.06236" lon="1.92785">
        <ele>46.73</ele>
        <time>2018-04-08T13:33:50Z</time>
      </trkpt>
      <trkpt lat="49.06236" lon="1.92775">
        <ele>46.8</ele>
        <time>2018-04-08T13:33:55Z</time>
      </trkpt>
      <trkpt lat="49.06233" lon="1.92744">
        <ele>47.12</ele>
        <time>2018-04-08T13:34:11Z</time>
      </trkpt>
      <trkpt lat="49.0623" lon="1.92715">
        <ele>47.66</ele>
        <time>2018-04-08T13:34:28Z</time>
      </trkpt>
      <trkpt lat="49.06226" lon="1.92682">
        <ele>48.42</ele>
        <time>2018-04-08T13:34:47Z</time>
      </trkpt>
      <trkpt lat="49.06222" lon="1.92663">
        <ele>49.06</ele>
        <time>2018-04-08T13:35:01Z</time>
      </trkpt>
      <trkpt lat="49.06221" lon="1.92658">
        <ele>49.18</ele>
        <time>2018-04-08T13:35:04Z</time>
      </trkpt>
      <trkpt lat="49.0622" lon="1.92649">
        <ele>49.57</ele>
        <time>2018-04-08T13:35:09Z</time>
      </trkpt>
      <trkpt lat="49.06216" lon="1.9262">
        <ele>50.59</ele>
        <time>2018-04-08T13:35:25Z</time>
      </trkpt>
      <trkpt lat="49.06213" lon="1.92593">
        <ele>50.53</ele>
        <time>2018-04-08T13:35:40Z</time>
      </trkpt>
      <trkpt lat="49.06211" lon="1.92582">
        <ele>51.12</ele>
        <time>2018-04-08T13:35:54Z</time>
      </trkpt>
      <trkpt lat="49.06209" lon="1.92563">
        <ele>52.08</ele>
        <time>2018-04-08T13:36:08Z</time>
      </trkpt>
      <trkpt lat="49.06206" lon="1.92527">
        <ele>51.86</ele>
        <time>2018-04-08T13:36:29Z</time>
      </trkpt>
      <trkpt lat="49.06203" lon="1.92503">
        <ele>52.63</ele>
        <time>2018-04-08T13:36:44Z</time>
      </trkpt>
      <trkpt lat="49.06202" lon="1.92493">
        <ele>53.15</ele>
        <time>2018-04-08T13:36:50Z</time>
      </trkpt>
      <trkpt lat="49.06199" lon="1.92468">
        <ele>53.71</ele>
        <time>2018-04-08T13:37:04Z</time>
      </trkpt>
      <trkpt lat="49.06197" lon="1.92443">
        <ele>54.32</ele>
        <time>2018-04-08T13:37:18Z</time>
      </trkpt>
      <trkpt lat="49.06196" lon="1.92427">
        <ele>54.59</ele>
        <time>2018-04-08T13:37:27Z</time>
      </trkpt>
      <trkpt lat="49.06195" lon="1.924">
        <ele>55.15</ele>
        <time>2018-04-08T13:37:43Z</time>
      </trkpt>
      <trkpt lat="49.06195" lon="1.9238">
        <ele>55.29</ele>
        <time>2018-04-08T13:37:54Z</time>
      </trkpt>
      <trkpt lat="49.06197" lon="1.92361">
        <ele>55.36</ele>
        <time>2018-04-08T13:38:06Z</time>
      </trkpt>
      <trkpt lat="49.06196" lon="1.92337">
        <ele>55.29</ele>
        <time>2018-04-08T13:38:20Z</time>
      </trkpt>
      <trkpt lat="49.06195" lon="1.92317">
        <ele>55.34</ele>
        <time>2018-04-08T13:38:31Z</time>
      </trkpt>
      <trkpt lat="49.06198" lon="1.92288">
        <ele>55.81</ele>
        <time>2018-04-08T13:38:47Z</time>
      </trkpt>
      <trkpt lat="49.06198" lon="1.92275">
        <ele>55.89</ele>
        <time>2018-04-08T13:38:54Z</time>
      </trkpt>
      <trkpt lat="49.06196" lon="1.92242">
        <ele>56.11</ele>
        <time>2018-04-08T13:39:11Z</time>
      </trkpt>
      <trkpt lat="49.06197" lon="1.92216">
        <ele>56.32</ele>
        <time>2018-04-08T13:39:25Z</time>
      </trkpt>
      <trkpt lat="49.06196" lon="1.92188">
        <ele>56.12</ele>
        <time>2018-04-08T13:39:40Z</time>
      </trkpt>
      <trkpt lat="49.06198" lon="1.92162">
        <ele>55.53</ele>
        <time>2018-04-08T13:39:55Z</time>
      </trkpt>
      <trkpt lat="49.06198" lon="1.92146">
        <ele>55.8</ele>
        <time>2018-04-08T13:40:04Z</time>
      </trkpt>
      <trkpt lat="49.06199" lon="1.92137">
        <ele>55.56</ele>
        <time>2018-04-08T13:40:09Z</time>
      </trkpt>
      <trkpt lat="49.06198" lon="1.92105">
        <ele>55.55</ele>
        <time>2018-04-08T13:40:26Z</time>
      </trkpt>
      <trkpt lat="49.06199" lon="1.92076">
        <ele>56.05</ele>
        <time>2018-04-08T13:40:43Z</time>
      </trkpt>
      <trkpt lat="49.062" lon="1.92072">
        <ele>55.83</ele>
        <time>2018-04-08T13:40:55Z</time>
      </trkpt>
      <trkpt lat="49.06201" lon="1.92078">
        <ele>55.98</ele>
        <time>2018-04-08T13:41:11Z</time>
      </trkpt>
      <trkpt lat="49.06202" lon="1.92075">
        <ele>55.48</ele>
        <time>2018-04-08T13:41:26Z</time>
      </trkpt>
      <trkpt lat="49.06203" lon="1.9207">
        <ele>55.65</ele>
        <time>2018-04-08T13:41:43Z</time>
      </trkpt>
      <trkpt lat="49.06206" lon="1.92068">
        <ele>55.65</ele>
        <time>2018-04-08T13:41:47Z</time>
      </trkpt>
      <trkpt lat="49.06223" lon="1.92057">
        <ele>54.33</ele>
        <time>2018-04-08T13:42:05Z</time>
      </trkpt>
      <trkpt lat="49.06238" lon="1.92046">
        <ele>54.8</ele>
        <time>2018-04-08T13:42:21Z</time>
      </trkpt>
      <trkpt lat="49.06248" lon="1.9204">
        <ele>54.91</ele>
        <time>2018-04-08T13:42:31Z</time>
      </trkpt>
      <trkpt lat="49.06268" lon="1.92029">
        <ele>54.53</ele>
        <time>2018-04-08T13:42:48Z</time>
      </trkpt>
      <trkpt lat="49.06285" lon="1.92018">
        <ele>54.5</ele>
        <time>2018-04-08T13:43:04Z</time>
      </trkpt>
      <trkpt lat="49.06301" lon="1.92007">
        <ele>54.06</ele>
        <time>2018-04-08T13:43:19Z</time>
      </trkpt>
      <trkpt lat="49.0631" lon="1.92001">
        <ele>53.95</ele>
        <time>2018-04-08T13:43:27Z</time>
      </trkpt>
      <trkpt lat="49.06327" lon="1.9199">
        <ele>53.93</ele>
        <time>2018-04-08T13:43:43Z</time>
      </trkpt>
      <trkpt lat="49.06329" lon="1.91989">
        <ele>53.64</ele>
        <time>2018-04-08T13:43:45Z</time>
      </trkpt>
      <trkpt lat="49.06346" lon="1.9198">
        <ele>53.06</ele>
        <time>2018-04-08T13:44:00Z</time>
      </trkpt>
      <trkpt lat="49.06363" lon="1.91969">
        <ele>52.91</ele>
        <time>2018-04-08T13:44:15Z</time>
      </trkpt>
      <trkpt lat="49.06384" lon="1.91956">
        <ele>52.14</ele>
        <time>2018-04-08T13:44:32Z</time>
      </trkpt>
      <trkpt lat="49.06395" lon="1.91948">
        <ele>52.47</ele>
        <time>2018-04-08T13:44:44Z</time>
      </trkpt>
      <trkpt lat="49.06399" lon="1.91944">
        <ele>52.04</ele>
        <time>2018-04-08T13:44:48Z</time>
      </trkpt>
      <trkpt lat="49.06418" lon="1.91925">
        <ele>51.89</ele>
        <time>2018-04-08T13:45:07Z</time>
      </trkpt>
      <trkpt lat="49.06436" lon="1.91901">
        <ele>52.39</ele>
        <time>2018-04-08T13:45:28Z</time>
      </trkpt>
      <trkpt lat="49.06452" lon="1.91874">
        <ele>52.09</ele>
        <time>2018-04-08T13:45:48Z</time>
      </trkpt>
      <trkpt lat="49.06463" lon="1.91848">
        <ele>52.6</ele>
        <time>2018-04-08T13:46:04Z</time>
      </trkpt>
      <trkpt lat="49.06472" lon="1.91813">
        <ele>52.68</ele>
        <time>2018-04-08T13:46:24Z</time>
      </trkpt>
      <trkpt lat="49.06475" lon="1.91798">
        <ele>52.9</ele>
        <time>2018-04-08T13:46:32Z</time>
      </trkpt>
      <trkpt lat="49.06483" lon="1.91769">
        <ele>53.16</ele>
        <time>2018-04-08T13:46:49Z</time>
      </trkpt>
      <trkpt lat="49.06491" lon="1.91739">
        <ele>53.46</ele>
        <time>2018-04-08T13:47:06Z</time>
      </trkpt>
      <trkpt lat="49.06495" lon="1.91718">
        <ele>53.3</ele>
        <time>2018-04-08T13:47:19Z</time>
      </trkpt>
      <trkpt lat="49.06497" lon="1.91708">
        <ele>53.78</ele>
        <time>2018-04-08T13:47:25Z</time>
      </trkpt>
      <trkpt lat="49.06499" lon="1.91701">
        <ele>53.81</ele>
        <time>2018-04-08T13:47:29Z</time>
      </trkpt>
      <trkpt lat="49.06507" lon="1.91668">
        <ele>53.66</ele>
        <time>2018-04-08T13:47:48Z</time>
      </trkpt>
      <trkpt lat="49.06513" lon="1.91641">
        <ele>53.88</ele>
        <time>2018-04-08T13:48:03Z</time>
      </trkpt>
      <trkpt lat="49.06518" lon="1.91616">
        <ele>53.96</ele>
        <time>2018-04-08T13:48:17Z</time>
      </trkpt>
      <trkpt lat="49.06521" lon="1.91601">
        <ele>54.64</ele>
        <time>2018-04-08T13:48:26Z</time>
      </trkpt>
      <trkpt lat="49.06527" lon="1.91569">
        <ele>54.56</ele>
        <time>2018-04-08T13:48:44Z</time>
      </trkpt>
      <trkpt lat="49.06528" lon="1.91567">
        <ele>55.27</ele>
        <time>2018-04-08T13:48:46Z</time>
      </trkpt>
      <trkpt lat="49.06531" lon="1.91559">
        <ele>55.65</ele>
        <time>2018-04-08T13:48:51Z</time>
      </trkpt>
      <trkpt lat="49.06533" lon="1.91552">
        <ele>55.31</ele>
        <time>2018-04-08T13:48:55Z</time>
      </trkpt>
      <trkpt lat="49.06534" lon="1.91547">
        <ele>55.58</ele>
        <time>2018-04-08T13:48:58Z</time>
      </trkpt>
      <trkpt lat="49.06537" lon="1.91538">
        <ele>55.72</ele>
        <time>2018-04-08T13:49:04Z</time>
      </trkpt>
      <trkpt lat="49.06544" lon="1.91514">
        <ele>56.19</ele>
        <time>2018-04-08T13:49:20Z</time>
      </trkpt>
      <trkpt lat="49.06545" lon="1.91508">
        <ele>56.21</ele>
        <time>2018-04-08T13:49:24Z</time>
      </trkpt>
      <trkpt lat="49.06554" lon="1.91489">
        <ele>56.88</ele>
        <time>2018-04-08T13:49:40Z</time>
      </trkpt>
      <trkpt lat="49.06556" lon="1.91484">
        <ele>56.67</ele>
        <time>2018-04-08T13:49:44Z</time>
      </trkpt>
      <trkpt lat="49.06566" lon="1.91459">
        <ele>57.31</ele>
        <time>2018-04-08T13:50:02Z</time>
      </trkpt>
      <trkpt lat="49.06573" lon="1.91444">
        <ele>57.89</ele>
        <time>2018-04-08T13:50:14Z</time>
      </trkpt>
      <trkpt lat="49.06583" lon="1.91421">
        <ele>58.05</ele>
        <time>2018-04-08T13:50:30Z</time>
      </trkpt>
      <trkpt lat="49.06584" lon="1.91418">
        <ele>57.92</ele>
        <time>2018-04-08T13:50:32Z</time>
      </trkpt>
      <trkpt lat="49.06592" lon="1.91398">
        <ele>58.58</ele>
        <time>2018-04-08T13:50:47Z</time>
      </trkpt>
      <trkpt lat="49.06602" lon="1.91372">
        <ele>59.16</ele>
        <time>2018-04-08T13:51:04Z</time>
      </trkpt>
      <trkpt lat="49.06605" lon="1.91366">
        <ele>59.13</ele>
        <time>2018-04-08T13:51:08Z</time>
      </trkpt>
      <trkpt lat="49.06618" lon="1.91338">
        <ele>59.63</ele>
        <time>2018-04-08T13:51:27Z</time>
      </trkpt>
      <trkpt lat="49.06627" lon="1.91315">
        <ele>60.23</ele>
        <time>2018-04-08T13:51:43Z</time>
      </trkpt>
      <trkpt lat="49.06636" lon="1.91295">
        <ele>60.6</ele>
        <time>2018-04-08T13:51:57Z</time>
      </trkpt>
      <trkpt lat="49.06645" lon="1.91273">
        <ele>61.03</ele>
        <time>2018-04-08T13:52:12Z</time>
      </trkpt>
      <trkpt lat="49.06652" lon="1.91261">
        <ele>61.05</ele>
        <time>2018-04-08T13:52:23Z</time>
      </trkpt>
      <trkpt lat="49.0666" lon="1.91242">
        <ele>61.71</ele>
        <time>2018-04-08T13:52:36Z</time>
      </trkpt>
      <trkpt lat="49.06662" lon="1.91236">
        <ele>61.81</ele>
        <time>2018-04-08T13:52:40Z</time>
      </trkpt>
      <trkpt lat="49.06668" lon="1.91217">
        <ele>62.57</ele>
        <time>2018-04-08T13:52:52Z</time>
      </trkpt>
      <trkpt lat="49.06672" lon="1.91206">
        <ele>63.24</ele>
        <time>2018-04-08T13:53:00Z</time>
      </trkpt>
      <trkpt lat="49.06682" lon="1.91184">
        <ele>64.04</ele>
        <time>2018-04-08T13:53:15Z</time>
      </trkpt>
      <trkpt lat="49.06693" lon="1.91164">
        <ele>65.36</ele>
        <time>2018-04-08T13:53:31Z</time>
      </trkpt>
      <trkpt lat="49.06704" lon="1.91143">
        <ele>65.6</ele>
        <time>2018-04-08T13:53:47Z</time>
      </trkpt>
      <trkpt lat="49.06706" lon="1.91141">
        <ele>66.33</ele>
        <time>2018-04-08T13:53:49Z</time>
      </trkpt>
      <trkpt lat="49.06716" lon="1.9112">
        <ele>66.87</ele>
        <time>2018-04-08T13:54:06Z</time>
      </trkpt>
      <trkpt lat="49.0672" lon="1.91114">
        <ele>67.13</ele>
        <time>2018-04-08T13:54:11Z</time>
      </trkpt>
      <trkpt lat="49.06724" lon="1.91109">
        <ele>67.21</ele>
        <time>2018-04-08T13:54:16Z</time>
      </trkpt>
      <trkpt lat="49.06727" lon="1.91105">
        <ele>66.98</ele>
        <time>2018-04-08T13:54:20Z</time>
      </trkpt>
      <trkpt lat="49.0674" lon="1.91082">
        <ele>67.74</ele>
        <time>2018-04-08T13:54:38Z</time>
      </trkpt>
      <trkpt lat="49.06751" lon="1.91064">
        <ele>68.27</ele>
        <time>2018-04-08T13:54:54Z</time>
      </trkpt>
      <trkpt lat="49.06759" lon="1.91046">
        <ele>68.03</ele>
        <time>2018-04-08T13:55:07Z</time>
      </trkpt>
      <trkpt lat="49.06772" lon="1.91026">
        <ele>67.9</ele>
        <time>2018-04-08T13:55:22Z</time>
      </trkpt>
      <trkpt lat="49.06783" lon="1.91005">
        <ele>68.76</ele>
        <time>2018-04-08T13:55:38Z</time>
      </trkpt>
      <trkpt lat="49.06786" lon="1.91">
        <ele>68.58</ele>
        <time>2018-04-08T13:55:42Z</time>
      </trkpt>
      <trkpt lat="49.068" lon="1.90972">
        <ele>67.93</ele>
        <time>2018-04-08T13:56:01Z</time>
      </trkpt>
      <trkpt lat="49.0681" lon="1.90955">
        <ele>68.42</ele>
        <time>2018-04-08T13:56:14Z</time>
      </trkpt>
      <trkpt lat="49.06816" lon="1.90945">
        <ele>68.69</ele>
        <time>2018-04-08T13:56:21Z</time>
      </trkpt>
      <trkpt lat="49.06829" lon="1.90918">
        <ele>68.78</ele>
        <time>2018-04-08T13:56:40Z</time>
      </trkpt>
      <trkpt lat="49.06838" lon="1.909">
        <ele>69.26</ele>
        <time>2018-04-08T13:56:54Z</time>
      </trkpt>
      <trkpt lat="49.06847" lon="1.90874">
        <ele>69.37</ele>
        <time>2018-04-08T13:57:11Z</time>
      </trkpt>
      <trkpt lat="49.06851" lon="1.90861">
        <ele>69.16</ele>
        <time>2018-04-08T13:57:20Z</time>
      </trkpt>
      <trkpt lat="49.06858" lon="1.90842">
        <ele>69.7</ele>
        <time>2018-04-08T13:57:33Z</time>
      </trkpt>
      <trkpt lat="49.06868" lon="1.9082">
        <ele>69.61</ele>
        <time>2018-04-08T13:57:48Z</time>
      </trkpt>
      <trkpt lat="49.0687" lon="1.90818">
        <ele>69.79</ele>
        <time>2018-04-08T13:57:50Z</time>
      </trkpt>
      <trkpt lat="49.06878" lon="1.90794">
        <ele>69.55</ele>
        <time>2018-04-08T13:58:06Z</time>
      </trkpt>
      <trkpt lat="49.06881" lon="1.90787">
        <ele>69.65</ele>
        <time>2018-04-08T13:58:11Z</time>
      </trkpt>
      <trkpt lat="49.06889" lon="1.90763">
        <ele>69.9</ele>
        <time>2018-04-08T13:58:26Z</time>
      </trkpt>
      <trkpt lat="49.06891" lon="1.90757">
        <ele>69.7</ele>
        <time>2018-04-08T13:58:30Z</time>
      </trkpt>
      <trkpt lat="49.06893" lon="1.90753">
        <ele>69.95</ele>
        <time>2018-04-08T13:58:33Z</time>
      </trkpt>
      <trkpt lat="49.06898" lon="1.9074">
        <ele>70.12</ele>
        <time>2018-04-08T13:58:42Z</time>
      </trkpt>
      <trkpt lat="49.06902" lon="1.90729">
        <ele>69.85</ele>
        <time>2018-04-08T13:58:50Z</time>
      </trkpt>
      <trkpt lat="49.06911" lon="1.90704">
        <ele>70.29</ele>
        <time>2018-04-08T13:59:07Z</time>
      </trkpt>
      <trkpt lat="49.06911" lon="1.90703">
        <ele>70.29</ele>
        <time>2018-04-08T13:59:08Z</time>
      </trkpt>
      <trkpt lat="49.06918" lon="1.90681">
        <ele>71.15</ele>
        <time>2018-04-08T13:59:22Z</time>
      </trkpt>
      <trkpt lat="49.06918" lon="1.90677">
        <ele>71.02</ele>
        <time>2018-04-08T13:59:24Z</time>
      </trkpt>
      <trkpt lat="49.06926" lon="1.9066">
        <ele>71.21</ele>
        <time>2018-04-08T13:59:37Z</time>
      </trkpt>
      <trkpt lat="49.06933" lon="1.90638">
        <ele>71.76</ele>
        <time>2018-04-08T13:59:52Z</time>
      </trkpt>
      <trkpt lat="49.06935" lon="1.90633">
        <ele>72.05</ele>
        <time>2018-04-08T13:59:56Z</time>
      </trkpt>
      <trkpt lat="49.06945" lon="1.90605">
        <ele>72.81</ele>
        <time>2018-04-08T14:00:13Z</time>
      </trkpt>
      <trkpt lat="49.06953" lon="1.90582">
        <ele>72.55</ele>
        <time>2018-04-08T14:00:29Z</time>
      </trkpt>
      <trkpt lat="49.06958" lon="1.90569">
        <ele>73.23</ele>
        <time>2018-04-08T14:00:44Z</time>
      </trkpt>
      <trkpt lat="49.06959" lon="1.9057">
        <ele>72.45</ele>
        <time>2018-04-08T14:01:03Z</time>
      </trkpt>
      <trkpt lat="49.06959" lon="1.90569">
        <ele>73.2</ele>
        <time>2018-04-08T14:01:24Z</time>
      </trkpt>
      <trkpt lat="49.06959" lon="1.90568">
        <ele>73.14</ele>
        <time>2018-04-08T14:01:50Z</time>
      </trkpt>
      <trkpt lat="49.06958" lon="1.90567">
        <ele>72.87</ele>
        <time>2018-04-08T14:02:23Z</time>
      </trkpt>
      <trkpt lat="49.06957" lon="1.90568">
        <ele>72.18</ele>
        <time>2018-04-08T14:02:55Z</time>
      </trkpt>
      <trkpt lat="49.06957" lon="1.90568">
        <ele>72.29</ele>
        <time>2018-04-08T14:03:25Z</time>
      </trkpt>
      <trkpt lat="49.06959" lon="1.90566">
        <ele>71.97</ele>
        <time>2018-04-08T14:03:47Z</time>
      </trkpt>
      <trkpt lat="49.06962" lon="1.9056">
        <ele>72.33</ele>
        <time>2018-04-08T14:04:05Z</time>
      </trkpt>
      <trkpt lat="49.06964" lon="1.90559">
        <ele>72.22</ele>
        <time>2018-04-08T14:04:07Z</time>
      </trkpt>
      <trkpt lat="49.06967" lon="1.90552">
        <ele>72.16</ele>
        <time>2018-04-08T14:04:12Z</time>
      </trkpt>
      <trkpt lat="49.06969" lon="1.90548">
        <ele>72.25</ele>
        <time>2018-04-08T14:04:15Z</time>
      </trkpt>
      <trkpt lat="49.06979" lon="1.90525">
        <ele>72.9</ele>
        <time>2018-04-08T14:04:30Z</time>
      </trkpt>
      <trkpt lat="49.06993" lon="1.90498">
        <ele>73.43</ele>
        <time>2018-04-08T14:04:50Z</time>
      </trkpt>
      <trkpt lat="49.07004" lon="1.90474">
        <ele>73.56</ele>
        <time>2018-04-08T14:05:07Z</time>
      </trkpt>
      <trkpt lat="49.07009" lon="1.90464">
        <ele>73.54</ele>
        <time>2018-04-08T14:05:14Z</time>
      </trkpt>
      <trkpt lat="49.07018" lon="1.90445">
        <ele>73.63</ele>
        <time>2018-04-08T14:05:30Z</time>
      </trkpt>
      <trkpt lat="49.07021" lon="1.90437">
        <ele>73.77</ele>
        <time>2018-04-08T14:05:36Z</time>
      </trkpt>
      <trkpt lat="49.07033" lon="1.90415">
        <ele>73.31</ele>
        <time>2018-04-08T14:05:53Z</time>
      </trkpt>
      <trkpt lat="49.07047" lon="1.90391">
        <ele>73.27</ele>
        <time>2018-04-08T14:06:11Z</time>
      </trkpt>
      <trkpt lat="49.07059" lon="1.90367">
        <ele>73.18</ele>
        <time>2018-04-08T14:06:27Z</time>
      </trkpt>
      <trkpt lat="49.07072" lon="1.90344">
        <ele>73.08</ele>
        <time>2018-04-08T14:06:43Z</time>
      </trkpt>
      <trkpt lat="49.07086" lon="1.90317">
        <ele>72.23</ele>
        <time>2018-04-08T14:07:02Z</time>
      </trkpt>
      <trkpt lat="49.07093" lon="1.90306">
        <ele>72.41</ele>
        <time>2018-04-08T14:07:10Z</time>
      </trkpt>
      <trkpt lat="49.07094" lon="1.90303">
        <ele>72.07</ele>
        <time>2018-04-08T14:07:12Z</time>
      </trkpt>
      <trkpt lat="49.07098" lon="1.90296">
        <ele>72.34</ele>
        <time>2018-04-08T14:07:17Z</time>
      </trkpt>
      <trkpt lat="49.07107" lon="1.90274">
        <ele>72.13</ele>
        <time>2018-04-08T14:07:32Z</time>
      </trkpt>
      <trkpt lat="49.07119" lon="1.90249">
        <ele>72.63</ele>
        <time>2018-04-08T14:07:49Z</time>
      </trkpt>
      <trkpt lat="49.07125" lon="1.90239">
        <ele>72.51</ele>
        <time>2018-04-08T14:07:57Z</time>
      </trkpt>
      <trkpt lat="49.07127" lon="1.90235">
        <ele>72.56</ele>
        <time>2018-04-08T14:08:00Z</time>
      </trkpt>
      <trkpt lat="49.07137" lon="1.90214">
        <ele>72.76</ele>
        <time>2018-04-08T14:08:15Z</time>
      </trkpt>
      <trkpt lat="49.07148" lon="1.90201">
        <ele>73.06</ele>
        <time>2018-04-08T14:08:29Z</time>
      </trkpt>
      <trkpt lat="49.07158" lon="1.90206">
        <ele>73.13</ele>
        <time>2018-04-08T14:08:41Z</time>
      </trkpt>
      <trkpt lat="49.07166" lon="1.90214">
        <ele>72.83</ele>
        <time>2018-04-08T14:08:53Z</time>
      </trkpt>
      <trkpt lat="49.07169" lon="1.90216">
        <ele>72.72</ele>
        <time>2018-04-08T14:08:57Z</time>
      </trkpt>
      <trkpt lat="49.07191" lon="1.9023">
        <ele>71.94</ele>
        <time>2018-04-08T14:09:17Z</time>
      </trkpt>
      <trkpt lat="49.07208" lon="1.90244">
        <ele>71.1</ele>
        <time>2018-04-08T14:09:34Z</time>
      </trkpt>
      <trkpt lat="49.07224" lon="1.90253">
        <ele>71</ele>
        <time>2018-04-08T14:09:48Z</time>
      </trkpt>
      <trkpt lat="49.0724" lon="1.90266">
        <ele>71.12</ele>
        <time>2018-04-08T14:10:03Z</time>
      </trkpt>
      <trkpt lat="49.0726" lon="1.90281">
        <ele>70.27</ele>
        <time>2018-04-08T14:10:21Z</time>
      </trkpt>
      <trkpt lat="49.07283" lon="1.90296">
        <ele>70.42</ele>
        <time>2018-04-08T14:10:43Z</time>
      </trkpt>
      <trkpt lat="49.07287" lon="1.90299">
        <ele>70.42</ele>
        <time>2018-04-08T14:10:47Z</time>
      </trkpt>
      <trkpt lat="49.07305" lon="1.90311">
        <ele>71.19</ele>
        <time>2018-04-08T14:11:03Z</time>
      </trkpt>
      <trkpt lat="49.0731" lon="1.90314">
        <ele>70.92</ele>
        <time>2018-04-08T14:11:07Z</time>
      </trkpt>
      <trkpt lat="49.07329" lon="1.90328">
        <ele>71.92</ele>
        <time>2018-04-08T14:11:25Z</time>
      </trkpt>
      <trkpt lat="49.07348" lon="1.90341">
        <ele>71.73</ele>
        <time>2018-04-08T14:11:42Z</time>
      </trkpt>
      <trkpt lat="49.07362" lon="1.90352">
        <ele>72.28</ele>
        <time>2018-04-08T14:11:57Z</time>
      </trkpt>
      <trkpt lat="49.07374" lon="1.9036">
        <ele>73.02</ele>
        <time>2018-04-08T14:12:15Z</time>
      </trkpt>
      <trkpt lat="49.07391" lon="1.90373">
        <ele>72.93</ele>
        <time>2018-04-08T14:12:33Z</time>
      </trkpt>
      <trkpt lat="49.0741" lon="1.90385">
        <ele>72.84</ele>
        <time>2018-04-08T14:12:50Z</time>
      </trkpt>
      <trkpt lat="49.07419" lon="1.90388">
        <ele>73.44</ele>
        <time>2018-04-08T14:12:58Z</time>
      </trkpt>
      <trkpt lat="49.07438" lon="1.904">
        <ele>73.34</ele>
        <time>2018-04-08T14:13:15Z</time>
      </trkpt>
      <trkpt lat="49.07454" lon="1.90413">
        <ele>73.43</ele>
        <time>2018-04-08T14:13:31Z</time>
      </trkpt>
      <trkpt lat="49.07473" lon="1.90426">
        <ele>73.65</ele>
        <time>2018-04-08T14:13:48Z</time>
      </trkpt>
      <trkpt lat="49.07489" lon="1.90439">
        <ele>73.34</ele>
        <time>2018-04-08T14:14:03Z</time>
      </trkpt>
      <trkpt lat="49.07504" lon="1.90453">
        <ele>72.95</ele>
        <time>2018-04-08T14:14:19Z</time>
      </trkpt>
      <trkpt lat="49.07519" lon="1.90464">
        <ele>72.71</ele>
        <time>2018-04-08T14:14:34Z</time>
      </trkpt>
      <trkpt lat="49.07534" lon="1.90476">
        <ele>72.32</ele>
        <time>2018-04-08T14:14:50Z</time>
      </trkpt>
      <trkpt lat="49.07551" lon="1.90488">
        <ele>72.22</ele>
        <time>2018-04-08T14:15:06Z</time>
      </trkpt>
      <trkpt lat="49.07569" lon="1.90504">
        <ele>72.18</ele>
        <time>2018-04-08T14:15:24Z</time>
      </trkpt>
      <trkpt lat="49.07585" lon="1.90518">
        <ele>71.75</ele>
        <time>2018-04-08T14:15:40Z</time>
      </trkpt>
      <trkpt lat="49.07601" lon="1.90533">
        <ele>71.78</ele>
        <time>2018-04-08T14:15:56Z</time>
      </trkpt>
      <trkpt lat="49.07617" lon="1.90549">
        <ele>71.24</ele>
        <time>2018-04-08T14:16:13Z</time>
      </trkpt>
      <trkpt lat="49.0763" lon="1.9056">
        <ele>70.64</ele>
        <time>2018-04-08T14:16:26Z</time>
      </trkpt>
      <trkpt lat="49.07631" lon="1.90561">
        <ele>71.14</ele>
        <time>2018-04-08T14:16:27Z</time>
      </trkpt>
      <trkpt lat="49.0765" lon="1.9058">
        <ele>69.85</ele>
        <time>2018-04-08T14:16:46Z</time>
      </trkpt>
      <trkpt lat="49.07666" lon="1.90597">
        <ele>69.37</ele>
        <time>2018-04-08T14:17:03Z</time>
      </trkpt>
      <trkpt lat="49.07682" lon="1.90614">
        <ele>68.69</ele>
        <time>2018-04-08T14:17:21Z</time>
      </trkpt>
      <trkpt lat="49.07696" lon="1.90631">
        <ele>67.3</ele>
        <time>2018-04-08T14:17:37Z</time>
      </trkpt>
      <trkpt lat="49.07704" lon="1.9064">
        <ele>67.53</ele>
        <time>2018-04-08T14:17:46Z</time>
      </trkpt>
      <trkpt lat="49.07719" lon="1.90658">
        <ele>65.68</ele>
        <time>2018-04-08T14:18:03Z</time>
      </trkpt>
      <trkpt lat="49.07736" lon="1.90674">
        <ele>64.88</ele>
        <time>2018-04-08T14:18:20Z</time>
      </trkpt>
      <trkpt lat="49.07749" lon="1.90689">
        <ele>64.42</ele>
        <time>2018-04-08T14:18:35Z</time>
      </trkpt>
      <trkpt lat="49.07762" lon="1.90703">
        <ele>63.68</ele>
        <time>2018-04-08T14:18:49Z</time>
      </trkpt>
      <trkpt lat="49.07779" lon="1.90721">
        <ele>63.36</ele>
        <time>2018-04-08T14:19:06Z</time>
      </trkpt>
      <trkpt lat="49.07794" lon="1.90737">
        <ele>63.42</ele>
        <time>2018-04-08T14:19:22Z</time>
      </trkpt>
      <trkpt lat="49.0781" lon="1.90753">
        <ele>62.93</ele>
        <time>2018-04-08T14:19:37Z</time>
      </trkpt>
      <trkpt lat="49.07824" lon="1.90768">
        <ele>61.96</ele>
        <time>2018-04-08T14:19:52Z</time>
      </trkpt>
      <trkpt lat="49.07838" lon="1.90783">
        <ele>61.74</ele>
        <time>2018-04-08T14:20:06Z</time>
      </trkpt>
      <trkpt lat="49.07849" lon="1.90794">
        <ele>61.62</ele>
        <time>2018-04-08T14:20:17Z</time>
      </trkpt>
      <trkpt lat="49.07852" lon="1.90796">
        <ele>61.52</ele>
        <time>2018-04-08T14:20:20Z</time>
      </trkpt>
      <trkpt lat="49.07867" lon="1.90813">
        <ele>61.32</ele>
        <time>2018-04-08T14:20:36Z</time>
      </trkpt>
      <trkpt lat="49.07882" lon="1.9083">
        <ele>60.13</ele>
        <time>2018-04-08T14:20:52Z</time>
      </trkpt>
      <trkpt lat="49.07897" lon="1.90845">
        <ele>59.76</ele>
        <time>2018-04-08T14:21:07Z</time>
      </trkpt>
      <trkpt lat="49.07914" lon="1.90865">
        <ele>59.17</ele>
        <time>2018-04-08T14:21:26Z</time>
      </trkpt>
      <trkpt lat="49.07928" lon="1.90882">
        <ele>58.68</ele>
        <time>2018-04-08T14:21:42Z</time>
      </trkpt>
      <trkpt lat="49.07941" lon="1.90899">
        <ele>58.52</ele>
        <time>2018-04-08T14:21:56Z</time>
      </trkpt>
      <trkpt lat="49.07954" lon="1.90915">
        <ele>58.84</ele>
        <time>2018-04-08T14:22:11Z</time>
      </trkpt>
      <trkpt lat="49.07967" lon="1.9093">
        <ele>58.82</ele>
        <time>2018-04-08T14:22:25Z</time>
      </trkpt>
      <trkpt lat="49.07981" lon="1.90949">
        <ele>58.17</ele>
        <time>2018-04-08T14:22:41Z</time>
      </trkpt>
      <trkpt lat="49.07997" lon="1.90971">
        <ele>58.18</ele>
        <time>2018-04-08T14:22:58Z</time>
      </trkpt>
      <trkpt lat="49.07998" lon="1.90972">
        <ele>58.36</ele>
        <time>2018-04-08T14:22:59Z</time>
      </trkpt>
      <trkpt lat="49.08013" lon="1.90992">
        <ele>58.07</ele>
        <time>2018-04-08T14:23:17Z</time>
      </trkpt>
      <trkpt lat="49.08019" lon="1.91002">
        <ele>57.92</ele>
        <time>2018-04-08T14:23:31Z</time>
      </trkpt>
      <trkpt lat="49.0802" lon="1.91003">
        <ele>57.82</ele>
        <time>2018-04-08T14:23:34Z</time>
      </trkpt>
      <trkpt lat="49.08027" lon="1.91013">
        <ele>57.42</ele>
        <time>2018-04-08T14:23:47Z</time>
      </trkpt>
      <trkpt lat="49.08032" lon="1.9102">
        <ele>58.1</ele>
        <time>2018-04-08T14:24:00Z</time>
      </trkpt>
      <trkpt lat="49.08035" lon="1.91019">
        <ele>57.63</ele>
        <time>2018-04-08T14:24:20Z</time>
      </trkpt>
      <trkpt lat="49.08036" lon="1.91018">
        <ele>57.88</ele>
        <time>2018-04-08T14:24:45Z</time>
      </trkpt>
      <trkpt lat="49.08035" lon="1.91016">
        <ele>58.46</ele>
        <time>2018-04-08T14:24:57Z</time>
      </trkpt>
      <trkpt lat="49.08036" lon="1.91014">
        <ele>58.13</ele>
        <time>2018-04-08T14:25:19Z</time>
      </trkpt>
      <trkpt lat="49.08036" lon="1.9101">
        <ele>57.91</ele>
        <time>2018-04-08T14:25:43Z</time>
      </trkpt>
      <trkpt lat="49.08039" lon="1.91013">
        <ele>58.22</ele>
        <time>2018-04-08T14:25:49Z</time>
      </trkpt>
      <trkpt lat="49.08049" lon="1.91001">
        <ele>57.75</ele>
        <time>2018-04-08T14:26:04Z</time>
      </trkpt>
      <trkpt lat="49.08062" lon="1.90978">
        <ele>59.04</ele>
        <time>2018-04-08T14:26:23Z</time>
      </trkpt>
      <trkpt lat="49.08075" lon="1.90952">
        <ele>59.42</ele>
        <time>2018-04-08T14:26:42Z</time>
      </trkpt>
      <trkpt lat="49.08091" lon="1.90918">
        <ele>59.7</ele>
        <time>2018-04-08T14:27:06Z</time>
      </trkpt>
      <trkpt lat="49.081" lon="1.90895">
        <ele>59.77</ele>
        <time>2018-04-08T14:27:22Z</time>
      </trkpt>
      <trkpt lat="49.08107" lon="1.90878">
        <ele>60.47</ele>
        <time>2018-04-08T14:27:34Z</time>
      </trkpt>
      <trkpt lat="49.08113" lon="1.90864">
        <ele>60.84</ele>
        <time>2018-04-08T14:27:43Z</time>
      </trkpt>
      <trkpt lat="49.08123" lon="1.90839">
        <ele>61.19</ele>
        <time>2018-04-08T14:27:59Z</time>
      </trkpt>
      <trkpt lat="49.08133" lon="1.9081">
        <ele>61.52</ele>
        <time>2018-04-08T14:28:17Z</time>
      </trkpt>
      <trkpt lat="49.08146" lon="1.90778">
        <ele>61.51</ele>
        <time>2018-04-08T14:28:38Z</time>
      </trkpt>
      <trkpt lat="49.08156" lon="1.9075">
        <ele>62.17</ele>
        <time>2018-04-08T14:28:57Z</time>
      </trkpt>
      <trkpt lat="49.08164" lon="1.90726">
        <ele>62.65</ele>
        <time>2018-04-08T14:29:13Z</time>
      </trkpt>
      <trkpt lat="49.08174" lon="1.907">
        <ele>62.24</ele>
        <time>2018-04-08T14:29:29Z</time>
      </trkpt>
      <trkpt lat="49.0818" lon="1.90682">
        <ele>63.06</ele>
        <time>2018-04-08T14:29:41Z</time>
      </trkpt>
      <trkpt lat="49.08182" lon="1.90675">
        <ele>62.86</ele>
        <time>2018-04-08T14:29:45Z</time>
      </trkpt>
      <trkpt lat="49.0819" lon="1.90651">
        <ele>63.19</ele>
        <time>2018-04-08T14:30:01Z</time>
      </trkpt>
      <trkpt lat="49.08199" lon="1.90628">
        <ele>63.13</ele>
        <time>2018-04-08T14:30:17Z</time>
      </trkpt>
      <trkpt lat="49.08207" lon="1.906">
        <ele>63.34</ele>
        <time>2018-04-08T14:30:35Z</time>
      </trkpt>
      <trkpt lat="49.08216" lon="1.9057">
        <ele>63.91</ele>
        <time>2018-04-08T14:30:54Z</time>
      </trkpt>
      <trkpt lat="49.0822" lon="1.90555">
        <ele>63.57</ele>
        <time>2018-04-08T14:31:07Z</time>
      </trkpt>
      <trkpt lat="49.08221" lon="1.90553">
        <ele>63.93</ele>
        <time>2018-04-08T14:31:10Z</time>
      </trkpt>
      <trkpt lat="49.08221" lon="1.9055">
        <ele>63.94</ele>
        <time>2018-04-08T14:31:12Z</time>
      </trkpt>
      <trkpt lat="49.08223" lon="1.90543">
        <ele>63.69</ele>
        <time>2018-04-08T14:31:16Z</time>
      </trkpt>
      <trkpt lat="49.08229" lon="1.90518">
        <ele>64.5</ele>
        <time>2018-04-08T14:31:32Z</time>
      </trkpt>
      <trkpt lat="49.08231" lon="1.90513">
        <ele>64.09</ele>
        <time>2018-04-08T14:31:35Z</time>
      </trkpt>
      <trkpt lat="49.08238" lon="1.90489">
        <ele>64.46</ele>
        <time>2018-04-08T14:31:50Z</time>
      </trkpt>
      <trkpt lat="49.08247" lon="1.90463">
        <ele>63.94</ele>
        <time>2018-04-08T14:32:06Z</time>
      </trkpt>
      <trkpt lat="49.08254" lon="1.90435">
        <ele>64.3</ele>
        <time>2018-04-08T14:32:23Z</time>
      </trkpt>
      <trkpt lat="49.0826" lon="1.9041">
        <ele>64.13</ele>
        <time>2018-04-08T14:32:39Z</time>
      </trkpt>
      <trkpt lat="49.08264" lon="1.90394">
        <ele>64.2</ele>
        <time>2018-04-08T14:32:49Z</time>
      </trkpt>
      <trkpt lat="49.08271" lon="1.90376">
        <ele>64.18</ele>
        <time>2018-04-08T14:33:00Z</time>
      </trkpt>
      <trkpt lat="49.08273" lon="1.90366">
        <ele>64.53</ele>
        <time>2018-04-08T14:33:06Z</time>
      </trkpt>
      <trkpt lat="49.08282" lon="1.90335">
        <ele>64.09</ele>
        <time>2018-04-08T14:33:25Z</time>
      </trkpt>
      <trkpt lat="49.08284" lon="1.90327">
        <ele>64.34</ele>
        <time>2018-04-08T14:33:30Z</time>
      </trkpt>
      <trkpt lat="49.08291" lon="1.90299">
        <ele>64.03</ele>
        <time>2018-04-08T14:33:47Z</time>
      </trkpt>
      <trkpt lat="49.08293" lon="1.90289">
        <ele>64.47</ele>
        <time>2018-04-08T14:33:53Z</time>
      </trkpt>
      <trkpt lat="49.08297" lon="1.90273">
        <ele>64.54</ele>
        <time>2018-04-08T14:34:04Z</time>
      </trkpt>
      <trkpt lat="49.08306" lon="1.90249">
        <ele>63.98</ele>
        <time>2018-04-08T14:34:19Z</time>
      </trkpt>
      <trkpt lat="49.08313" lon="1.90225">
        <ele>64.38</ele>
        <time>2018-04-08T14:34:34Z</time>
      </trkpt>
      <trkpt lat="49.08322" lon="1.90196">
        <ele>63.46</ele>
        <time>2018-04-08T14:34:51Z</time>
      </trkpt>
      <trkpt lat="49.08323" lon="1.9019">
        <ele>64.14</ele>
        <time>2018-04-08T14:34:55Z</time>
      </trkpt>
      <trkpt lat="49.0833" lon="1.90167">
        <ele>63.69</ele>
        <time>2018-04-08T14:35:11Z</time>
      </trkpt>
      <trkpt lat="49.08332" lon="1.90157">
        <ele>63.89</ele>
        <time>2018-04-08T14:35:18Z</time>
      </trkpt>
      <trkpt lat="49.08342" lon="1.90131">
        <ele>63.83</ele>
        <time>2018-04-08T14:35:36Z</time>
      </trkpt>
      <trkpt lat="49.08348" lon="1.90108">
        <ele>64.07</ele>
        <time>2018-04-08T14:35:51Z</time>
      </trkpt>
      <trkpt lat="49.08352" lon="1.90093">
        <ele>63.8</ele>
        <time>2018-04-08T14:36:00Z</time>
      </trkpt>
      <trkpt lat="49.08358" lon="1.90072">
        <ele>64.31</ele>
        <time>2018-04-08T14:36:15Z</time>
      </trkpt>
      <trkpt lat="49.08365" lon="1.90045">
        <ele>64.61</ele>
        <time>2018-04-08T14:36:31Z</time>
      </trkpt>
      <trkpt lat="49.08369" lon="1.90029">
        <ele>64.45</ele>
        <time>2018-04-08T14:36:41Z</time>
      </trkpt>
      <trkpt lat="49.08376" lon="1.90004">
        <ele>64.25</ele>
        <time>2018-04-08T14:36:56Z</time>
      </trkpt>
      <trkpt lat="49.08381" lon="1.89979">
        <ele>63.87</ele>
        <time>2018-04-08T14:37:11Z</time>
      </trkpt>
      <trkpt lat="49.08382" lon="1.89977">
        <ele>63.65</ele>
        <time>2018-04-08T14:37:12Z</time>
      </trkpt>
      <trkpt lat="49.08392" lon="1.89941">
        <ele>63.97</ele>
        <time>2018-04-08T14:37:32Z</time>
      </trkpt>
      <trkpt lat="49.08397" lon="1.89916">
        <ele>64.2</ele>
        <time>2018-04-08T14:37:47Z</time>
      </trkpt>
      <trkpt lat="49.084" lon="1.89903">
        <ele>64.45</ele>
        <time>2018-04-08T14:37:55Z</time>
      </trkpt>
      <trkpt lat="49.08406" lon="1.89875">
        <ele>64.25</ele>
        <time>2018-04-08T14:38:12Z</time>
      </trkpt>
      <trkpt lat="49.08409" lon="1.89853">
        <ele>64.07</ele>
        <time>2018-04-08T14:38:25Z</time>
      </trkpt>
      <trkpt lat="49.08413" lon="1.89824">
        <ele>64.66</ele>
        <time>2018-04-08T14:38:41Z</time>
      </trkpt>
      <trkpt lat="49.08419" lon="1.89793">
        <ele>64.77</ele>
        <time>2018-04-08T14:38:59Z</time>
      </trkpt>
      <trkpt lat="49.08422" lon="1.89775">
        <ele>64.87</ele>
        <time>2018-04-08T14:39:11Z</time>
      </trkpt>
      <trkpt lat="49.08424" lon="1.8977">
        <ele>65.54</ele>
        <time>2018-04-08T14:39:15Z</time>
      </trkpt>
      <trkpt lat="49.08427" lon="1.89764">
        <ele>65.58</ele>
        <time>2018-04-08T14:39:19Z</time>
      </trkpt>
      <trkpt lat="49.08434" lon="1.89758">
        <ele>66.47</ele>
        <time>2018-04-08T14:39:32Z</time>
      </trkpt>
      <trkpt lat="49.08435" lon="1.89759">
        <ele>66.32</ele>
        <time>2018-04-08T14:39:55Z</time>
      </trkpt>
      <trkpt lat="49.08435" lon="1.89759">
        <ele>66.07</ele>
        <time>2018-04-08T14:40:24Z</time>
      </trkpt>
      <trkpt lat="49.08435" lon="1.8976">
        <ele>65.97</ele>
        <time>2018-04-08T14:40:53Z</time>
      </trkpt>
      <trkpt lat="49.08438" lon="1.89763">
        <ele>66.04</ele>
        <time>2018-04-08T14:41:10Z</time>
      </trkpt>
      <trkpt lat="49.08455" lon="1.89769">
        <ele>65.74</ele>
        <time>2018-04-08T14:41:26Z</time>
      </trkpt>
      <trkpt lat="49.08479" lon="1.89776">
        <ele>65.42</ele>
        <time>2018-04-08T14:41:45Z</time>
      </trkpt>
      <trkpt lat="49.08491" lon="1.89777">
        <ele>65</ele>
        <time>2018-04-08T14:41:57Z</time>
      </trkpt>
      <trkpt lat="49.08502" lon="1.89767">
        <ele>64.99</ele>
        <time>2018-04-08T14:42:09Z</time>
      </trkpt>
      <trkpt lat="49.08515" lon="1.89737">
        <ele>64.75</ele>
        <time>2018-04-08T14:42:28Z</time>
      </trkpt>
      <trkpt lat="49.08527" lon="1.89702">
        <ele>64.24</ele>
        <time>2018-04-08T14:42:50Z</time>
      </trkpt>
      <trkpt lat="49.08531" lon="1.89695">
        <ele>64.64</ele>
        <time>2018-04-08T14:42:55Z</time>
      </trkpt>
      <trkpt lat="49.08534" lon="1.89685">
        <ele>64.39</ele>
        <time>2018-04-08T14:43:02Z</time>
      </trkpt>
      <trkpt lat="49.08543" lon="1.89668">
        <ele>64.61</ele>
        <time>2018-04-08T14:43:15Z</time>
      </trkpt>
      <trkpt lat="49.08557" lon="1.89659">
        <ele>64.48</ele>
        <time>2018-04-08T14:43:30Z</time>
      </trkpt>
      <trkpt lat="49.0857" lon="1.89665">
        <ele>64.13</ele>
        <time>2018-04-08T14:43:46Z</time>
      </trkpt>
      <trkpt lat="49.08581" lon="1.8967">
        <ele>63.76</ele>
        <time>2018-04-08T14:44:04Z</time>
      </trkpt>
      <trkpt lat="49.08582" lon="1.8967">
        <ele>64.15</ele>
        <time>2018-04-08T14:44:05Z</time>
      </trkpt>
      <trkpt lat="49.08599" lon="1.89672">
        <ele>64.09</ele>
        <time>2018-04-08T14:44:24Z</time>
      </trkpt>
      <trkpt lat="49.08619" lon="1.89678">
        <ele>63.84</ele>
        <time>2018-04-08T14:44:39Z</time>
      </trkpt>
      <trkpt lat="49.08626" lon="1.8968">
        <ele>64.13</ele>
        <time>2018-04-08T14:44:44Z</time>
      </trkpt>
      <trkpt lat="49.08629" lon="1.8968">
        <ele>64.32</ele>
        <time>2018-04-08T14:44:46Z</time>
      </trkpt>
      <trkpt lat="49.08645" lon="1.89683">
        <ele>64.61</ele>
        <time>2018-04-08T14:44:59Z</time>
      </trkpt>
      <trkpt lat="49.08657" lon="1.8968">
        <ele>65.04</ele>
        <time>2018-04-08T14:45:11Z</time>
      </trkpt>
      <trkpt lat="49.08658" lon="1.89677">
        <ele>65.36</ele>
        <time>2018-04-08T14:45:13Z</time>
      </trkpt>
      <trkpt lat="49.08659" lon="1.89666">
        <ele>65.76</ele>
        <time>2018-04-08T14:45:20Z</time>
      </trkpt>
      <trkpt lat="49.08665" lon="1.8963">
        <ele>66.62</ele>
        <time>2018-04-08T14:45:40Z</time>
      </trkpt>
      <trkpt lat="49.08668" lon="1.89605">
        <ele>67.47</ele>
        <time>2018-04-08T14:45:55Z</time>
      </trkpt>
    </trkseg>
  </trk>
</gpx>